     2              OBSERVATION DATA    GPS                 RINEX VERSION / TYPE
TurboRhino 92 8 25 20 40 9                                  PGM / RUN BY / DATE
TurboRogue rinex formatter V1.0                             COMMENT
moja                                                        MARKER NAME
JL OBSERVER/AGENCY 108 0TurboRogue Fri 08/21 16:28:52       REC # / TYPE / VERS
14 0D. AND M. C146-6-1                                      ANT # / TYPE
        0.0614        0.0000        0.0000                  ANTENNA: DELTA H/E/N
 -2356494.0000 -4646608.0000  3668427.0000                  APPROX POSITION XYZ
    30                                                      INTERVAL
                                                            COMMENT
PANGA GPS Data Analysis Center                              COMMENT
Department of Geology                                       COMMENT
Central Washington University                               COMMENT
Ellensburg, WA 98926                                        COMMENT
                                                            COMMENT
http://www.panga.cwu.edu                                    COMMENT
ftp://panga.cwu.edu                                         COMMENT
                                                            COMMENT
     1     1                                                WAVELENGTH FACT L1/2
     5    C1    L1    L2    P1    P2                        # / TYPES OF OBSERV
    92     8    19     0     0    0.0000000                 TIME OF FIRST OBS
    92     8    19    23    59   30.0000000                 TIME OF LAST OBS
                                                            END OF HEADER
 92  8 19  0  0  0.0000000  0  6 26 28 21 23 17 03
  22788352.85906  -5186788.26106  -4041637.20909  22788221.61006  22788224.65006
  23667828.15206  -8926784.71106  -6955931.37309  23667696.08806  23667700.16606
  22467503.55906  -9454760.37006  -7367328.63009  22467372.06606  22467376.62806
  20515893.85806 -17606026.63306 -13718956.05809  20515762.32506  20515764.61706
  20543021.00006  -6144568.38806  -4787967.72409  20542889.55506  20542892.03206
  20973467.84006  -3469173.60806  -2703251.39709  20973336.80306  20973340.49906
 92  8 19  0  0 30.0000000  0  6 03 26 28 21 23 17
  20984123.37006  -3413178.42706  -2659618.83009  20983992.34506  20983996.03306
  22797864.55106  -5136803.38706  -4002687.97709  22797733.33106  22797736.34506
  23648334.78106  -9029221.98006  -7035752.52809  23648202.68906  23648206.85806
  22453146.46706  -9530206.89006  -7426118.04009  22453015.01006  22453019.60506
  20513683.02306 -17617644.57206 -13728008.98309  20513551.44706  20513553.72706
  20544754.18206  -6135460.90306  -4780870.98109  20544622.70506  20544625.17606
 92  8 19  0  1  0.0000000  0  6 03 26 28 21 23 17
  20994902.20306  -3356535.87006  -2615481.81609  20994771.11106  20994774.80606
  22807487.78406  -5086233.63406  -3963282.99209  22807356.52006  22807359.49106
  23628898.11106  -9131363.20806  -7115343.00709  23628766.09106  23628770.02006
  22438858.78106  -9605288.23506  -7484622.89909  22438727.46106  22438731.96706
  20511562.49506 -17628788.32306 -13736692.41209  20511430.91506  20511433.17306
  20546548.76806  -6126030.15106  -4773522.34309  20546417.29206  20546419.77506
 92  8 19  0  1 30.0000000  0  6 03 26 28 21 23 17
  21005810.30906  -3299213.54606  -2570815.11009  21005679.20506  21005682.91006
  22817226.20306  -5035057.53406  -3923405.52809  22817095.04606  22817098.06606
  23609522.90406  -9233180.84606  -7194681.34209  23609390.80406  23609394.82206
  22424650.45606  -9679953.27006  -7542803.35909  22424519.04506  22424523.64206
  20509541.01506 -17639410.87606 -13744969.71209  20509409.44006  20509411.71306
  20548410.16506  -6116248.34806  -4765900.15909  20548278.70706  20548281.21806
 92  8 19  0  2  0.0000000  0  6 03 26 28 21 23 17
  21016848.82806  -3241205.63106  -2525614.18209  21016717.79506  21016721.48806
  22827081.49806  -4983267.26206  -3883049.49409  22826950.33606  22826953.39706
  23590209.74006  -9334670.91206  -7273764.43309  23590077.73706  23590081.65406
  22410524.46706  -9754185.53506  -7600646.59709  22410393.10806  22410397.62706
  20507624.84506 -17649480.51806 -13752816.17209  20507493.26306  20507495.50906
  20550340.39006  -6106104.85206  -4757996.13409  20550208.89906  20550211.39706
 92  8 19  0  2 30.0000000  0  6 03 26 28 21 23 17
  21028015.61606  -3182523.94906  -2479888.23909  21027884.54506  21027888.28206
  22837050.20006  -4930880.89706  -3842228.97109  22836919.08906  22836922.09606
  23570958.86706  -9435834.98106  -7352593.50509  23570826.81606  23570830.59506
  22396479.84206  -9827990.78506  -7658157.09809  22396348.37506  22396352.87206
  20505816.35306 -17658983.88006 -13760221.37609  20505684.80906  20505687.05606
  20552338.80106  -6095603.48306  -4749813.25109  20552207.31506  20552209.76206
 92  8 19  0  3  0.0000000  0  6 03 26 28 21 23 17
  21039306.20406  -3123191.62906  -2433655.30709  21039175.17706  21039178.90806
  22847129.83206  -4877913.58906  -3800955.76509  22846998.62106  22847001.66006
  23551768.71306  -9536680.63906  -7431174.47309  23551636.63706  23551640.38906
  22382511.04406  -9901396.33206  -7715356.13909  22382379.73806  22382384.13306
  20504109.80206 -17667951.98306 -13767209.49609  20503978.23906  20503980.49606
  20554404.57006  -6084747.79806  -4741354.27809  20554273.05206  20554275.50306
 92  8 19  0  3 30.0000000  0  6 03 26 28 21 23 17
  21050715.36106  -3063236.26406  -2386936.88709  21050584.32606  21050588.07406
  22857315.85706  -4824386.31906  -3759246.22309  22857184.59006  22857187.60006
  23532633.68206  -9637235.60006  -7509528.92709  23532501.51706  23532505.31306
  22368610.75906  -9974442.48606  -7772275.13209  22368479.39006  22368483.82906
  20502494.78106 -17676439.05706 -13773822.78909  20502363.22806  20502365.44406
  20556537.13006  -6073541.05006  -4732621.74909  20556405.63006  20556408.09706
 92  8 19  0  4  0.0000000  0  6 03 26 28 21 23 17
  21062237.41906  -3002687.10606  -2339755.76709  21062106.45406  21062110.21106
  22867603.79306  -4770322.47606  -3717118.56909  22867472.56306  22867475.60106
  23513552.95106  -9737503.72506  -7587659.87409  23513420.86006  23513424.69806
  22354771.32506 -10047168.70406  -7828944.82409  22354639.93906  22354644.38206
  20500964.07606 -17684482.89706 -13780090.70409  20500832.53006  20500834.78806
  20558732.21806  -6062005.95606  -4723633.36809  20558600.74206  20558603.17806
 92  8 19  0  4 30.0000000  0  6 03 26 28 21 23 17
  21073865.81006  -2941580.32306  -2292140.13609  21073734.73206  21073738.49306
  22877987.76806  -4715754.09006  -3674597.76509  22877856.53006  22877859.61606
  23494523.48006  -9837502.31906  -7665580.80009  23494391.62806  23494395.44406
  22340984.41506 -10119619.46706  -7885399.87409  22340852.94106  22340857.40306
  20499507.04006 -17692139.48306 -13786056.86309  20499375.44006  20499377.68106
  20560983.38906  -6050176.01006  -4714415.23409  20560851.89906  20560854.34206
 92  8 19  0  5  0.0000000  0  6 03 26 28 21 23 17
  21085591.21506  -2879963.01806  -2244126.69709  21085460.15506  21085463.96506
  22888459.68806  -4660723.31106  -3631716.65709  22888328.55306  22888331.62806
  23475535.21406  -9937286.42406  -7743334.59609  23475403.31806  23475407.09806
  22327238.35206 -10191854.53406  -7941686.85009  22327107.01106  22327111.44606
  20498110.10006 -17699480.65406 -13791777.24609  20497978.51106  20497980.75306
  20563280.78806  -6038103.04606  -4705007.73809  20563149.30606  20563151.80206
 92  8 19  0  5 30.0000000  0  6 03 26 28 21 23 17
  21097406.74806  -2817872.02006  -2195744.15009  21097275.71206  21097279.52906
  22899008.23806  -4605290.90406  -3588522.59309  22898876.98906  22898880.05806
  23456582.37406 -10036884.38006  -7820943.34109  23456450.55606  23456454.39706
  22313528.59706 -10263900.26606  -7997826.29309  22313397.21506  22313401.49806
  20496765.86706 -17706544.07406 -13797281.19909  20496634.35006  20496636.59406
  20565616.47006  -6025828.66206  -4695443.29309  20565485.01506  20565487.49306
 92  8 19  0  6  0.0000000  0  6 03 26 28 21 23 17
  21109307.59406  -2755332.72806  -2147012.28009  21109176.59806  21109180.32806
  22909627.43506  -4549486.45806  -3545038.63309  22909496.22806  22909499.35306
  23437660.83806 -10136316.63306  -7898422.97309  23437529.17106  23437533.06906
  22299851.64406 -10335772.60906  -8053830.62809  22299720.28006  22299724.49906
  20495472.15906 -17713342.49506 -13802578.65909  20495340.65906  20495342.91406
  20567982.32506  -6013396.06906  -4685755.56909  20567850.87006  20567853.35606
 92  8 19  0  6 30.0000000  0  6 03 26 28 21 23 17
  21121291.25606  -2692358.15106  -2097941.22809  21121160.25906  21121164.11206
  22920316.39406  -4493315.50906  -3501269.08709  22920185.23106  22920188.31706
  23418764.35006 -10235616.70906  -7975799.60109  23418632.83106  23418636.78906
  22286206.73806 -10407475.82406  -8109703.17309  22286075.42806  22286079.69506
  20494227.85206 -17719882.05306 -13807674.40509  20494096.25806  20494098.49306
  20570375.59706  -6000819.47006  -4675955.63209  20570244.12506  20570246.63006
 92  8 19  0  7  0.0000000  0  6 03 21 26 28 23 17
  21133357.87606  -2628948.03906  -2048530.79609  21133226.86006  21133230.69106
  22272596.38906 -10478998.51806  -8165435.04909  22272465.07006  22272469.35906
  22931072.86606  -4436790.50606  -3457223.65509  22930941.63306  22930944.70706
  23399890.55906 -10334797.84706  -8053083.54509  23399759.02806  23399763.09706
  20493033.93806 -17726155.63006 -13812562.89309  20492902.39706  20492904.61406
  20572796.61506  -5988096.41106  -4666041.57109  20572665.17306  20572667.67006
 92  8 19  0  7 30.0000000  0  6 03 21 26 28 23 17
  21145509.51106  -2565091.06706  -1998772.16409  21145378.44906  21145382.29206
  22259023.84506 -10550322.96306  -8221012.44709  22258892.41106  22258896.66606
  22941899.31806  -4379897.18706  -3412891.22309  22941768.01506  22941771.12806
  23381044.65506 -10433834.44506  -8130254.86109  23380913.15906  23380917.23006
  20491895.85806 -17732136.31606 -13817223.15709  20491764.30506  20491766.50206
  20575247.39906  -5975217.77906  -4656006.28509  20575115.95106  20575118.45406
 92  8 19  0  8  0.0000000  0  6 03 21 26 28 23 17
  21157746.31206  -2500786.20706  -1948664.52909  21157615.30806  21157619.14706
  22245486.96506 -10621459.22506  -8276443.20909  22245355.58206  22245359.82906
  22952801.02806  -4322608.03306  -3368250.35009  22952669.82306  22952672.86506
  23362224.48706 -10532733.81606  -8207319.24109  23362093.06206  23362097.19906
  20490814.90906 -17737816.84206 -13821649.53209  20490683.37806  20490685.62806
  20577727.27406  -5962185.99606  -4645851.66109  20577595.82306  20577598.29606
 92  8 19  0  8 30.0000000  0  6 03 21 26 28 23 17
  21170070.65906  -2436021.37506  -1898198.47809  21169939.69906  21169943.52706
  22231987.08506 -10692401.20906  -8331722.58709  22231855.69206  22231859.81206
  22963778.69606  -4264920.47206  -3323299.03409  22963647.44806  22963650.48106
  23343433.29106 -10631481.09906  -8284265.10409  23343301.95506  23343305.99106
  20489792.42406 -17743190.04606 -13825836.43309  20489660.82606  20489663.06606
  20580240.72406  -5948978.11206  -4635559.81509  20580109.26006  20580111.73806
 92  8 19  0  9  0.0000000  0  6 03 21 26 28 23 17
  21182483.66306  -2370791.36306  -1847369.95109  21182352.57306  21182356.49506
  22218524.04506 -10763149.48706  -8386851.02809  22218392.76406  22218396.89806
  22974831.16106  -4206840.06206  -3278041.60209  22974699.81606  22974702.96806
  23324676.89506 -10730045.73806  -8361068.64109  23324545.45506  23324549.51106
  20488828.38506 -17748255.47806 -13829783.51109  20488696.83306  20488699.07106
  20582790.01706  -5935581.31306  -4625120.76009  20582658.56306  20582661.07006
 92  8 19  0  9 30.0000000  0  6 03 21 26 28 23 17
  21194986.46406  -2305088.90306  -1796173.28309  21194855.41006  21194859.29706
  22205099.11706 -10833698.19206  -8441823.95609  22204967.72206  22204971.87206
  22985960.35906  -4148355.26806  -3232469.06809  22985829.16806  22985832.24006
  23305960.29306 -10828401.74006  -8437709.60309  23305828.97206  23305832.79806
  20487925.48406 -17753000.47306 -13833480.89609  20487793.93906  20487796.18906
  20585378.24106  -5921980.08006  -4614522.40609  20585246.75706  20585249.28206
 92  8 19  0 10  0.0000000  0  6 03 21 26 28 23 17
  21207579.95706  -2238909.76506  -1744605.17609  21207448.85506  21207452.78906
  22191713.06406 -10904042.11206  -8496637.31409  22191581.62806  22191585.75306
  22997166.35706  -4089467.59606  -3186582.60509  22997035.12606  22997038.26906
  23287284.39406 -10926545.40406  -8514185.10609  23287152.96806  23287156.79406
  20487084.95106 -17757417.43206 -13836922.67009  20486953.41406  20486955.61106
  20588007.58006  -5908163.03906  -4603755.88909  20587876.11706  20587878.59406
 92  8 19  0 10 30.0000000  0  6 03 21 26 28 23 17
  21220268.27106  -2172232.33206  -1692648.79309  21220137.21006  21220141.16306
  22178371.19306 -10974153.80906  -8551269.72109  22178239.62106  22178243.75806
  23008451.72806  -4030162.23206  -3140370.66809  23008320.54506  23008323.74506
  23268652.75206 -11024455.88806  -8590478.89709  23268521.28106  23268525.20706
  20486310.91906 -17761485.05806 -13840092.23609  20486179.35006  20486181.58106
  20590683.26406  -5894102.11806  -4592799.33609  20590551.79606  20590554.32506
 92  8 19  0 11  0.0000000  0  6 03 21 26 28 23 17
  21233053.66906  -2105045.10806  -1640295.17209  21232922.59306  21232926.53206
  22165077.77306 -11044009.75206  -8605702.84109  22164946.49106  22164950.59706
  23019821.08606  -3970416.60506  -3093815.67109  23019689.83706  23019693.09206
  23250068.82906 -11122114.58506  -8666576.48909  23249937.33806  23249941.13806
  20485606.44606 -17765186.91106 -13842976.78609  20485474.84006  20485477.07506
  20593406.23506  -5879793.11406  -4581649.46909  20593274.75106  20593277.27106
 92  8 19  0 11 30.0000000  0  6 03 21 26 28 23 17
  21245939.97006  -2037327.09706  -1587527.94809  21245808.93906  21245812.86706
  22151836.68706 -11113592.49706  -8659923.08509  22151705.29106  22151709.40106
  23031278.03506  -3910209.40706  -3046901.00909  23031146.89006  23031150.08106
  23231535.08006 -11219511.40306  -8742470.01909  23231403.41506  23231407.29006
  20484976.72606 -17768496.34506 -13845555.55809  20484845.12906  20484847.35106
  20596178.54106  -5865224.65906  -4570297.43209  20596047.08906  20596049.58606
 92  8 19  0 12  0.0000000  0  6 03 21 26 28 23 17
  21258931.61206  -1969055.64006  -1534329.46509  21258800.57606  21258804.54606
  22138650.42406 -11182886.38506  -8713918.24509  22138519.05906  22138523.11006
  23042827.34306  -3849517.68606  -2999608.80009  23042696.09206  23042699.24906
  23213053.14306 -11316633.14306  -8818149.20009  23212921.73306  23212925.49106
  20484423.32806 -17771404.61906 -13847821.73509  20484291.72806  20484293.95206
  20599003.20006  -5850380.72906  -4558730.74009  20598871.74806  20598874.22906
 92  8 19  0 12 30.0000000  0  6 03 21 26 28 23 17
  21272032.94506  -1900207.62906  -1480681.72309  21271901.94506  21271905.95006
  22125525.70206 -11251857.77706  -8767662.11109  22125394.16506  22125398.19806
  23054471.88706  -3788325.96906  -2951926.98109  23054340.64206  23054343.78406
  23194629.55006 -11413449.51606  -8893590.43109  23194498.02806  23194501.88406
  20483948.17406 -17773901.08806 -13849767.02609  20483816.63606  20483818.83806
  20601885.54206  -5835234.08206  -4546928.16409  20601754.03906  20601756.57606
 92  8 19  0 13  0.0000000  0  6 03 21 26 28 23 17
  21285247.76606  -1830763.90306  -1426569.78909  21285116.70406  21285120.76606
  22112467.27506 -11320479.20306  -8821133.28009  22112335.88406  22112339.89806
  23066212.65506  -3726628.46306  -2903851.04409  23066081.36506  23066084.51006
  23176270.31706 -11509927.00906  -8968767.60109  23176138.85606  23176142.50906
  20483553.79006 -17775973.80506 -13851382.12009  20483422.16106  20483424.39206
  20604828.70206  -5819767.91006  -4534876.60609  20604697.16306  20604699.70206
 92  8 19  0 13 30.0000000  0  6 03 21 26 28 23 17
  21298581.98906  -1760692.30406  -1371968.60409  21298450.95506  21298454.98106
  22099480.87106 -11388722.94506  -8874310.15909  22099349.51506  22099353.51206
  23078053.07006  -3664405.89906  -2855365.97309  23077921.87406  23077925.06106
  23157982.91406 -11606028.50206  -9043651.78909  23157851.23906  23157854.93806
  20483245.55806 -17777593.34506 -13852644.08809  20483113.97606  20483116.22606
  20607840.00306  -5803943.39906  -4522545.82509  20607708.49806  20607711.01406
 92  8 19  0 14  0.0000000  0  6 03 21 26 28 23 17
  21312040.52006  -1689967.70006  -1316858.58509  21311909.45806  21311913.47006
  22086574.75406 -11456544.41206  -8927157.99409  22086443.50206  22086447.52306
  23089999.13306  -3601628.98106  -2806448.93809  23089867.94906  23089871.17106
  23139774.98406 -11701711.80106  -9118210.11209  23139643.27706  23139646.88506
  20483027.34506 -17778740.05906 -13853537.61909  20482895.77606  20482898.00406
  20610924.43306  -5787734.37506  -4509915.42309  20610792.94306  20610795.46006
 92  8 19  0 14 30.0000000  0  6 03 21 26 28 23 17
  21325623.36006  -1618589.53006  -1261239.28909  21325492.29406  21325496.31806
  22073752.15906 -11523927.73906  -8979664.42109  22073620.74106  22073624.77506
  23102049.98206  -3538302.54406  -2757103.70909  23101918.68806  23101921.90906
  23121649.01006 -11796965.05506  -9192433.33809  23121517.03606  23121520.69206
  20482902.17006 -17779398.05706 -13854050.33509  20482770.53206  20482772.75106
  20614080.42206  -5771149.59906  -4496992.22909  20613948.93206  20613951.47006
 92  8 19  0 15  0.0000000  0  6 03 21 26 28 23 17
  21339329.20706  -1546564.88306  -1205116.24609  21339198.15206  21339202.26106
  22061009.49806 -11590891.03806  -9031843.55609  22060878.07406  22060882.02606
  23114204.76306  -3474428.20606  -2707331.54709  23114073.49506  23114076.78806
  23103603.40906 -11891796.97906  -9266328.26209  23103471.34606  23103474.76806
  20482871.25406 -17779559.88306 -13854176.42709  20482739.74706  20482741.96306
  20617305.79306  -5754199.96406  -4483784.73109  20617174.34006  20617176.87506
 92  8 19  0 15 30.0000000  0  6 03 21 26 28 23 17
  21353154.54906  -1473912.62706  -1148504.15509  21353023.48506  21353027.52406
  22048342.97706 -11657454.04606  -9083710.77809  22048211.52706  22048215.41406
  23126460.55906  -3410022.93806  -2657145.67309  23126329.40806  23126332.65706
  23085633.55706 -11986228.82406  -9339911.43909  23085501.46506  23085504.86506
  20482931.02806 -17779246.14506 -13853931.94809  20482799.46706  20482801.69306
  20620597.26706  -5736903.53606  -4470307.00609  20620465.80906  20620468.32006
 92  8 19  0 16  0.0000000  0  6 03 21 26 28 23 17
  21367093.72706  -1400661.98806  -1091425.79109  21366962.64806  21366966.76506
  22035745.28906 -11723653.86606  -9135294.99609  22035614.06706  22035617.96106
  23138814.65206  -3345102.93306  -2606558.70409  23138683.37206  23138686.60806
  23067732.20406 -12080301.52106  -9413214.76509  23067600.08906  23067603.39706
  20483075.04606 -17778489.33406 -13853342.22009  20482943.52906  20482945.77906
  20623951.23106  -5719278.31506  -4456573.08009  20623819.72406  20623822.24506
 92  8 19  0 16 30.0000000  0  6 03 21 26 28 23 17
  21381138.22906  -1326857.29206  -1033915.68909  21381007.25106  21381011.36506
  22023205.69606 -11789550.55806  -9186643.01209  22023074.30306  22023078.19406
  23151257.09006  -3279716.65006  -2555608.40109  23151126.01906  23151129.27006
  23049888.47506 -12174070.71306  -9486281.59709  23049756.36506  23049759.60406
  20483295.21006 -17777331.91206 -13852440.32509  20483163.68406  20483165.89406
  20627364.62406  -5701340.88006  -4442595.87109  20627233.16406  20627235.67706
 92  8 19  0 17  0.0000000  0  6 03 21 26 28 23 17
  21395276.51306  -1252560.32606   -976021.99509  21395145.55806  21395149.62106
  22010709.87806 -11855216.27106  -9237811.04309  22010578.44806  22010582.37806
  23163778.73106  -3213915.50906  -2504334.83109  23163647.58006  23163650.81906
  23032092.35206 -12267589.61706  -9559153.40909  23031960.30606  23031963.52206
  20483577.87906 -17775846.83706 -13851283.11609  20483446.34706  20483448.55306
  20630830.53106  -5683127.51006  -4428403.64809  20630699.05206  20630701.59506
 92  8 19  0 17 30.0000000  0  6 03 21 26 28 23 17
  21409501.90406  -1177806.22606   -917772.10009  21409370.78906  21409374.90106
  21998250.81106 -11920689.17006  -9288828.82809  21998119.33806  21998123.24406
  23176374.83206  -3147722.81706  -2452756.15409  23176243.64106  23176246.94806
  23014339.70406 -12360878.80406  -9631846.22109  23014207.71806  23014211.04506
  20483914.66106 -17774076.74106 -13849903.81209  20483783.10406  20483785.33206
  20634343.45506  -5664667.06706  -4414018.89909  20634212.00506  20634214.51006
 92  8 19  0 18  0.0000000  0  6 03 21 26 28 23 17
  21423808.61506  -1102623.61806   -859188.30509  21423677.65706  21423681.79006
  21985820.36606 -11986010.24706  -9339728.31209  21985689.08406  21985693.01206
  23189041.02806  -3081161.59806  -2400890.32009  23188909.89406  23188913.14406
  22996628.44306 -12453950.36906  -9704369.45709  22996496.60706  22996499.97306
  20484302.38306 -17772038.92006 -13848315.89409  20484170.87806  20484173.08806
  20637898.00806  -5645987.61006  -4399463.49109  20637766.52706  20637769.06806
 92  8 19  0 18 30.0000000  0  6 03 21 26 28 23 17
  21438192.78806  -1027034.57306   -800287.80409  21438061.82306  21438065.94206
  21973418.78106 -12051181.40906  -9390510.97609  21973287.40006  21973291.29306
  23201770.12906  -3014270.79706  -2348767.66709  23201638.88206  23201642.15506
  22978961.13706 -12546790.77606  -9776712.57409  22978829.62106  22978833.01606
  20484737.54406 -17769752.48706 -13846534.25609  20484605.99606  20484608.20706
  20641485.88706  -5627133.12606  -4384771.69609  20641354.44706  20641356.99506
 92  8 19  0 19  0.0000000  0  6 03 26 28 21 23 17
  21452651.89306   -951051.80306   -741080.50209  21452520.87206  21452525.02706
  23214558.35906  -2947068.42006  -2296402.22809  23214427.06006  23214430.35206
  22961336.27106 -12639408.63606  -9848882.28609  22961204.81206  22961208.35706
  21961045.60706 -12116203.10906  -9441177.17609  21960914.17006  21960918.07706
  20485217.87306 -17767228.32306 -13844567.37509  20485086.29706  20485088.53606
  20645099.47106  -5608143.82106  -4369974.84309  20644967.98206  20644970.54906
 92  8 19  0 19 30.0000000  0  6 03 21 26 28 23 17
  21467188.30906   -874662.68006   -681556.56309  21467057.29806  21467061.44106
  21948705.36206 -12181051.08106  -9491708.00409  21948573.91206  21948577.82806
  23227405.52306  -2879555.44606  -2243794.76709  23227274.30706  23227277.62306
  22943755.85306 -12731793.03006  -9920870.07509  22943624.63006  22943628.28906
  20485745.99406 -17764452.60306 -13842404.47909  20485614.47106  20485616.72806
  20648739.14306  -5589017.22706  -4355071.01009  20648607.70506  20648610.22006
 92  8 19  0 20  0.0000000  0  6 03 26 28 21 23 17
  21481806.46406   -797844.11506   -621697.98909  21481675.40106  21481679.54906
  23240312.33506  -2811730.26506  -2190944.02609  23240181.15206  23240184.44906
  22926223.11006 -12823927.71506  -9992663.29009  22926091.93206  22926095.51106
  21936407.54406 -12245675.96606  -9542064.99709  21936276.20906  21936280.02706
  20486326.77506 -17761400.90106 -13840026.53309  20486195.23506  20486197.47206
  20652408.91306  -5569732.76406  -4340044.16109  20652277.44706  20652279.96406
 92  8 19  0 20 30.0000000  0  6 03 26 28 21 23 17
  21496508.61306   -720583.90706   -561495.28009  21496377.56906  21496381.71206
  23253280.44606  -2743582.51606  -2137841.93409  23253149.17906  23253152.53206
  22908736.86606 -12915819.07606 -10064266.90609  22908605.50206  22908609.01106
  21924159.49006 -12310039.49606  -9592218.33509  21924028.14206  21924031.98306
  20486962.61906 -17758059.78606 -13837423.07009  20486831.05906  20486833.26506
  20656112.24706  -5550271.38206  -4324879.45309  20655980.79006  20655983.34106
 92  8 19  0 21  0.0000000  0  6 03 26 28 21 23 17
  21511302.59906   -642841.63206   -500916.93109  21511171.45206  21511175.64606
  23266320.85906  -2675055.11806  -2084444.01009  23266189.47706  23266192.93606
  22891300.18706 -13007450.95706 -10135668.33009  22891168.66106  22891172.20706
  21911968.47506 -12374104.02506  -9642138.68409  21911837.06506  21911840.85506
  20487660.53406 -17754392.42706 -13834565.39009  20487528.97006  20487531.20606
  20659859.81106  -5530577.68706  -4309533.71509  20659728.32006  20659730.84406
 92  8 19  0 21 30.0000000  0  6 03 26 28 21 23 17
  21526193.22306   -564590.58506   -439942.14609  21526062.16106  21526066.46106
  23279439.49106  -2606115.84306  -2030725.14309  23279308.30806  23279311.67506
  22873921.04406 -13098779.97306 -10206833.75509  22873789.39706  22873792.90206
  21899839.70706 -12437840.71106  -9691803.57009  21899708.25306  21899712.08006
  20488424.14706 -17750379.43006 -13831438.38609  20488292.63406  20488294.85106
  20663658.96306  -5510613.39806  -4293977.12509  20663527.44206  20663529.94906
 92  8 19  0 22  0.0000000  0  6 03 26 28 21 23 17
  21541179.04406   -485839.83806   -378577.98709  21541048.01506  21541052.26006
  23292635.91306  -2536768.34506  -1976688.18009  23292504.79206  23292508.13806
  22856597.41106 -13189816.50306 -10277771.27209  22856465.57406  22856468.92406
  21887770.45606 -12501264.45806  -9741224.60909  21887639.14906  21887642.89206
  20489252.49006 -17746026.49606 -13828046.49609  20489120.89606  20489123.13606
  20667507.51806  -5490388.74806  -4278217.65509  20667376.05706  20667378.54806
 92  8 19  0 22 30.0000000  0  6 03 26 28 21 23 17
  21556254.69106   -406617.24706   -316846.15509  21556123.62106  21556127.80806
  23305905.70006  -2467035.48006  -1922350.93109  23305774.53906  23305777.86606
  22839325.76806 -13280580.21306 -10348496.20209  22839194.00906  22839197.27206
  21875751.24906 -12564425.96206  -9790441.30409  21875619.87206  21875623.61206
  20490137.53506 -17741375.33006 -13824422.21609  20490006.00106  20490008.24206
  20671401.13206  -5469927.89506  -4262274.12709  20671269.66206  20671272.16006
 92  8 19  0 23  0.0000000  0  6 03 26 28 21 23 17
  21571415.25006   -326948.25806   -254766.48109  21571284.18406  21571288.39806
  23319243.19906  -2396947.02906  -1867736.60009  23319111.97006  23319115.38706
  22822105.58006 -13371073.80606 -10419010.65409  22821973.61906  22821976.82206
  21863772.82806 -12627372.83206  -9839490.75209  21863641.41706  21863645.19206
  20491072.36906 -17736463.09306 -13820594.50309  20490940.82606  20490943.06006
  20675335.04206  -5449255.26606  -4246165.58009  20675203.54306  20675206.02006
 92  8 19  0 23 30.0000000  0  6 03 26 28 21 23 17
  21586658.36406   -246844.91806   -192348.35309  21586527.34706  21586531.59006
  23332643.68606  -2326527.48506  -1812864.27209  23332512.50706  23332515.88406
  22804938.46706 -13461286.94306 -10489306.56709  22804806.49606  22804809.68506
  21851831.07706 -12690127.11706  -9888390.13009  21851699.63406  21851703.39706
  20492057.44406 -17731286.33606 -13816560.67409  20491925.87006  20491928.08406
  20679308.02406  -5428377.10406  -4229896.88109  20679176.48306  20679178.99606
 92  8 19  0 24  0.0000000  0  6 03 26 28 21 23 17
  21601984.97906   -166303.41206   -129588.80009  21601853.94906  21601858.28406
  23346107.88406  -2255772.65306  -1757730.67709  23345976.69506  23345980.05606
  22787825.12106 -13551218.39006 -10559382.97509  22787693.22406  22787696.53206
  21839923.95806 -12752699.06906  -9937147.43309  21839792.53806  21839796.24406
  20493095.69206 -17725830.35106 -13812309.26209  20492964.13406  20492966.38106
  20683320.05406  -5407293.17406  -4213467.84309  20683188.62106  20683191.11106
 92  8 19  0 24 30.0000000  0  6 03 26 28 21 23 17
  21617397.61206    -85309.73606    -66476.91009  21617266.58006  21617270.88106
  23359639.01206  -2184665.49506  -1702322.54309  23359507.85306  23359511.23406
  22770772.40106 -13640830.57106 -10629210.60609  22770640.48906  22770643.75906
  21828053.89706 -12815076.37906  -9985753.07009  21827922.47806  21827926.20406
  20494192.22706 -17720068.21406 -13807819.28909  20494060.66106  20494062.93506
  20687375.45806  -5385982.14406  -4196861.84609  20687243.96706  20687246.44206
 92  8 19  0 25  0.0000000  0  6 03 26 28 21 23 17
  21632901.91806     -3834.14406     -2989.49809  21632770.89706  21632775.23606
  23373245.84806  -2113161.99706  -1646605.58109  23373114.50106  23373118.01306
  22753787.21606 -13730087.21406 -10698761.19209  22753655.38806  22753658.77506
  21816229.01506 -12877216.05706 -10034173.53609  21816097.59606  21816101.32806
  20495356.08006 -17713952.16506 -13803053.53809  20495224.52706  20495226.76106
  20691480.05206  -5364412.79006  -4180054.56109  20691348.54506  20691351.04006
 92  8 19  0 25 30.0000000  0  6 03 26 28 21 23 17
  21648502.05406     78144.52706     60889.91509  21648371.00306  21648375.30006
  23386932.02706  -2041240.62606  -1590563.00409  23386800.89206  23386804.39306
  22736873.46506 -13818970.13906 -10768020.56509  22736741.64506  22736745.02006
  21804455.54006 -12939086.33006 -10082384.07909  21804324.06206  21804327.76606
  20496592.47506 -17707455.15006 -13797990.93009  20496460.86606  20496463.11106
  20695636.42906  -5342570.60806  -4163034.68509  20695504.95506  20695507.43106
 92  8 19  0 26  0.0000000  0  6 03 26 28 21 23 17
  21664203.28506    160654.93406    125183.67109  21664072.23606  21664076.56606
  23400702.97806  -1968873.28806  -1534172.92009  23400571.92706  23400575.41206
  22720035.41206 -13907453.70006 -10836968.74909  22719903.66406  22719906.94106
  21792741.18206 -13000645.31006 -10130352.05709  21792609.73406  21792613.37506
  20497904.40306 -17700560.48606 -13792618.46609  20497772.83206  20497775.06806
  20699850.40106  -5320425.85606  -4145779.04209  20699718.93706  20699721.44506
 92  8 19  0 26 30.0000000  0  6 03 26 28 21 23 17
  21680011.68506    243728.22206    189916.03609  21679880.63906  21679884.96006
  23414564.36406  -1896032.18506  -1477413.67109  23414432.98006  23414436.56206
  22703280.03406 -13995501.83506 -10905577.64209  22703148.37706  22703151.69506
  21781097.28406 -13061834.17206 -10178031.63409  21780965.85406  21780969.46806
  20499295.57606 -17693249.45106 -13786921.55609  20499164.03706  20499166.30706
  20704132.30406  -5297924.79806  -4128245.76309  20704000.77206  20704003.27606
 92  8 19  0 27  0.0000000  0  6 03 26 28 21 23 17
  21695929.88506    327379.02506    255098.41609  21695798.89106  21695803.24306
  23428516.63006  -1822712.75106  -1420281.69209  23428385.36506  23428388.88006
  22686609.31006 -14083107.43706 -10973841.70109  22686477.68706  22686480.95506
  21769529.06106 -13122624.85206 -10225400.93809  21769397.68306  21769401.40606
  20500765.81006 -17685523.72706 -13780901.51109  20500634.21006  20500636.44606
  20708485.17806  -5275050.39306  -4110421.56609  20708353.67606  20708356.15906
 92  8 19  0 27 30.0000000  0  6 03 26 28 21 23 17
  21711962.55106    411631.16406    320749.36609  21711831.55706  21711835.98006
  23442560.47706  -1748912.59906  -1362775.12909  23442429.25406  23442432.71206
  22670027.81206 -14170244.35106 -11041740.55309  22669896.11206  22669899.35606
  21758041.79406 -13182990.92806 -10272439.38209  21757910.34206  21757914.03906
  20502320.94506 -17677351.36406 -13774533.43609  20502189.40806  20502191.69106
  20712915.10206  -5251770.84006  -4092281.66909  20712783.61006  20712786.11006
 92  8 19  0 28  0.0000000  0  6 03 26 28 21 23 17
  21728112.21706    496497.45306    386878.86809  21727981.15506  21727985.59206
  23456699.19306  -1674613.48106  -1304879.76009  23456567.91606  23456571.42206
  22653538.29506 -14256896.18606 -11109261.41809  22653406.72706  22653410.01306
  21746638.93506 -13242912.77906 -10319131.67709  21746507.57206  21746511.20606
  20503963.81706 -17668717.83306 -13767806.00809  20503832.25806  20503834.50406
  20717427.98106  -5228055.58406  -4073802.26309  20717296.48706  20717298.99206
 92  8 19  0 28 30.0000000  0  6 03 26 28 21 23 17
  21744376.84806    581968.34706    453479.48909  21744245.79506  21744250.23106
  23470930.72606  -1599826.10206  -1246603.93009  23470799.52706  23470802.96306
  22637140.47106 -14343066.57806 -11176407.13309  22637008.94606  22637012.20006
  21735316.91006 -13302410.45406 -10365493.44609  21735185.47706  21735189.10406
  20505692.70606 -17659632.61206 -13760726.61309  20505561.13606  20505563.39106
  20722021.51506  -5203916.34206  -4054992.47909  20721890.02606  20721892.53706
 92  8 19  0 29  0.0000000  0  6 03 26 28 21 23 17
  21760753.57406    668028.69306    520539.42409  21760622.58206  21760627.04806
  23485251.47706  -1524570.18206  -1187962.99909  23485120.24806  23485123.74206
  22620832.48106 -14428766.41006 -11243186.18109  22620700.72506  22620703.95406
  21724068.38106 -13361521.31906 -10411553.80709  21723937.04406  21723940.69706
  20507506.88406 -17650098.92806 -13753297.76609  20507375.30106  20507377.55806
  20726688.68406  -5179390.26406  -4035881.26209  20726557.17606  20726559.70006
 92  8 19  0 29 30.0000000  0  6 03 26 28 21 23 17
  21777237.74806    754653.68706    588039.34109  21777106.77806  21777111.30106
  23499658.07506  -1448862.39806  -1128969.96409  23499526.91106  23499530.39906
  22604609.80606 -14514016.88706 -11309615.08109  22604478.10706  22604481.30906
  21712888.82206 -13420270.50106 -10457332.33709  21712757.41306  21712761.03506
  20509401.99706 -17640139.69006 -13745537.31909  20509270.51606  20509272.77006
  20731425.58606  -5154497.65606  -4016484.43409  20731294.14906  20731296.66506
 92  8 19  0 30  0.0000000  0  6 03 26 28 21 23 17
  21793823.54106    841811.44006    655954.39509  21793692.43306  21793696.93606
  23514147.80906  -1372718.55406  -1069637.14409  23514016.62506  23514020.22006
  22588467.71906 -14598845.32506 -11375715.11509  22588335.97606  22588339.15706
  21701772.45906 -13478687.15806 -10502851.76009  21701641.08006  21701644.65906
  20511368.05106 -17629808.75706 -13737487.23709  20511236.49506  20511238.75606
  20736225.05206  -5129276.30806  -3996831.44109  20736093.57806  20736096.10206
 92  8 19  0 30 30.0000000  0  6 03 26 28 21 23 17
  21810499.77806    929445.31306    724240.44909  21810368.71506  21810373.19106
  23528708.33506  -1296202.06906  -1010013.95709  23528577.26206  23528580.81406
  22572396.12606 -14683302.81306 -11441526.09909  22572264.25806  22572267.41106
  21690708.47606 -13536828.48606 -10548156.64009  21690577.06006  21690580.63906
  20513391.61506 -17619174.20306 -13729200.56709  20513260.09606  20513262.33906
  20741073.80106  -5103795.80406  -3976976.50909  20740942.36606  20740944.87306
 92  8 19  0 31  0.0000000  0  6 03 26 28 21 23 17
  21827257.94106   1017510.39306    792862.50609  21827126.90906  21827131.50706
  23543332.62806  -1219352.20106   -950130.98709  23543201.40406  23543204.95206
  22556386.16006 -14767435.67806 -11507084.12509  22556254.26406  22556257.42206
  21679691.82206 -13594721.42406 -10593267.97109  21679560.40706  21679563.96206
  20515463.80706 -17608284.79506 -13720715.30909  20515332.34606  20515334.59806
  20745963.46806  -5078099.98506  -3956953.79909  20745832.02406  20745834.56806
 92  8 19  0 31 30.0000000  0  6 03 26 28 21 23 17
  21844091.99306   1105973.57306    861794.77009  21843960.98906  21843965.61006
  23558015.24306  -1142194.38006   -890008.05209  23557884.03006  23557887.65106
  22540431.13906 -14851278.67706 -11572416.27709  22540299.36506  22540302.59006
  21668720.93806 -13652373.43206 -10638191.56709  21668589.52206  21668593.09606
  20517576.76306 -17597181.23806 -13712063.18009  20517445.15906  20517447.46106
  20750890.93006  -5052207.06306  -3936777.50109  20750759.46006  20750761.97906
 92  8 19  0 32  0.0000000  0  6 03 26 28 21 23 17
  21860996.98206   1194809.32606    931017.36409  21860865.97106  21860870.54606
  23572751.97906  -1064752.90306   -829664.08709  23572620.74206  23572624.32606
  22524527.20306 -14934852.77806 -11637538.89909  22524395.51906  22524398.76806
  21657790.11906 -13709814.86706 -10682951.08109  21657658.76806  21657662.24106
  20519726.08506 -17585886.32306 -13703261.94109  20519594.58906  20519596.84006
  20755850.76606  -5026142.41706  -3916467.39509  20755719.28906  20755721.80706
 92  8 19  0 32 30.0000000  0  6 03 26 28 21 23 17
  21877973.22306   1284019.93006   1000532.03809  21877842.24206  21877846.83906
  23587540.75206   -987037.14206   -769106.39609  23587409.53906  23587413.09906
  22508677.10606 -15018145.06206 -11702441.92509  22508545.55706  22508548.80406
  21646898.75306 -13767049.49806 -10727549.45009  21646767.33006  21646770.87806
  20521915.58506 -17574380.47606 -13694296.34009  20521784.02706  20521786.31906
  20760844.45706  -4999900.06306  -3896018.81409  20760713.05406  20760715.58406
 92  8 19  0 33  0.0000000  0  6 03 26 28 21 23 17
  21895022.02406   1373611.50306   1070343.57309  21894890.98306  21894895.58606
  23602381.70106   -909047.36006   -708335.17709  23602250.53106  23602254.08806
  22492884.78706 -15101134.34606 -11767108.84809  22492753.22506  22492756.41406
  21636048.53806 -13824067.73806 -10771979.20309  21635917.11206  21635920.64806
  20524151.94906 -17562628.14206 -13685138.66909  20524020.41906  20524022.67306
  20765876.32006  -4973458.13106  -3875414.71709  20765744.81806  20765747.36206
 92  8 19  0 33 30.0000000  0  6 03 26 28 21 23 17
  21912141.47706   1463574.93206   1140444.86909  21912010.49806  21912015.15406
  23617271.05506   -830803.71506   -647366.14609  23617139.80706  23617143.38406
  22477152.01706 -15183810.31606 -11831531.63309  22477020.51806  22477023.55506
  21625234.95006 -13880892.93306 -10816258.52909  21625103.57306  21625107.12006
  20526436.72306 -17550621.78606 -13675783.06009  20526305.17206  20526307.38806
  20770945.13806  -4946821.54506  -3854658.94309  20770813.63706  20770816.15606
 92  8 19  0 34  0.0000000  0  6 03 26 28 21 23 17
  21929333.21206   1553917.43506   1210841.53609  21929202.21906  21929206.92806
  23632208.05806   -752309.13206   -586201.57509  23632076.97506  23632080.54706
  22461482.69906 -15266153.58906 -11895695.17709  22461351.03706  22461354.14906
  21614455.15406 -13937541.34106 -10860400.10109  21614323.76306  21614327.29806
  20528772.87606 -17538345.70206 -13666217.27309  20528641.29906  20528643.56506
  20776051.30506  -4919988.56006  -3833750.13309  20775919.77306  20775922.32106
 92  8 19  0 34 30.0000000  0  6 03 26 28 21 23 17
  21946599.77206   1644653.34806   1281544.75909  21946468.71206  21946473.42806
  23647193.14206   -673563.07206   -524841.05209  23647061.88506  23647065.48706
  22445881.69506 -15348138.49906 -11959579.47809  22445749.89706  22445752.92206
  21603711.97506 -13993997.05906 -10904391.52809  21603580.57106  21603584.01406
  20531164.77406 -17525775.78706 -13656422.52709  20531033.27006  20531035.50906
  20781196.26006  -4892951.52606  -3812682.32409  20781064.79406  20781067.34006
 92  8 19  0 35  0.0000000  0  6 03 28 26 21 23 17
  21963941.21406   1735782.52706   1352554.43009  21963810.03506  21963814.77106
  22430347.85206 -15429768.48206 -12023187.21709  22430216.09306  22430219.12506
  23662226.01906   -594564.44406   -463283.72309  23662094.70306  23662098.46406
  21593006.70706 -14050253.57906 -10948227.73609  21592875.23306  21592878.70406
  20533610.87106 -17512921.22206 -13646405.97409  20533479.35206  20533481.57206
  20786380.99506  -4865706.02506  -3791452.07309  20786249.48206  20786252.00106
 92  8 19  0 35 30.0000000  0  6 03 28 26 21 23 17
  21981357.25906   1827304.54306   1423870.20709  21981226.19706  21981230.95506
  22414880.64506 -15511048.66206 -12086522.38009  22414748.92106  22414752.06306
  23677309.17906   -515301.83906   -401520.70309  23677177.96006  23677181.69306
  21582339.77006 -14106308.30006 -10991906.69809  21582208.38006  21582211.79106
  20536106.13506 -17499808.45406 -13636188.22309  20535974.59306  20535976.80606
  20791603.90406  -4838259.24606  -3770064.98409  20791472.39006  20791474.90206
 92  8 19  0 36  0.0000000  0  6 03 28 26 21 23 17
  21998848.44306   1919221.63806   1495493.83109  21998717.53206  21998722.28106
  22399477.35006 -15591994.30606 -12149596.86809  22399345.60706  22399348.65406
  23692445.33706   -435761.78006   -339541.48309  23692313.92006  23692317.65006
  21571715.07506 -14162141.07506 -11035412.71509  21571583.67906  21571587.11206
  20538649.47306 -17486443.34006 -13625773.83909  20538517.94106  20538520.16106
  20796866.74406  -4810602.54506  -3748514.31909  20796735.28806  20796737.80706
 92  8 19  0 36 30.0000000  0  6 03 28 26 21 23 17
  22016416.86906   2011543.76306   1567433.06209  22016285.88206  22016290.61206
  22384141.00406 -15672586.46906 -12212395.91809  22384009.23806  22384012.36806
  23707635.96806   -355934.68706   -277338.60409  23707504.62506  23707508.36706
  21561139.02806 -14217718.62006 -11078719.85109  21561007.60006  21561011.01306
  20541242.41206 -17472817.37006 -13615156.19209  20541110.84006  20541113.03506
  20802172.01606  -4782722.93806  -3726789.96109  20802040.54506  20802043.10806
 92  8 19  0 37  0.0000000  0  6 03 28 26 21 23 17
  22034063.13306   2104274.78706   1639690.91309  22033932.08806  22033936.88706
  22368870.12806 -15752834.67706 -12274926.95009  22368738.49306  22368741.59306
  23722884.49706   -275801.74806   -214897.40409  23722753.42006  23722757.10806
  21550615.15106 -14273022.46106 -11121813.70809  21550483.60706  21550487.03406
  20543883.34806 -17458938.90706 -13604341.79609  20543751.80806  20543754.00706
  20807524.10206  -4754597.81806  -3704874.29309  20807392.61506  20807395.17806
 92  8 19  0 37 30.0000000  0  6 03 28 26 21 23 17
  22051792.39306   2197441.73106   1712288.42209  22051661.26106  22051666.08406
  22353669.54106 -15832714.31406 -12337170.78509  22353537.89106  22353540.95506
  23738197.48906   -195333.83706   -152195.18809  23738066.02306  23738069.77006
  21540147.36106 -14328029.96806 -11164676.65909  21540016.02406  21540019.41206
  20546578.45906 -17444775.94206 -13593305.71209  20546446.89706  20546449.11506
  20812927.64906  -4726202.35806  -3682747.97209  20812796.08906  20812798.64206
 92  8 19  0 38  0.0000000  0  6 03 28 26 21 23 17
  22069611.38406   2291081.21706   1785254.14809  22069480.36506  22069485.20506
  22338547.73306 -15912180.91706 -12399092.77809  22338415.93606  22338419.00106
  23753580.71906   -114494.04506    -89203.19409  23753449.37106  23753453.18806
  21529742.03106 -14382710.10206 -11207284.51509  21529610.64606  21529614.00106
  20549337.48206 -17430276.98606 -13582007.81709  20549205.88406  20549208.12106
  20818390.02706  -4697496.80906  -3660380.02409  20818258.54906  20818261.10206
 92  8 19  0 38 30.0000000  0  6 03 28 26 21 23 17
  22087526.91306   2385226.80106   1858614.23009  22087395.77806  22087400.66306
  22323514.25906 -15991181.27206 -12460651.46009  22323382.53006  22323385.54606
  23769039.34706    -33257.72206    -25902.21809  23768908.15406  23768911.92606
  21519404.40506 -14437035.03406 -11249615.59009  21519272.97206  21519276.32506
  20552165.51306 -17415415.49206 -13570427.42609  20552033.94206  20552036.16306
  20823917.62906  -4668449.54206  -3637745.80009  20823786.15006  20823788.70406
 92  8 19  0 39  0.0000000  0  6 03 28 26 21 23 17
  22105544.82706   2479911.95506   1932394.77209  22105413.80006  22105418.76606
  22308576.36806 -16069680.48506 -12521819.63809  22308444.63506  22308447.67006
  23784582.40206     48421.80606     37744.11209  23784451.16806  23784454.96706
  21509139.20306 -14490979.01806 -11291649.81909  21509007.68406  21509011.09006
  20555067.97006 -17400162.76706 -13558542.18009  20554936.40106  20554938.65106
  20829519.44206  -4639011.95406  -3614807.43209  20829387.92806  20829390.47106
 92  8 19  0 39 30.0000000  0  6 03 28 26 21 23 17
  22123669.33306   2575156.48906   2006611.20009  22123538.27506  22123543.23806
  22293743.15206 -16147629.40906 -12582559.02209  22293611.50506  22293614.48006
  23800212.72006    130560.21006    101748.00509  23800081.61806  23800085.45406
  21498949.02106 -14544527.70206 -11333376.02309  21498817.69106  21498821.05406
  20558049.22406 -17384496.32006 -13546334.55609  20557917.68206  20557919.93806
  20835197.21006  -4609174.87006  -3591557.76709  20835065.74106  20835068.31906
 92  8 19  0 40  0.0000000  0  6 21 03 28 26 23 17
  21488840.48106 -14597648.51806 -11374768.82309  21488709.12006  21488712.45706
  22141901.85806   2670969.35106   2081270.46409  22141770.93306  22141775.94106
  22279019.99806 -16224999.00606 -12642846.97709  22278888.28406  22278891.23406
  23815933.17906    213170.85506    166119.87509  23815801.80906  23815805.77306
  20561109.52206 -17368414.47006 -13533803.24409  20560977.95806  20560980.25106
  20840953.38806  -4578926.11406  -3567987.31909  20840821.89106  20840824.43606
 92  8 19  0 40 30.0000000  0  6 21 03 28 26 23 17
  21478814.26406 -14650336.83806 -11415824.61409  21478682.82306  21478686.22306
  22160241.61606   2767344.39306   2156367.79509  22160110.59106  22160115.61406
  22264407.45806 -16301788.64206 -12702683.01109  22264275.80606  22264278.85506
  23831742.07006    296246.49906    230854.07909  23831610.76806  23831614.81506
  20564248.29406 -17351920.21706 -13520950.58009  20564116.76206  20564119.01406
  20846786.76306  -4548271.30006  -3544100.46209  20846655.28306  20846657.82506
 92  8 19  0 41  0.0000000  0  6 21 03 28 26 23 17
  21468865.62906 -14702617.15406 -11456562.47609  21468734.19206  21468737.51906
  22178683.61206   2864257.53906   2231884.41809  22178552.63606  22178557.64106
  22249901.30806 -16378017.93306 -12762082.40809  22249769.70406  22249772.70206
  23847635.87306    379768.78306    295936.31509  23847504.65006  23847508.62606
  20567464.87206 -17335016.75206 -13507779.05109  20567333.32306  20567335.58106
  20852694.81206  -4517224.23906  -3519907.95909  20852563.37606  20852565.90006
 92  8 19  0 41 30.0000000  0  6 21 03 28 26 23 17
  21458990.29306 -14754511.66306 -11496999.70709  21458858.94106  21458862.28206
  22197223.69606   2961684.99906   2307801.80709  22197092.61406  22197097.66106
  22235496.40906 -16453716.69306 -12821068.40409  22235364.72306  22235367.69206
  23863607.54106    463699.85206    361337.08209  23863476.24106  23863480.23706
  20570757.06106 -17317716.03506 -13494297.97809  20570625.55206  20570627.82006
  20858670.77106  -4485820.25506  -3495437.33109  20858539.33206  20858541.91506
 92  8 19  0 42  0.0000000  0  6 21 03 28 26 23 17
  21449183.10106 -14806049.10406 -11537158.70609  21449051.67106  21449054.95206
  22215855.39206   3059595.81306   2384095.83109  22215724.44506  22215729.51206
  22221185.09706 -16528923.61506 -12879671.14509  22221053.42006  22221056.42106
  23879649.06406    547999.09506    427024.74009  23879517.95006  23879521.80106
  20574121.44006 -17300036.20506 -13480521.49309  20573989.92406  20573992.20806
  20864712.39306  -4454071.72806  -3470698.23109  20864580.95306  20864583.48206
 92  8 19  0 42 30.0000000  0  6 21 03 28 26 23 17
  21439431.46006 -14857294.18006 -11577089.88509  21439300.00706  21439303.28206
  22234571.22506   3157947.69406   2460733.55709  22234440.25406  22234445.40906
  22206958.98406 -16603682.03406 -12937924.40109  22206827.28406  22206830.25506
  23895749.58806    632606.50906    492952.53309  23895618.21606  23895622.16206
  20577551.57606 -17282010.88606 -13466475.79709  20577420.02706  20577422.30706
  20870814.14506  -4422007.22906  -3445712.91809  20870682.68206  20870685.24306
 92  8 19  0 43  0.0000000  0  6 21 03 28 26 23 17
  21429725.35806 -14908299.75106 -11616834.43809  21429593.98406  21429597.21606
  22253362.45606   3256695.86206   2537680.07909  22253231.49806  22253236.58806
  22192809.43406 -16678038.50106 -12995864.45009  22192677.72406  22192680.62706
  23911899.29106    717473.94206    559082.94309  23911768.04506  23911771.89606
  20581036.20306 -17263699.63306 -13452207.29509  20580904.64806  20580906.83706
  20876968.60206  -4389664.85806  -3420511.08209  20876837.11506  20876839.70006
 92  8 19  0 43 30.0000000  4  1
 -2356494.0000 -4646608.0000  3668427.0000                  APPROX POSITION XYZ
 92  8 19  0 43 30.0000000  0  6 21 03 28 26 23 17
  21420059.71206 -14959092.70306 -11656413.31409  21419928.33906  21419931.59606
  22272222.93806   3355807.15306   2614909.55409  22272091.85606  22272096.96706
  22178731.29706 -16752018.89406 -13053511.45009  22178599.61606  22178602.54806
  23928091.84406    802566.50806    625388.77809  23927960.60106  23927964.52806
  20584564.89906 -17245155.74906 -13437757.52109  20584433.35406  20584435.60706
  20883169.90406  -4357076.69106  -3395117.71609  20883038.46906  20883041.08106
 92  8 19  0 44  0.0000000  0  6 21 03 28 26 23 17
  21410430.76906 -15009693.18806 -11695842.21409  21410299.34206  21410302.59206
  22291148.37606   3455260.53206   2692405.59209  22291017.29806  22291022.46606
  22164724.41406 -16825625.97206 -13110867.55309  22164592.65206  22164595.54306
  23944324.56006    887869.83806    691858.84209  23944193.36306  23944197.29106
  20588133.53906 -17226402.35506 -13423144.49509  20588002.00206  20588004.25206
  20889415.85706  -4324254.30006  -3369541.83909  20889284.40606  20889286.96606
 92  8 19  0 44 30.0000000  0  6 21 03 28 26 23 17
  21400836.97306 -15060108.73806 -11735127.01209  21400705.54706  21400708.76506
  22310137.70106   3555050.50606   2770163.91509  22310006.72406  22310012.03306
  22150788.09306 -16898861.50306 -13167934.14409  22150656.36206  22150659.17506
  23960600.71006    973401.71006    758506.99909  23960469.60706  23960473.46506
  20591741.78406 -17207441.07906 -13408369.48009  20591610.27606  20591612.50106
  20895703.19306  -4291214.21906  -3343796.33209  20895571.71006  20895574.30506
 92  8 19  0 45  0.0000000  0  6 21 03 28 26 23 17
  21391280.73206 -15110326.34606 -11774257.57209  21391149.40506  21391152.67706
  22329190.44606   3655173.57106   2848181.78809  22329059.57206  22329064.81406
  22136922.53706 -16971725.50806 -13224711.23309  22136790.71806  22136793.65706
  23976922.51806   1059172.18606    825341.07909  23976791.35306  23976795.04406
  20595389.45606 -17188272.76106 -13393433.13509  20595257.91606  20595260.18106
  20902032.43606  -4257953.73506  -3317879.08309  20901900.97506  20901903.57606
 92  8 19  0 45 30.0000000  0  6 21 03 28 26 23 17
  21381765.12806 -15160331.59306 -11813222.65709  21381633.71506  21381636.95906
  22348307.13906   3755631.43906   2926460.55109  22348176.18406  22348181.35906
  22123128.21606 -17044214.57006 -13281196.16309  22122996.49406  22122999.40706
  23993287.95506   1145172.86906    892354.54709  23993156.67406  23993160.48006
  20599078.57606 -17168886.24106 -13378326.76009  20598946.98106  20598949.24106
  20908404.91206  -4224466.16306  -3291784.88209  20908273.44606  20908276.05306
 92  8 19  0 46  0.0000000  0  7 21 03 28 26 11 23 17
  21372289.05706 -15210128.45006 -11852025.36109  21372157.61506  21372160.79306
  22367487.31406   3856423.03106   3004999.36909  22367356.27806  22367361.44006
  22109404.30206 -17116334.25306 -13337393.26709  22109272.57006  22109275.42506
  24009696.92506   1231403.15506    959546.92309  24009565.77206  24009569.64106
  25827361.37116        -0.94916        -0.82719  25827229.49616  25827235.34216
  20602811.61906 -17149268.84506 -13363040.48009  20602680.05806  20602682.29806
  20914817.84006  -4190765.96006  -3265524.99209  20914686.38606  20914689.00206
 92  8 19  0 46 30.0000000  0  7 21 03 28 26 11 23 17
  21362852.15906 -15259719.62906 -11890667.79309  21362720.72006  21362723.94906
  22386730.39006   3957545.59906   3083796.08209  22386599.26706  22386604.50506
  22095750.23806 -17188086.41706 -13393304.00009  22095618.43606  22095621.27606
  24026149.04006   1317858.97506   1026915.04209  24026017.83306  24026021.74306
  25805989.25306   -112314.29106    -87517.75209  25805856.89006  25805862.89906
  20606585.72706 -17129435.72906 -13347586.10709  20606454.19706  20606456.47606
  20921268.95006  -4156865.22606  -3239108.84209  20921137.52406  20921140.11506
 92  8 19  0 47  0.0000000  0  7 21 03 28 26 23 17 11
  21353454.62606 -15309103.29006 -11929148.52409  21353323.33306  21353326.45506
  22406034.96906   4058992.62906   3162845.62609  22405904.08706  22405909.41106
  22082166.79506 -17259467.26406 -13448925.39909  22082035.07006  22082037.93206
  24042638.39706   1404511.53906   1094436.47209  24042507.21806  24042511.10406
  20610393.78306 -17109423.81606 -13331992.41009  20610262.28706  20610264.56306
  20927754.11906  -4122785.56206  -3212553.26609  20927622.64406  20927625.26106
  25784589.85806   -224767.11406   -175143.32109  25784458.01406  25784464.17306
 92  8 19  0 47 30.0000000  0  7 21 03 28 26 11 23 17
  21344096.01906 -15358283.44706 -11967470.68309  21343964.57606  21343967.75506
  22425402.62506   4160769.20206   3242151.95309  22425271.54806  22425276.92306
  22068657.40606 -17330460.65006 -13504244.88709  22068525.62306  22068528.39906
  24059166.13606   1491364.54006   1162114.08609  24059034.81406  24059038.80306
  25763166.04906   -337349.97506   -262870.21809  25763034.17706  25763039.96506
  20614236.42906 -17089230.47006 -13316257.33709  20614104.89306  20614107.18306
  20934268.38106  -4088552.80706  -3185878.39709  20934136.90606  20934139.53306
 92  8 19  0 48  0.0000000  0  7 21 03 28 26 11 23 17
  21334777.79906 -15407251.25006 -12005627.37209  21334646.34306  21334649.44506
  22444834.64206   4262885.05506   3321722.65009  22444703.67106  22444709.00306
  22055227.42506 -17401035.55706 -13559238.29409  22055095.61406  22055098.41606
  24075734.92806   1578434.33806   1229960.63709  24075603.74006  24075607.72606
  25741720.24006   -450048.17506   -350687.00809  25741588.59806  25741594.78906
  20618115.83906 -17068844.33206 -13300372.03609  20617984.29006  20617986.58806
  20940812.25806  -4054164.66206  -3159082.44509  20940680.75706  20940683.39006
 92  8 19  0 48 30.0000000  0  7 21 03 28 26 11 23 17
  21325501.94406 -15455995.40206 -12043609.79009  21325370.53006  21325373.68106
  22464332.45006   4365345.18906   3401561.61509  22464201.24306  22464206.63806
  22041879.28906 -17471179.88806 -13613896.19409  22041747.54606  22041750.35906
  24092345.05706   1665720.86506   1297976.06309  24092213.81906  24092217.80906
  25720253.90706   -562852.07006   -438586.12209  25720122.48206  25720128.62206
  20622031.36006 -17048268.47106 -13284338.89909  20621899.80106  20621902.11306
  20947389.57806  -4019600.78906  -3132149.56509  20947258.09106  20947260.69206
 92  8 19  0 49  0.0000000  0  7 21 03 28 26 11 23 17
  21316271.32806 -15504502.03606 -12081407.12909  21316140.02206  21316143.11706
  22483896.74706   4468156.93806   3481674.56709  22483765.72106  22483771.18706
  22028614.17006 -17540888.05806 -13668214.23509  22028482.43906  22028485.31506
  24108997.52106   1753230.06206   1366165.00009  24108866.25006  24108870.38206
  25698769.79406   -675749.75006   -526558.29609  25698638.60706  25698644.85906
  20625988.51606 -17027473.45506 -13268134.99209  20625856.98506  20625859.24806
  20954005.51406  -3984833.91006  -3105058.49809  20953874.00506  20953876.59706
 92  8 19  0 49 30.0000000  0  7 21 03 28 26 11 23 17
  21307086.83106 -15552767.30906 -12119016.39709  21306955.40306  21306958.54506
  22503528.48906   4571322.25606   3562063.02809  22503397.52006  22503402.94206
  22015432.46606 -17610158.30206 -13722191.03909  22015300.78606  22015303.63006
  24125693.46806   1840967.68306   1434531.92709  24125562.19206  24125566.17906
  25677268.89506   -788734.80806   -614598.57309  25677138.04006  25677144.37706
  20629994.07006 -17006423.94306 -13251732.78009  20629862.50806  20629864.79006
  20960669.32606  -3949815.33106  -3077771.30309  20960537.83106  20960540.45106
 92  8 19  0 50  0.0000000  0  7 21 03 28 26 11 23 17
  21297957.03006 -15600744.51106 -12156401.19609  21297825.61706  21297828.75106
  22523233.42106   4674871.61306   3642750.73409  22523102.40206  22523107.86406
  22002339.73506 -17678961.54006 -13775803.94909  22002207.95106  22002210.81006
  24142439.60306   1928969.08206   1503104.40309  24142308.36406  24142312.38106
  25655758.29906   -901772.33806   -702679.71509  25655627.67406  25655634.18206
  20634054.32306 -16985087.58906 -13235107.05409  20633922.73506  20633925.00806
  20967394.11606  -3914476.38106  -3050234.46809  20967262.58606  20967265.21306
 92  8 19  0 50 30.0000000  0  7 21 03 28 26 11 23 17
  21288891.77206 -15648382.52706 -12193521.69409  21288760.35106  21288763.54806
  22543020.13306   4778850.35406   3723773.02809  22542888.99206  22542894.46106
  21989342.88006 -17747260.81106 -13829024.15909  21989211.06106  21989213.97206
  24159247.00506   2017292.09906   1571927.48809  24159115.69606  24159119.81306
  25634248.04206  -1014812.65006   -790763.02009  25634116.84806  25634123.14906
  20638177.34606 -16963420.65306 -13218223.73009  20638045.76806  20638048.02406
  20974190.48806  -3878761.40906  -3022404.62909  20974058.94306  20974061.58906
 92  8 19  0 51  0.0000000  0  7 21 03 28 26 11 23 17
  21279897.69806 -15695646.87606 -12230351.02309  21279766.23506  21279769.40206
  22562893.07006   4883284.23906   3805149.97409  22562762.13206  22562767.62206
  21976449.39106 -17815015.57006 -13881820.07709  21976317.59806  21976320.39206
  24176120.52106   2105961.63806   1641020.58909  24175989.01206  24175993.15006
  25612742.75506  -1127824.40606   -878824.12009  25612611.77206  25612617.69506
  20642368.57406 -16941395.31706 -13201061.13409  20642237.02206  20642239.31906
  20981064.44006  -3842638.94606  -2994257.26509  20980932.87806  20980935.52106
 92  8 19  0 51 30.0000000  0  7 17 03 28 21 26 11 23
  20988017.98706  -3806097.14906  -2965783.14909  20987886.48906  20987889.10806
  22582856.73206   4988192.82006   3886896.81109  22582725.65806  22582731.17606
  21963666.77206 -17882189.38806 -13934163.31609  21963534.96306  21963537.76506
  21270980.70206 -15742505.79806 -12266864.43609  21270849.28606  21270852.38906
  24193063.24806   2194996.93906   1710398.69609  24192931.86206  24192936.01506
  25591247.28606  -1240784.20806   -966844.70909  25591116.26306  25591122.26506
  20646627.38106 -16919015.45206 -13183622.28209  20646495.86006  20646498.13406
 92  8 19  0 52  0.0000000  0  7 17 03 28 21 26 11 23
  20995049.68106  -3769145.71706  -2936989.83609  20994918.15406  20994920.77006
  22602915.14006   5093600.07606   3969032.22709  22602784.14606  22602789.62606
  21951000.64706 -17948749.67906 -13986028.48509  21950868.93706  21950871.71506
  21262144.96306 -15788937.88506 -12303045.25009  21262013.54006  21262016.63406
  24210082.04006   2284430.22606   1780086.92409  24209950.71406  24209954.73606
  25569767.60306  -1353662.55006  -1054801.81709  25569636.30906  25569641.96006
  20650956.33406 -16896267.10106 -13165896.29909  20650824.74906  20650827.06106
 92  8 19  0 52 30.0000000  0  7 17 03 28 21 26 11 23
  21002158.25006  -3731789.24506  -2907880.91109  21002026.78806  21002029.42006
  22623069.80606   5199512.71306   4051561.45309  22622938.64306  22622944.24006
  21938454.61506 -18014679.47506 -14037402.35609  21938322.86506  21938325.66006
  21253390.05506 -15834944.71606 -12338894.69509  21253258.68406  21253261.79306
  24227175.31706   2374256.55206   1850081.41109  24227044.02206  24227048.19806
  25548305.45106  -1466448.65106  -1142687.07309  25548173.82006  25548179.52706
  20655356.89206 -16873141.56006 -13147876.40109  20655225.32706  20655227.62406
 92  8 19  0 53  0.0000000  0  7 17 03 28 21 26 11 23
  21009344.62606  -3694024.88106  -2878454.14809  21009213.15706  21009215.78906
  22643320.76106   5305931.58706   4134485.14809  22643189.66306  22643195.21106
  21926030.49306 -18079968.91506 -14088277.24409  21925898.67106  21925901.47006
  21244716.97806 -15880522.23306 -12374409.60909  21244585.51806  21244588.61206
  24244340.68106   2464459.38206   1920369.27409  24244209.33406  24244213.38506
  25526861.64906  -1579136.48306  -1230495.73909  25526730.26206  25526735.36106
  20659832.76306 -16849620.70106 -13129548.46409  20659701.20506  20659703.54606
 92  8 19  0 53 30.0000000  0  7 17 03 28 21 26 11 23
  21016605.47506  -3655868.94806  -2848722.26709  21016473.98006  21016476.65606
  22663665.36406   5412843.64306   4217793.13609  22663534.37006  22663540.02106
  21913723.80106 -18144641.09506 -14138671.14509  21913592.00606  21913594.80206
  21236120.18606 -15925698.38306 -12409611.76409  21235988.78806  21235991.88206
  24261576.25406   2555031.83106   1990945.15109  24261444.72906  24261448.86806
  25505435.11506  -1691734.24206  -1318234.22009  25505303.48706  25505308.85706
  20664385.04106 -16825698.75506 -13110907.99409  20664253.46806  20664255.80206
 92  8 19  0 54  0.0000000  0  7 17 03 28 21 26 11 23
  21023936.46006  -3617344.53506  -2818703.26009  21023804.98906  21023807.61606
  22684098.51106   5520220.57406   4301463.36509  22683967.59006  22683973.29306
  21901528.14506 -18208730.45506 -14188610.89309  21901396.37406  21901399.21506
  21227592.27806 -15970512.72006 -12444531.98409  21227460.85906  21227463.96306
  24278875.88606   2645943.02106   2061784.98609  24278744.48506  24278748.72406
  25484020.87206  -1804265.57306  -1405920.93809  25483889.29806  25483894.74106
  20669013.42706 -16801376.65006 -13091955.71109  20668881.83806  20668884.18106
 92  8 19  0 54 30.0000000  0  7 17 03 28 21 26 11 23
  21031334.70006  -3578466.42506  -2788408.64609  21031203.20206  21031205.86606
  22704613.49106   5628027.23906   4385468.45009  22704482.56006  22704488.26806
  21889437.19706 -18272268.01406 -14238120.66209  21889305.49806  21889308.30106
  21219127.56906 -16014995.19306 -12479193.60909  21218996.11406  21218999.23506
  24296231.77206   2737149.79206   2132855.13809  24296100.66406  24296104.87606
  25462613.76306  -1916760.47906  -1493579.27909  25462482.13806  25462487.67506
  20673711.43606 -16776687.71606 -13072717.58909  20673579.94306  20673582.23106
 92  8 19  0 55  0.0000000  0  7 17 03 28 21 26 11 23
  21038793.38306  -3539270.83006  -2757866.63909  21038661.89606  21038664.56906
  22725201.52606   5736216.56906   4469771.71209  22725070.43306  22725076.12806
  21877443.67006 -18335294.63106 -14287232.28609  21877311.94906  21877314.74306
  21210716.57706 -16059194.95306 -12513634.93309  21210585.12906  21210588.21606
  24313637.20606   2828614.91006   2204126.59309  24313505.92206  24313510.10806
  25441205.20306  -2029261.81106  -1581242.64609  25441073.77306  25441079.49706
  20678468.02906 -16751691.72206 -13053240.19809  20678336.48506  20678338.84706
 92  8 19  0 55 30.0000000  0  7 17 03 28 21 26 11 23
  21046305.05106  -3499796.84906  -2727107.71009  21046173.57206  21046176.26106
  22745851.49706   5844732.40306   4554329.39709  22745720.37006  22745726.13406
  21865538.81406 -18397854.83806 -14335980.47009  21865407.12006  21865409.86606
  21202349.45106 -16103164.07106 -12547896.53709  21202218.02506  21202221.14106
  24331083.16106   2920293.15506   2275564.12409  24330951.73206  24330955.93206
  25419785.92506  -2141819.97606  -1668950.29809  25419654.56206  25419660.31506
  20683267.42206 -16726471.05206 -13033587.73709  20683135.86506  20683138.22006
 92  8 19  0 56  0.0000000  0  7 17 03 28 21 26 11 23
  21053865.09206  -3460068.68906  -2696150.71909  21053733.57806  21053736.26306
  22766557.68706   5953543.45606   4639117.12509  22766426.53306  22766432.32306
  21853720.49706 -18459960.49306 -14384374.45209  21853588.74006  21853591.47506
  21194023.72706 -16146915.63906 -12581988.61509  21193892.31906  21193895.42006
  24348562.08906   3012144.26406   2347136.34809  24348430.45106  24348434.70506
  25398350.59106  -2254461.74306  -1756723.09209  25398219.46806  25398225.33806
  20688097.97306 -16701086.32106 -13013807.43709  20687966.40006  20687968.72106
 92  8 19  0 56 30.0000000  0  7 17 03 28 21 26 11 23
  21061472.91806  -3420089.26806  -2664997.93909  21061341.47506  21061344.16606
  22787317.21206   6062635.46106   4724123.77609  22787186.11206  22787191.90106
  21841988.02406 -18521615.29406 -14432417.11509  21841856.24806  21841859.02406
  21185738.15206 -16190456.72906 -12615916.68509  21185606.67806  21185609.73706
  24366071.67406   3104159.00206   2418836.07809  24365940.22906  24365944.62906
  25376897.82606  -2367196.42806  -1844568.30409  25376766.73206  25376772.75406
  20692952.06206 -16675578.08606 -12993930.90009  20692820.49406  20692822.77406
 92  8 19  0 57  0.0000000  0  7 17 03 28 21 26 11 23
  21069125.46206  -3379874.97006  -2633662.13809  21068993.97206  21068996.62206
  22808128.65906   6172000.36706   4809343.07509  22807997.67006  22808003.46706
  21830337.98706 -18582835.68406 -14480121.26809  21830206.22706  21830209.02106
  21177491.36106 -16233793.21006 -12649685.32109  21177359.97306  21177363.02406
  24383611.21206   3196330.69406   2490658.10809  24383479.92306  24383484.30306
  25355426.75306  -2480026.94906  -1932488.19609  25355295.81206  25355301.98106
  20697829.08906 -16649949.06006 -12973960.24009  20697697.52206  20697699.84106
 92  8 19  0 57 30.0000000  0  7 17 03 28 21 26 11 23
  21076820.48306  -3339437.47106  -2602152.41509  21076688.99306  21076691.70306
  22828992.73306   6281640.54306   4894776.87109  22828861.55806  22828867.42906
  21818769.82006 -18643626.14906 -14527490.41209  21818638.03606  21818640.81206
  21169285.53506 -16276915.25306 -12683286.86409  21169154.13306  21169157.20406
  24401179.46206   3288652.29806   2562596.96209  24401048.22406  24401052.52106
  25333939.14706  -2592946.17206  -2020477.21009  25333807.97206  25333814.02606
  20702732.99506 -16624178.65406 -12953879.41509  20702601.48406  20702603.81706
 92  8 19  0 58  0.0000000  0  7 17 03 28 21 26 11 23
  21084555.79406  -3298787.99506  -2570477.51709  21084424.34306  21084427.03506
  22849911.55306   6391569.83906   4980435.95809  22849780.55206  22849786.30806
  21807286.19406 -18703973.65806 -14574514.39409  21807154.42306  21807157.23206
  21161122.15506 -16319813.20206 -12716713.79109  21160990.83006  21160993.86306
  24418778.18006   3381132.92806   2634659.72809  24418646.91606  24418651.15206
  25312438.00506  -2705935.27606  -2108520.66909  25312306.85206  25312313.05006
  20707672.89506 -16598219.58406 -12933651.58109  20707541.36306  20707543.70706
 92  8 19  0 58 30.0000000  0  7 17 03 28 21 26 11 23
  21092334.99106  -3257908.21106  -2538623.15909  21092203.54506  21092206.25106
  22870889.93206   6501811.60906   5066338.53009  22870758.88806  22870764.82106
  21795890.39406 -18763858.42906 -14621177.80109  21795758.69306  21795761.48006
  21153005.81506 -16362465.37206 -12749949.20309  21152874.39806  21152877.42606
  24436414.46706   3473811.26806   2706876.55209  24436283.05406  24436287.31006
  25290929.22706  -2818965.47506  -2196596.14609  25290798.06106  25290804.30606
  20712659.52606 -16572014.72906 -12913232.22309  20712527.96006  20712530.30306
 92  8 19  0 59  0.0000000  0  7 17 03 28 21 26 11 23
  21100157.81506  -3216799.40206  -2506590.33909  21100026.34306  21100029.04806
  22891926.68906   6612361.03106   5152480.83109  22891795.79206  22891801.80306
  21784584.39806 -18823272.23406 -14667474.22309  21784452.68406  21784455.40006
  21144936.62806 -16404869.21806 -12782991.11609  21144805.22206  21144808.22206
  24454087.13706   3566681.70106   2779243.06509  24453955.52906  24453960.01306
  25269412.42206  -2932036.72206  -2284703.59809  25269281.26206  25269287.38706
  20717696.01806 -16545547.69106 -12892608.56709  20717564.48206  20717566.82706
 92  8 19  0 59 30.0000000  0  7 17 03 28 21 26 11 23
  21108021.23406  -3175477.19006  -2474391.23109  21107889.71506  21107892.41306
  22913016.47106   6723187.77006   5238839.21709  22912885.44206  22912891.47206
  21773366.75506 -18882221.97006 -14713409.04009  21773234.89206  21773237.58106
  21136911.54706 -16447040.98806 -12815852.19209  21136780.18106  21136783.14506
  24471790.20506   3659712.26106   2851734.35309  24471658.74106  24471663.30806
  25247883.46206  -3045174.21206  -2372862.66509  25247752.00806  25247758.11106
  20722776.51406 -16518849.39606 -12871804.70809  20722644.97506  20722647.31806
 92  8 19  1  0  0.0000000  0  7 17 03 28 21 26 11 23
  21115924.58106  -3133944.62206  -2442028.20909  21115793.12606  21115795.78006
  22934156.08006   6834275.77306   5325401.18909  22934024.94406  22934030.88706
  21762235.61906 -18940715.91106 -14758988.69109  21762103.76406  21762106.42606
  21128928.48306 -16488991.96006 -12848541.22009  21128797.11106  21128800.10206
  24489522.12406   3752894.58606   2924343.89109  24489390.71606  24489395.22406
  25226339.55706  -3158388.83706  -2461081.82209  25226207.89306  25226214.00806
  20727897.95706 -16491935.94906 -12850833.19909  20727766.44006  20727768.79306
 92  8 19  1  0 30.0000000  0  7 17 03 28 21 26 11 23
  21123873.91206  -3092170.96106  -2409477.32209  21123742.37006  21123745.10806
  22955346.37106   6945631.67806   5412171.91309  22955215.37606  22955221.35606
  21751192.24306 -18998748.60406 -14804208.93209  21751060.46306  21751063.12906
  21120989.39806 -16530712.35306 -12881050.58009  21120857.95806  21120860.94306
  24507283.24306   3846230.67106   2997073.24609  24507152.10706  24507156.55106
  25204783.20506  -3271668.94206  -2549352.00409  25204651.53306  25204657.57406
  20733058.12406 -16464819.61806 -12829703.59509  20732926.56206  20732928.88906
 92  8 19  1  1  0.0000000  0  7 17 03 28 21 26 11 23
  21131871.80506  -3050142.01806  -2376727.51409  21131740.25206  21131742.92806
  22976590.29706   7057268.76406   5499161.73709  22976459.29406  22976465.30506
  21740238.63506 -19056309.53606 -14849061.57109  21740106.90306  21740109.64706
  21113097.69906 -16572183.39806 -12913365.64509  21112966.27106  21112969.24106
  24525074.49106   3939723.54506   3069924.77809  24524943.32906  24524947.80106
  25183217.72206  -3384996.07106  -2637658.82009  25183086.05906  25183092.00806
  20738256.18706 -16437503.40906 -12808418.24209  20738124.65506  20738127.00506
 92  8 19  1  1 30.0000000  0  7 17 03 28 21 26 11 23
  21139917.26906  -3007862.75406  -2343782.65309  21139785.77906  21139788.48806
  22997890.42906   7169201.07506   5586381.60709  22997759.39806  22997765.45806
  21729376.08006 -19113392.54306 -14893541.80609  21729244.38906  21729247.03406
  21105254.26406 -16613400.82306 -12945483.09109  21105122.84606  21105125.79206
  24542897.77206   4033384.12906   3142906.99009  24542766.40606  24542770.92606
  25161646.96506  -3498350.78006  -2725987.12209  25161515.32406  25161521.37006
  20743493.87106 -16409979.05406 -12786970.69509  20743362.33006  20743364.69606
 92  8 19  1  2  0.0000000  0  7 17 03 28 21 26 11 23
  21148014.94806  -2965308.70106  -2310623.67109  21147883.46806  21147886.17806
  23019251.67106   7281455.53306   5673852.50109  23019120.68106  23019126.85806
  21718610.49606 -19169966.50906 -14937625.39009  21718478.68806  21718481.34406
  21097460.39906 -16654357.65706 -12977397.48109  21097328.98506  21097331.88906
  24560759.64406   4127248.09106   3216047.67909  24560628.05206  24560632.63706
  25140076.90506  -3611701.10106  -2814311.99109  25139945.40106  25139951.44106
  20748775.57506 -16382224.19406 -12765343.53409  20748643.95606  20748646.31506
 92  8 19  1  2 30.0000000  0  7 17 03 28 21 26 11 23
  21156173.42506  -2922436.34506  -2277216.66209  21156041.90106  21156044.64406
  23040681.73406   7394070.43206   5761604.25609  23040550.77306  23040556.88406
  21707951.43306 -19225980.11006 -14981272.33309  21707819.56806  21707822.15906
  21089723.48206 -16695015.41006 -13009078.82509  21089592.04706  21089595.00506
  24578668.59106   4221361.31406   3289382.59609  24578537.10506  24578541.71106
  25118516.11806  -3725003.65706  -2902599.63809  25118384.54906  25118390.62706
  20754106.52406 -16354209.40606 -12743513.82909  20753974.95406  20753977.30706
 92  8 19  1  3  0.0000000  0  7 17 03 28 21 26 11 23
  21164398.64006  -2879212.42606  -2243535.71009  21164267.09706  21164269.84106
  23062188.67206   7507089.41606   5849670.87609  23062057.64606  23062063.75606
  21697409.90606 -19281376.01506 -15024437.95309  21697278.09806  21697280.68006
  21082053.27006 -16735321.91706 -13040486.47209  21081921.94806  21081924.82806
  24596635.88706   4315780.96706   3362956.30409  24596504.70406  24596509.27006
  25096973.49506  -3838209.73206  -2990812.08809  25096842.04306  25096848.10106
  20759496.81606 -16325883.11206 -12721441.39309  20759365.28806  20759367.66006
 92  8 19  1  3 30.0000000  0  7 17 03 28 21 26 11 23
  21172699.03106  -2835593.08606  -2209546.63809  21172567.56106  21172570.34706
  23083779.31306   7620547.82606   5938079.90309  23083648.18806  23083654.28006
  21686996.18406 -19336100.13406 -15067080.10209  21686864.40606  21686866.99206
  21074454.47206 -16775254.50306 -13071602.75409  21074323.00906  21074325.94806
  24614670.30506   4410551.96006   3436803.77209  24614539.03306  24614543.59206
  25075457.23106  -3951278.06706  -3078917.20509  25075325.73506  25075331.73206
  20764954.60706 -16297201.84006 -12699092.34909  20764823.12906  20764825.49106
 92  8 19  1  4  0.0000000  0  7 17 03 28 21 26 11 23
  21181080.29606  -2791549.56206  -2175227.03009  21180948.83806  21180951.55906
  23105455.08306   7734455.59006   6026839.07109  23105324.13606  23105330.41906
  21676714.14506 -19390132.12006 -15109182.92809  21676582.39806  21676585.07306
  21066928.46306 -16814803.99706 -13102420.52409  21066796.98006  21066799.91206
  24632774.50506   4505689.36906   3510936.76809  24632643.22006  24632647.68806
  25053969.83406  -4064193.83406  -3166903.43009  25053838.42506  25053844.50006
  20770482.57406 -16268152.02606 -12676456.12809  20770351.05406  20770353.47206
 92  8 19  1  4 30.0000000  0  7 17 28 03 21 26 11 23
  21189542.56106  -2747080.23306  -2140575.62309  21189411.08106  21189413.81306
  21666562.17406 -19443480.47606 -15150753.05409  21666430.47906  21666433.22006
  23127215.84206   7848807.69806   6115944.48709  23127084.70706  23127090.96206
  21059479.12406 -16853949.96606 -13132923.85909  21059347.79006  21059350.69206
  24650946.55706   4601183.37206   3585347.62609  24650815.22706  24650819.63106
  25032511.54606  -4176956.77706  -3254770.55809  25032380.20106  25032386.30006
  20776080.71706 -16238734.01806 -12653533.00109  20775949.20006  20775951.56206
 92  8 19  1  5  0.0000000  0  7 17 28 03 21 26 11 23
  21198084.09206  -2702194.19906  -2105599.51309  21197952.58006  21197955.36206
  21656537.57006 -19496159.78606 -15191801.84709  21656405.89306  21656408.56306
  23149058.54606   7963591.44906   6205386.24609  23148927.39006  23148933.69006
  21052104.68906 -16892702.89106 -13163120.93009  21051973.31506  21051976.23506
  24669181.05306   4697007.56806   3660015.78209  24669049.87606  24669054.38106
  25011081.04306  -4289573.91206  -3342524.06109  25010949.69306  25010955.72306
  20781747.34906 -16208955.67006 -12630329.09209  20781615.85506  20781618.20506
 92  8 19  1  5 30.0000000  0  7 17 28 03 21 26 11 23
  21206703.04606  -2656901.00006  -2070306.13009  21206571.59606  21206574.34006
  21646638.38206 -19548181.91306 -15232338.54809  21646506.58606  21646509.23806
  23170979.33806   8078785.84506   6295147.98709  23170848.27606  23170854.52506
  21044799.74606 -16931090.90406 -13193033.65509  21044668.31706  21044671.25806
  24687470.03106   4793116.99206   3734906.18309  24687338.94006  24687343.55606
  24989675.36806  -4402061.49406  -3430176.61509  24989543.95206  24989549.91006
  20787477.86706 -16178841.85806 -12606863.78409  20787346.32806  20787348.67906
 92  8 19  1  6  0.0000000  0  7 17 28 03 21 26 11 23
  21215394.29006  -2611228.89106  -2034717.49209  21215262.77506  21215265.52506
  21636856.87506 -19599584.56906 -15272392.53909  21636725.04506  21636727.66506
  23192972.28806   8194358.22506   6385204.26409  23192841.13606  23192847.37606
  21037564.32406 -16969112.95306 -13222661.21409  21037432.98406  21037435.87606
  24705804.96906   4889467.13206   3809984.15209  24705673.81006  24705678.38906
  24968288.96806  -4514446.65006  -3517749.36409  24968157.65306  24968163.58606
  20793265.16506 -16148429.35606 -12583165.73009  20793133.64006  20793135.96406
 92  8 19  1  6 30.0000000  0  7 17 28 03 21 26 11 23
  21224149.87506  -2565218.13406  -1998864.97309  21224018.37106  21224021.10106
  21627184.61206 -19650412.40906 -15311998.61909  21627052.85906  21627055.43706
  23215029.07506   8310267.47806   6475523.04209  23214898.04406  23214904.35606
  21030394.77006 -17006788.75506 -13252018.96909  21030263.41406  21030266.32006
  24724176.50006   4986009.04306   3885211.56309  24724045.24106  24724049.91506
  24946915.39506  -4626764.97406  -3605270.03909  24946784.13106  24946790.03906
  20799102.36306 -16117754.67706 -12559263.38209  20798970.82406  20798973.16706
 92  8 19  1  7  0.0000000  0  7 17 28 03 21 26 11 23
  21232960.50606  -2518917.71006  -1962786.73909  21232829.04406  21232831.81806
  21617613.77906 -19700706.45706 -15351188.75009  21617482.05606  21617484.67106
  23237140.79206   8426465.78906   6566067.05809  23237009.89706  23237016.27506
  21023278.95806 -17044182.99106 -13281157.32009  21023147.58206  21023150.44506
  24742574.79406   5082692.92706   3960549.59909  24742443.54506  24742448.24606
  24925546.15606  -4739058.85906  -3692771.68209  24925415.23006  24925421.01406
  20804982.46606 -16086854.61406 -12535185.41009  20804850.92906  20804853.32106
 92  8 19  1  7 30.0000000  0  7 17 28 03 21 26 11 23
  21241819.72306  -2472362.18006  -1926509.72109  21241688.28006  21241691.05506
  21608137.11706 -19750506.52006 -15389993.95809  21608005.46506  21608008.01906
  23259300.05006   8542912.12206   6656804.34009  23259168.97906  23259175.36906
  21016209.25906 -17081334.57206 -13310106.58609  21016077.82006  21016080.76906
  24760994.27906   5179487.67006   4035974.03809  24760863.06506  24760867.58006
  24904175.27806  -4851364.01606  -3780282.12109  24904044.33406  24904049.96806
  20810898.13006 -16055767.71206 -12510961.85109  20810766.60406  20810768.96206
 92  8 19  1  8  0.0000000  0  7 17 28 03 21 26 11 23
  21250723.82006  -2425571.14806  -1890049.19609  21250592.34306  21250595.15906
  21598747.20206 -19799851.20606 -15428444.32409  21598615.48306  21598618.07406
  23281501.35106   8659580.90706   6747714.96209  23281370.36806  23281376.82606
  21009182.82406 -17118258.19006 -13338878.21509  21009051.50906  21009054.37406
  24779435.42706   5276396.49006   4111487.35609  24779304.13006  24779308.85406
  24882798.11506  -4963700.93706  -3867817.33009  24882667.23706  24882672.85106
  20816843.46006 -16024524.50306 -12486616.49609  20816711.89406  20816714.29106
 92  8 19  1  8 30.0000000  0  7 17 28 03 21 26 11 23
  21259671.39006  -2378551.17406  -1853410.27309  21259539.93406  21259542.72606
  21589445.73206 -19848730.43806 -15466531.99709  21589314.02906  21589316.56506
  23303743.20306   8776461.48006   6838790.61309  23303612.05106  23303618.55606
  21002194.13506 -17154984.20006 -13367495.86309  21002062.77206  21002065.68406
  24797898.17506   5373419.23306   4187089.44309  24797767.00306  24797771.77506
  24861414.40706  -5076074.11306  -3955380.80409  24861283.33806  24861288.91506
  20822816.52506 -15993135.73006 -12462157.71909  20822684.98606  20822687.35506
 92  8 19  1  9  0.0000000  0  7 17 28 03 21 26 11 23
  21268662.87006  -2331300.53106  -1816591.61009  21268531.42206  21268534.29006
  21580235.10506 -19897131.48206 -15504247.05409  21580103.36406  21580105.89506
  23326023.93706   8893546.72006   6930025.74409  23325892.77806  23325899.22406
  20995241.06006 -17191523.13606 -13395967.73409  20995109.62706  20995112.54506
  24816382.33206   5470554.68406   4262779.36109  24816251.25706  24816255.90106
  24840023.22206  -5188485.64506  -4042974.18709  24839892.22006  24839897.75706
  20828814.49006 -15961616.13206 -12437596.99909  20828683.00306  20828685.32906
 92  8 19  1  9 30.0000000  0  7 17 28 03 26 11 23 21
  21277698.12706  -2283820.42506  -1779594.14309  21277566.61906  21277569.44006
  21571118.04606 -19945042.48906 -15541580.26309  21570986.26106  21570988.84006
  23348343.83806   9010838.64106   7021421.93109  23348212.79406  23348219.37506
  24834888.75806   5567805.81706   4338559.41609  24834757.48706  24834762.24406
  24818626.31806  -5300927.95006  -4130591.56509  24818495.23906  24818500.69506
  20834835.65106 -15929975.18106 -12412941.72009  20834704.11906  20834706.47306
  20988326.71906 -17227857.73506 -13424280.38109  20988195.33606  20988198.22506
 92  8 19  1 10  0.0000000  0  7 17 28 03 26 11 23 21
  21286777.31606  -2236108.75606  -1742416.24009  21286645.87606  21286648.69106
  21562098.90906 -19992438.27406 -15578512.00309  21561967.13506  21561969.67406
  23370704.68006   9128345.04806   7112985.25009  23370573.60006  23370580.16106
  24853416.29406   5665168.65306   4414426.50909  24853285.14206  24853289.67806
  24797226.06606  -5413387.72406  -4218222.55709  24797094.84506  24797100.35506
  20840883.40006 -15898193.91706 -12388177.10609  20840751.85206  20840754.23006
  20981453.40606 -17263977.14506 -13452425.34209  20981322.03106  20981324.91206
 92  8 19  1 10 30.0000000  0  7 17 28 03 26 11 23 21
  21295899.62706  -2188170.63906  -1705061.88709  21295768.17506  21295771.00306
  21553183.01306 -20039290.86506 -15615020.47709  21553051.30906  21553053.83706
  23393107.25406   9246071.16906   7204719.77409  23392976.28506  23392982.87406
  24871962.69306   5762630.04806   4490370.42609  24871831.55506  24871836.18606
  24775824.52606  -5525854.33106  -4305858.88909  24775693.14506  24775698.65606
  20846961.85406 -15866250.96106 -12363286.49809  20846830.36006  20846832.74906
  20974620.28806 -17299885.38306 -13480405.74909  20974488.89406  20974491.77606
 92  8 19  1 11  0.0000000  0  7 17 28 03 26 11 23 21
  21305064.27706  -2140010.42606  -1667534.47409  21304932.81606  21304935.64506
  21544366.93506 -20085620.13306 -15651121.17109  21544235.26706  21544237.77706
  23415550.91206   9364013.79306   7296623.00009  23415420.14206  23415426.75706
  24890524.97206   5860175.08806   4566379.49309  24890393.73106  24890398.38906
  24754422.11606  -5638325.10806  -4393498.47009  24754290.82406  24754296.23306
  20853072.96106 -15834137.10706 -12338262.72509  20852941.49306  20852943.83806
  20967827.46506 -17335581.96106 -13508221.22609  20967696.01406  20967698.86306
 92  8 19  1 11 30.0000000  0  7 17 28 03 26 11 23 21
  21314266.76206  -2091651.68906  -1629852.36609  21314135.20506  21314138.00406
  21535642.98806 -20131464.61006 -15686844.11409  21535511.29706  21535513.76206
  23438033.10006   9482157.09906   7388682.59709  23437902.12306  23437908.78306
  24909100.35506   5957790.83506   4642443.68009  24908969.49506  24908974.09106
  24733016.95206  -5750810.52106  -4481149.45109  24732885.59206  24732891.03106
  20859214.16306 -15801864.98106 -12313115.62509  20859082.63206  20859085.01406
  20961070.65606 -17371089.37206 -13535889.29909  20960939.26006  20960942.11606
 92  8 19  1 12  0.0000000  0  7 17 28 03 26 11 23 21
  21323507.60406  -2043090.61106  -1592012.59409  21323376.11506  21323378.93806
  21527008.67906 -20176838.12506 -15722200.07409  21526876.89706  21526879.37906
  23460552.66106   9600498.21806   7480896.32909  23460421.76206  23460428.46706
  24927688.73206   6055473.99506   4718560.38409  24927557.82406  24927562.52906
  24711609.44306  -5863308.12606  -4568809.93009  24711478.01206  24711483.41106
  20865386.25506 -15769430.33506 -12287841.88409  20865254.76706  20865257.11006
  20954348.65006 -17406413.12506 -13563414.26109  20954217.25206  20954220.08306
 92  8 19  1 12 30.0000000  0  7 17 28 03 26 11 23 21
  21332789.91206  -1994311.41606  -1554002.85909  21332658.47606  21332661.33306
  21518465.67706 -20221732.59706 -15757182.76009  21518333.88306  21518336.35606
  23483112.24506   9719049.13206   7573273.53309  23482981.19606  23482988.01606
  24946294.48606   6153246.54206   4794746.76109  24946163.49106  24946168.21406
  24690203.00006  -5975799.68406  -4656465.68709  24690071.60906  24690077.01806
  20871590.22806 -15736828.83006 -12262438.12109  20871458.70806  20871461.02706
  20947666.13306 -17441529.97106 -13590777.99809  20947534.70606  20947537.52606
 92  8 19  1 13  0.0000000  0  7 17 28 03 26 11 23 21
  21342116.95806  -1945297.35506  -1515810.10909  21341985.49906  21341988.36406
  21510012.33906 -20266154.68206 -15791797.35809  21509880.53606  21509883.09406
  23505712.11206   9837810.45206   7665814.69009  23505580.95506  23505587.69606
  24964919.01406   6251118.56506   4871010.63509  24964788.04306  24964792.72006
  24668798.68406  -6088279.66106  -4744112.41309  24668667.31306  24668672.68306
  20877824.37406 -15704068.54106 -12236910.63009  20877692.80606  20877695.12806
  20941025.32306 -17476427.56306 -13617970.88709  20940893.89706  20940896.70206
 92  8 19  1 13 30.0000000  4  1
 -2356494.0000 -4646608.0000  3668427.0000                  APPROX POSITION XYZ
 92  8 19  1 13 30.0000000  0  7 17 28 03 26 11 23 21
  21351493.68906  -1896022.94106  -1477414.49009  21351362.16806  21351365.01706
  21501656.72606 -20310063.52406 -15826012.02909  21501524.98606  21501527.51206
  23528354.18106   9956795.83606   7758530.44209  23528223.06706  23528230.07006
  24983567.65406   6349116.02006   4947372.25109  24983436.23006  24983441.13406
  24647400.44706  -6200727.94306  -4831734.43509  24647269.12606  24647274.60906
  20884091.64306 -15671133.42106 -12211246.90609  20883960.13106  20883962.46806
  20934431.38506 -17511078.96306 -13644971.93609  20934299.94306  20934302.71806
 92  8 19  1 14  0.0000000  0  7 17 28 03 26 11 23 21
  21360926.06606  -1846455.98606  -1438790.91809  21360794.54406  21360797.39306
  21493410.18306 -20353398.97206 -15859779.90609  21493278.49306  21493280.97606
  23551043.69906  10076029.49506   7851439.65209  23550912.69206  23550919.42406
  25002244.08506   6447261.38306   5023849.12509  25002112.77506  25002117.49406
  24626013.80806  -6313115.68006  -4919309.26409  24625882.42706  24625887.85206
  20890397.78006 -15637994.22206 -12185424.16109  20890266.24506  20890268.61306
  20927892.30206 -17545441.75106 -13671748.09609  20927760.88306  20927763.66706
 92  8 19  1 14 30.0000000  0  7 17 28 03 26 11 23 21
  21370421.92106  -1796554.93306  -1399907.00709  21370290.45906  21370293.28606
  21485283.34606 -20396105.49306 -15893057.71909  21485151.57206  21485154.14506
  23573787.08206  10195545.21506   7944568.64509  23573655.94906  23573662.74806
  25020956.87106   6545598.02206   5100475.05209  25020825.60506  25020830.31506
  24604646.40106  -6425402.53006  -5006805.47109  24604514.94406  24604520.35306
  20896749.47606 -15604615.85306 -12159415.05109  20896617.95106  20896620.33706
  20921415.44206 -17579477.90706 -13698269.73309  20921284.01606  20921286.76206
 92  8 19  1 15  0.0000000  0  7 17 28 03 26 11 23 21
  21379988.72606  -1746280.90906  -1360732.47209  21379857.22606  21379860.04106
  21477284.26106 -20438141.93406 -15925813.39409  21477152.51806  21477155.03906
  23596591.17606  10315380.43106   8037946.59809  23596459.93606  23596466.74406
  25039712.52106   6644158.49706   5177275.40909  25039581.14206  25039585.83706
  24583306.11406  -6537546.11206  -5094190.02909  24583174.67906  24583180.14406
  20903155.25806 -15570953.25506 -12133184.46209  20903023.75106  20903026.09706
  20915006.29106 -17613158.03606 -13724513.94709  20914874.85706  20914877.61406
 92  8 19  1 15 30.0000000  0  7 17 28 03 26 11 23 21
  21389632.43506  -1695602.42206  -1321242.76709  21389500.99206  21389503.83106
  21469423.71806 -20479449.13906 -15958000.83709  21469291.93106  21469294.47206
  23619464.58406  10435581.86406   8131609.90609  23619333.59206  23619340.48506
  25058517.93006   6742982.26106   5254280.90509  25058386.66206  25058391.44006
  24562003.13506  -6649493.52506  -5181421.71209  24561871.68806  24561877.14706
  20909625.51106 -15536952.06406 -12106690.03609  20909493.92906  20909496.31106
  20908673.37006 -17646437.51106 -13750445.96609  20908541.93306  20908544.69106
 92  8 19  1 16  0.0000000  0  7 17 28 03 11 26 23 21
  21399355.48006  -1644507.56806  -1281428.61309  21399224.05806  21399226.93706
  21461702.63506 -20520022.86006 -15989616.73709  21461570.95406  21461573.51706
  23642411.19606  10556166.02506   8225571.44409  23642280.10906  23642287.12606
  24540741.84706  -6761222.77006  -5268483.38709  24540610.21006  24540615.65306
  25077377.49006   6842089.27006   5331507.12409  25077246.14506  25077250.71506
  20916161.16006 -15502607.27606 -12079927.87209  20916029.60806  20916031.92706
  20902416.87406 -17679315.49106 -13776065.13909  20902285.44506  20902288.17006
 92  8 19  1 16 30.0000000  0  7 17 28 03 11 26 23 21
  21409162.28006  -1592972.22606  -1241271.21909  21409030.89906  21409033.81706
  21454122.53306 -20559856.35606 -16020655.83709  21453990.81106  21453993.36006
  23665434.02006  10677150.90106   8319845.22509  23665302.78106  23665309.85306
  24519526.33706  -6872710.03606  -5355356.50909  24519394.81006  24519400.38806
  25096293.56506   6941496.06506   5408966.91709  25096162.50006  25096167.36006
  20922766.81506 -15467894.18906 -12052878.72209  20922635.32106  20922637.67906
  20896236.98106 -17711790.93606 -13801370.64909  20896105.57206  20896108.27106
 92  8 19  1 17  0.0000000  0  7 17 28 03 26 11 23 21
  21419055.45606  -1540983.52106  -1200760.56009  21418924.04606  21418926.96906
  21446684.07306 -20598947.05006 -16051116.13609  21446552.31106  21446554.87806
  23688533.68906  10798540.41006   8414434.31009  23688402.62106  23688409.72306
  25115265.48406   7041194.73106   5486654.19609  25115134.66106  25115139.47406
  24498358.91206  -6983945.59206  -5442033.48509  24498227.30206  24498232.90406
  20929444.11206 -15432804.56706 -12025536.16709  20929312.63706  20929314.92506
  20890134.40606 -17743859.92106 -13826359.43909  20890002.99506  20890005.68606
 92  8 19  1 17 30.0000000  0  7 17 28 03 11 26 23 21
  21429032.89506  -1488552.29606  -1159905.07709  21428901.40506  21428904.32706
  21439384.24106 -20637307.93706 -16081007.75409  21439252.50206  21439255.02706
  23711706.25206  10920312.51806   8509321.52409  23711575.09606  23711582.25806
  24477236.01306  -7094945.98606  -5528527.21909  24477104.57606  24477110.20706
  25134289.74206   7141167.24506   5564554.82009  25134158.56606  25134163.44006
  20936187.72606 -15397366.60006 -11997922.17609  20936056.21106  20936058.55706
  20884105.32006 -17775542.81706 -13851047.37709  20883973.90206  20883976.63906
 92  8 19  1 18  0.0000000  0  7 17 28 03 26 11 23 21
  21439090.46606  -1435699.21706  -1118720.87509  21438959.03106  21438962.00806
  21432217.83406 -20674967.49206 -16110352.87809  21432086.13606  21432088.64406
  23734944.92006  11042433.57806   8604480.64809  23734814.13606  23734821.26306
  25153361.13406   7241386.31106   5642647.63309  25153229.86006  25153234.34306
  24456152.71706  -7205739.16006  -5614859.48209  24456021.37706  24456026.87306
  20942991.11606 -15361614.99906 -11970063.79509  20942859.57406  20942861.90706
  20878145.84506 -17806859.90006 -13875450.26509  20878014.43506  20878017.13606
 92  8 19  1 18 30.0000000  0  7 17 28 03 11 26 23 21
  21449220.21306  -1382467.59506  -1077241.70709  21449088.73006  21449091.64106
  21425178.04306 -20711962.66706 -16139180.29909  21425046.32206  21425048.89006
  23758241.74106  11164858.22406   8699876.33709  23758110.87106  23758117.97906
  24435101.39506  -7316364.55906  -5701061.01409  24434970.02406  24434975.46406
  25172468.36106   7341795.86706   5720888.81409  25172336.95506  25172341.64906
  20949847.55406 -15325584.31506 -11941987.94709  20949715.99506  20949718.34406
  20872249.19706 -17837846.67706 -13899595.77509  20872117.82606  20872120.53906
 92  8 19  1 19  0.0000000  0  7 17 28 03 11 26 23 21
  21459409.68106  -1328921.38906  -1035517.41109  21459278.24806  21459281.13406
  21418252.35106 -20748356.87906 -16167539.43409  21418120.60706  21418123.14306
  23781584.91906  11287526.10206   8795461.56409  23781453.95606  23781461.10206
  24414071.64106  -7426876.75506  -5787174.34109  24413940.25106  24413945.68706
  25191599.61106   7442331.76406   5799228.45409  25191468.47706  25191473.03306
  20956743.55506 -15289345.43206 -11913749.86909  20956612.01606  20956614.37806
  20866404.82006 -17868559.21506 -13923527.59209  20866273.43106  20866276.10606
 92  8 19  1 19 30.0000000  0  7 17 28 03 11 26 23 21
  21469649.39606  -1275111.68206   -993587.79309  21469517.87206  21469520.82006
  21411433.54906 -20784189.62906 -16195461.06009  21411301.81806  21411304.36606
  23804965.77006  11410391.98606   8891201.08309  23804834.70906  23804841.77506
  24393055.97106  -7537315.25406  -5873230.23709  24392924.47306  24392929.83306
  25210749.71206   7542964.62006   5877643.68609  25210618.50906  25210622.79106
  20963668.08606 -15252956.67306 -11885395.00309  20963536.57106  20963538.93906
  20860605.69406 -17899033.53306 -13947273.78509  20860474.33406  20860477.03406
 92  8 19  1 20  0.0000000  0  7 17 28 03 11 26 23 21
  21479932.34106  -1221074.17606   -951480.67209  21479800.87706  21479803.81506
  21404716.20206 -20819488.93606 -16222967.01309  21404584.52106  21404587.09506
  23828378.87906  11533426.76106   8987072.19709  23828247.59506  23828254.62506
  24372049.66206  -7647703.11606  -5959246.67709  24371918.20106  24371923.60206
  25229910.83006   7643662.33406   5956109.43609  25229780.49306  25229784.89306
  20970616.43406 -15216442.78306 -11856942.63509  20970484.91706  20970487.30706
  20854847.24206 -17929294.40506 -13970853.66009  20854715.82906  20854718.52006
 92  8 19  1 20 30.0000000  0  7 17 28 03 26 11 23 21
  21490257.08106  -1166817.45006   -909202.73309  21490125.57906  21490128.57606
  21398098.15206 -20854267.05106 -16250066.83609  21397966.47906  21397969.07806
  23851821.40006  11656619.77206   9083066.60409  23851690.44206  23851697.68006
  25249082.08206   7744405.71206   6034610.74909  25248951.55006  25248955.85506
  24351052.08406  -7758045.30406  -6045227.52109  24350920.69306  24350926.07706
  20977586.37306 -15179815.31306 -11828401.76309  20977454.93106  20977457.27006
  20849126.36506 -17959357.52706 -13994279.44309  20848994.99006  20848997.64906
 92  8 19  1 21  0.0000000  0  7 23 17 28 03 26 11 21
  20984575.61506 -15143086.96306 -11799782.28209  20984444.13306  20984446.50406
  21500621.60206  -1112351.53706   -866761.78909  21500490.11306  21500493.04106
  21391581.79706 -20888510.90306 -16276750.34809  21391450.06306  21391452.66606
  23875292.65306  11779960.48406   9179176.09809  23875161.50806  23875168.85506
  25268261.28406   7845189.25506   6113143.36009  25268129.79806  25268134.55006
  24330062.44406  -7868346.24906  -6131176.22109  24329931.08206  24329936.48206
  20843444.30706 -17989217.12206 -14017546.62809  20843312.89806  20843315.56506
 92  8 19  1 21 30.0000000  0  7 23 17 28 03 26 11 21
  20991585.51606 -15106249.66706 -11771077.90809  20991453.99506  20991456.40606
  21511025.52106  -1057678.55806   -824159.49509  21510894.05406  21510896.97706
  21385167.14706 -20922219.83906 -16303017.03709  21385035.41206  21385037.94306
  23898789.24906  11903435.28606   9275390.07309  23898657.99606  23898665.51106
  25287445.56606   7946000.39006   6191697.46709  25287313.32006  25287318.20106
  24309078.91506  -7978614.09106  -6217099.12209  24308947.68506  24308953.19806
  20837802.85806 -18018863.00706 -14040647.29409  20837671.40806  20837674.06906
 92  8 19  1 22  0.0000000  0  6 23 17 28 03 11 21
  20998618.16106 -15069292.96906 -11742280.49509  20998486.65206  20998489.04606
  21521467.09306  -1002807.79806   -781403.08609  21521335.67706  21521338.65706
  21378851.27606 -20955410.79906 -16328880.10509  21378719.49906  21378722.08106
  23922308.89706  12027031.69006   9371698.81109  23922177.76206  23922185.20506
  24288100.82206  -8088855.13806  -6303001.13209  24287969.47206  24287974.93906
  20832197.52706 -18048319.09206 -14063600.06909  20832066.14406  20832068.83206
 92  8 19  1 22 30.0000000  0  6 23 17 28 03 11 21
  21005674.68506 -15032211.20506 -11713385.62709  21005543.14806  21005545.54206
  21531948.90306   -947725.62806   -738481.94009  21531817.48706  21531820.49406
  21372632.68706 -20988089.73006 -16354344.18709  21372501.00106  21372503.54406
  23945851.52006  12150747.57406   9468100.64609  23945720.23806  23945727.71606
  24267128.47406  -8199065.99706  -6388879.61609  24266997.01206  24267002.42506
  20826628.12606 -18077586.55106 -14086405.85909  20826496.70306  20826499.36406
 92  8 19  1 23  0.0000000  0  6 23 17 28 03 11 21
  21012757.82206 -14994988.77406 -11684381.14709  21012626.31006  21012628.70306
  21542476.69006   -892402.37006   -695372.93709  21542345.20506  21542348.16506
  21366513.87806 -21020243.64006 -16379399.16009  21366382.16906  21366384.68306
  23969419.40706  12274597.08306   9564606.60109  23969288.33806  23969295.64806
  24246165.35806  -8309226.60206  -6474718.93009  24246034.09906  24246039.39806
  20821098.06006 -18106646.98806 -14109050.33209  20820966.69406  20820969.33106
 92  8 19  1 23 30.0000000  0  6 23 17 28 03 11 21
  21019870.19806 -14957613.05306 -11655257.22009  21019738.64106  21019741.03906
  21553056.04506   -836807.14706   -652052.00909  21552924.61206  21552927.66806
  21360495.58806 -21051869.75706 -16404042.86409  21360363.83506  21360366.33606
  23993015.52806  12398596.61306   9661229.45409  23992884.78306  23992892.12206
  24225216.46506  -8419313.86306  -6560501.09009  24225084.89406  24225090.31106
  20815608.36406 -18135494.99706 -14131529.27509  20815477.00306  20815479.63306
 92  8 19  1 24  0.0000000  0  6 23 17 28 03 11 21
  21027006.24506 -14920113.01806 -11626036.42409  21026874.67406  21026877.05306
  21563686.37506   -780944.79406   -608522.92909  21563554.86506  21563557.91006
  21354578.76606 -21082963.27106 -16428271.54909  21354447.01706  21354449.53706
  24016641.22906  12522750.02106   9757972.21009  24016510.54406  24016517.79506
  24204282.94006  -8529319.13306  -6646219.35209  24204151.54306  24204156.86706
  20810156.32206 -18164145.85906 -14153854.59709  20810024.98006  20810027.65206
 92  8 19  1 24 30.0000000  0  6 23 17 28 03 11 21
  21034163.02306 -14882503.80006 -11596730.55109  21034031.51206  21034033.87306
  21574368.58006   -724809.38906   -564781.08509  21574237.09906  21574240.08906
  21348766.29506 -21113507.96906 -16452072.58609  21348634.61106  21348637.07906
  24040295.19606  12647052.43006   9854831.07209  24040164.51906  24040172.05006
  24183365.52506  -8639240.65006  -6731872.35509  24183234.21006  24183239.40006
  20804746.97106 -18192572.64006 -14176005.31009  20804615.53606  20804618.14906
 92  8 19  1 25  0.0000000  0  6 23 17 28 03 11 21
  21041340.06006 -14844788.53106 -11567342.03709  21041208.51806  21041210.92906
  21585100.44906   -668413.34506   -520836.14409  21584968.96206  21584971.94506
  21343061.90506 -21143485.12206 -16475431.38009  21342930.12506  21342932.69406
  24063977.76806  12771503.69106   9951805.92409  24063846.90606  24063854.39806
  24162465.04806  -8749072.79406  -6817455.71909  24162333.68006  24162338.86506
  20799381.45206 -18220768.27006 -14197975.90409  20799250.03606  20799252.70606
 92  8 19  1 25 30.0000000  0  6 23 17 28 03 11 21
  21048538.35606 -14806960.89606 -11537865.96309  21048406.83506  21048409.23506
  21595877.02206   -611781.65906   -476707.58309  21595745.60506  21595748.62606
  21337466.40306 -21172888.99006 -16498343.45909  21337334.67506  21337337.19706
  24087687.45306  12896099.35806  10048893.30209  24087556.61506  24087564.40606
  24141581.98506  -8858813.98806  -6902968.21009  24141450.50906  24141455.79606
  20794059.70706 -18248733.63506 -14219767.07009  20793928.35206  20793931.01706
 92  8 19  1 26  0.0000000  0  6 23 17 28 03 11 21
  21055766.75606 -14768975.12306 -11508266.66409  21055635.27406  21055637.70006
  21606702.15706   -554895.73006   -432380.90909  21606570.62206  21606573.66406
  21331984.64906 -21201696.75106 -16520791.04309  21331852.91906  21331855.39206
  24111429.04306  13020860.24406  10146109.43209  24111297.95206  24111305.69206
  24120721.31306  -8968437.88506  -6988389.31409  24120589.81806  24120594.92606
  20788788.51306 -18276434.28106 -14241351.96109  20788657.08006  20788659.71106
 92  8 19  1 26 30.0000000  0  6 23 17 28 03 11 21
  21063036.90106 -14730770.40806 -11478496.76109  21062905.38806  21062907.83406
  21617581.54206   -497723.84006   -387831.41409  21617450.03306  21617453.06206
  21326621.52106 -21229879.48506 -16542751.59609  21326489.71706  21326492.18006
  24135207.25806  13145814.02706  10243475.87109  24135075.88206  24135083.83606
  24099889.33706  -9077910.36006  -7073692.43709  24099757.80006  24099762.82206
  20783574.37006 -18303834.70006 -14262702.90909  20783442.95206  20783445.57906
 92  8 19  1 27  0.0000000  0  6 23 17 28 03 11 21
  21070355.05906 -14692313.65506 -11448530.46309  21070223.55606  21070225.98306
  21628520.56106   -440238.95706   -343038.02609  21628389.04006  21628392.06206
  21321381.19606 -21257417.22506 -16564209.55609  21321249.48206  21321251.97706
  24159027.69806  13270989.49906  10341015.05309  24158896.20206  24158904.02406
  24079092.64506  -9187196.91006  -7158850.69109  24078961.18006  24078966.21206
  20778417.67806 -18330932.97106 -14283818.41509  20778286.26306  20778288.92206
 92  8 19  1 27 30.0000000  0  7 23 17 28 03 12 11 21
  21077729.10606 -14653563.16206 -11418335.27709  21077597.53806  21077599.92006
  21639528.55406   -382392.10206   -297962.58109  21639397.06106  21639400.10906
  21316268.71706 -21284283.18806 -16585144.05609  21316137.05806  21316139.52306
  24182895.97206  13396417.10806  10438750.70609  24182764.48906  24182772.33906
  25049367.91216         0.40916        -0.40019  25049236.78716  25049244.98616
  24058338.28406  -9296260.92106  -7243835.54709  24058206.86506  24058211.87306
  20773322.94206 -18357705.63306 -14304680.20409  20773191.56506  20773194.18606
 92  8 19  1 28  0.0000000  0  7 23 17 28 03 12 11 21
  21085162.73906 -14614498.93306 -11387895.61809  21085031.14606  21085033.56406
  21650613.63406   -324139.81006   -252571.21209  21650482.14106  21650485.19506
  21311289.59806 -21310448.94406 -16605532.94109  21311157.79106  21311160.28306
  24206816.58806  13522121.82606  10536702.28309  24206685.43406  24206693.30506
  25034411.67906    -78591.06806    -61240.33209  25034281.11206  25034289.31306
  24037632.29206  -9405071.49206  -7328622.92909  24037500.91706  24037505.85106
  20768293.35506 -18384136.19906 -14325275.42209  20768162.01406  20768164.63806
 92  8 19  1 28 30.0000000  0  7 23 17 28 03 12 11 21
  21092660.54306 -14575097.37306 -11357193.10209  21092529.00306  21092531.39906
  21661780.34906   -265458.58906   -206845.61309  21661648.77606  21661651.86306
  21306452.43506 -21335868.93606 -16625340.71509  21306320.64106  21306323.12206
  24230796.20406  13648135.73606  10634894.78209  24230665.19606  24230673.10806
  25019519.67206   -156851.43506   -122222.25909  25019388.57806  25019396.76706
  24016981.74706  -9513590.47206  -7413183.11009  24016850.35906  24016855.26806
  20763333.13106 -18410202.85906 -14345587.07909  20763201.70306  20763204.29206
 92  8 19  1 29  0.0000000  0  7 23 17 28 03 12 11 21
  21100220.77106 -14535368.27606 -11326235.36409  21100089.22306  21100091.65106
  21673027.80306   -206352.39506   -160788.86909  21672896.40606  21672899.45906
  21301759.90706 -21360527.40006 -16644555.09309  21301628.20106  21301630.62906
  24254835.54006  13774462.75406  10733331.26009  24254704.68306  24254712.53106
  25004691.97406   -234770.23606   -182938.01709  25004560.93606  25004569.09006
  23996388.77606  -9621807.97206  -7497508.37809  23996257.21706  23996262.10206
  20758443.57406 -18435896.93106 -14365608.40709  20758312.20306  20758314.80506
 92  8 19  1 29 30.0000000  0  7 23 17 28 03 12 11 21
  21107841.45106 -14495320.87506 -11295029.59609  21107709.94806  21107712.35006
  21684353.62306   -146834.57606   -114411.37609  21684222.24406  21684225.32406
  21297210.82806 -21384432.57306 -16663182.49209  21297079.15306  21297081.62206
  24278932.29006  13901092.73306  10832003.81209  24278801.76706  24278809.59506
  24989928.62606   -312351.48606   -243390.74709  24989797.60906  24989805.70706
  23975852.28206  -9729728.24906  -7581602.04909  23975720.66306  23975725.46506
  20753626.06606 -18461212.90406 -14385335.11409  20753494.69906  20753497.31106
 92  8 19  1 30  0.0000000  0  7 23 17 28 03 12 11 21
  21115516.47106 -14454988.70206 -11263601.92809  21115384.98906  21115387.35006
  21695749.71306    -86948.10906    -67746.62609  21695618.19906  21695621.37306
  21292801.05306 -21407606.13306 -16681239.80309  21292669.38006  21292671.82006
  24303081.77806  14027997.46606  10930890.45009  24302951.09406  24302958.88506
  24975225.53706   -389615.98506   -303596.72909  24975094.64706  24975102.58006
  23955368.20606  -9837373.13106  -7665481.12809  23955236.55306  23955241.31206
  20748880.12806 -18486153.20706 -14404769.09209  20748748.73206  20748751.32806
 92  8 19  1 30 30.0000000  0  7 23 17 28 03 12 11 21
  21123238.15806 -14414410.88306 -11231982.84809  21123106.67406  21123109.05206
  21707209.45206    -26727.23706    -20821.30309  21707077.94806  21707081.06406
  21288525.34206 -21430075.28606 -16698748.22509  21288393.63806  21288396.08106
  24327277.38906  14155144.09706  11029965.57109  24327146.30606  24327154.28006
  24960577.79406   -466590.02906   -363576.38009  24960446.82206  24960454.82306
  23934931.20306  -9944769.50206  -7749166.56309  23934799.59906  23934804.32506
  20744202.84606 -18510732.45606 -14423921.73009  20744071.47806  20744074.06306
 92  8 19  1 31  0.0000000  0  7 23 17 28 03 12 11 21
  21130996.21906 -14373641.53106 -11200214.52209  21130864.79306  21130867.16606
  21718729.70006     33812.15006     26352.21609  21718598.21506  21718601.32406
  21284373.37506 -21451893.93606 -16715749.76209  21284241.66806  21284244.11906
  24351509.52806  14282485.17106  11129192.20209  24351378.59606  24351386.53106
  24945976.99006   -543315.04106   -423361.89909  24945846.41606  24945854.24706
  23914533.62106 -10051958.86606  -7832690.68909  23914402.09906  23914406.73206
  20739587.00706 -18534988.83206 -14442822.77709  20739455.62506  20739458.20106
 92  8 19  1 31 30.0000000  0  7 23 17 28 03 12 11 21
  21138781.35106 -14332730.29606 -11168335.63809  21138649.94306  21138652.30006
  21730304.95606     94640.39506     73750.81909  21730173.49406  21730176.63606
  21280333.19206 -21473125.33306 -16732293.69909  21280201.51806  21280203.94306
  24375768.53006  14409965.81006  11228527.58609  24375637.37306  24375645.38206
  24931414.97306   -619838.59706   -482990.54309  24931284.42706  24931292.26406
  23894166.18206 -10158989.85306  -7916091.40709  23894034.69406  23894039.36506
  20735021.91706 -18558977.90806 -14461515.54109  20734890.62506  20734893.17206
 92  8 19  1 32  0.0000000  0  7 23 17 28 03 12 11 21
  21146586.59806 -14291713.75806 -11136374.70009  21146455.10106  21146457.51106
  21741932.13606    155741.41306    121361.97009  21741800.63306  21741803.72106
  21276400.77706 -21493789.34506 -16748395.51909  21276269.05106  21276271.52206
  24400047.95106  14537555.02506  11327947.58109  24399916.78306  24399925.03606
  24916886.82706   -696185.66006   -542481.57009  24916756.02206  24916763.68806
  23873824.06606 -10265887.59106  -7999388.28709  23873692.66006  23873697.40206
  20730501.01006 -18582735.78606 -14480028.15009  20730369.62706  20730372.15506
 92  8 19  1 32 30.0000000  0  7 23 17 28 03 12 11 21
  21154408.99806 -14250606.71306 -11104343.23909  21154277.52306  21154279.88406
  21753612.78106    217123.14406    169191.86309  21753481.31006  21753484.38606
  21272574.39806 -21513897.44606 -16764064.15809  21272442.73706  21272445.18806
  24424346.27606  14665243.45506  11427444.88909  24424215.19006  24424223.37106
  24902391.62106   -772358.55806   -601836.95309  24902260.48206  24902268.52706
  23853506.96106 -10372655.27406  -8082583.83309  23853375.43206  23853380.09406
  20726016.74606 -18606300.57306 -14498390.29909  20725885.35006  20725887.86806
 92  8 19  1 33  0.0000000  0  7 23 17 28 11 03 12 21
  21162247.78906 -14209413.98906 -11072245.01609  21162116.27306  21162118.64606
  21765343.11406    278767.12406    217226.10309  21765211.69706  21765214.83606
  21268851.01306 -21533464.71706 -16779311.37209  21268719.28606  21268721.75106
  23833212.12906 -10479304.12206  -8165686.77709  23833080.82806  23833085.51506
  24448660.22706  14793013.78006  11527006.00709  24448529.23106  24448537.46906
  24887927.34206   -848368.21206   -661065.11909  24887796.28706  24887804.15506
  20721564.57906 -18629696.45006 -14516620.83209  20721433.24606  20721435.76006
 92  8 19  1 33 30.0000000  0  7 23 17 28 11 03 12 21
  21170103.02006 -14168134.37306 -11040079.08609  21169971.57506  21169973.93106
  21777119.08806    340650.26206    265446.70109  21776987.71406  21776990.78906
  21265234.84606 -21552467.31806 -16794118.58309  21265103.09206  21265105.53106
  23812940.54006 -10585831.50606  -8248695.07109  23812809.19406  23812813.97806
  24472989.30006  14920862.52406  11626628.23509  24472858.24506  24472866.59706
  24873494.80106   -924211.39806   -720163.58909  24873363.80606  24873371.53806
  20717144.50706 -18652924.12406 -14534720.29809  20717013.18006  20717015.68106
 92  8 19  1 34  0.0000000  0  7 23 17 28 11 03 12 21
  21177974.44806 -14126769.57206 -11007846.77909  21177842.98906  21177845.39706
  21788937.04406    402753.22306    313838.59209  21788805.58306  21788808.71906
  21261728.57906 -21570891.78806 -16808475.30109  21261596.88806  21261599.31706
  23792691.74806 -10692239.19806  -8331610.09109  23792560.32706  23792565.18206
  24497331.92806  15048781.80606  11726305.42809  24497200.76506  24497208.94206
  24859093.49906   -999889.34306   -779133.27509  24858962.64806  24858970.36506
  20712757.62706 -18675977.77606 -14552684.16109  20712626.19706  20712628.68106
 92  8 19  1 34 30.0000000  0  7 23 17 28 11 03 12 21
  21185864.63806 -14085306.83506 -10975538.15909  21185733.12106  21185735.52506
  21800792.99106    465056.77106    362386.77809  21800661.57506  21800664.69906
  21258331.61406 -21588743.36406 -16822385.60709  21258199.86806  21258202.24906
  23772464.91606 -10798532.09006  -8414435.66809  23772333.40806  23772338.20706
  24521685.47906  15176760.58906  11826028.99809  24521554.44806  24521562.59106
  24844722.75506  -1075406.46306   -837977.64309  24844592.08206  24844599.74706
  20708405.04506 -18698850.51906 -14570507.05609  20708273.63806  20708276.12706
 92  8 19  1 35  0.0000000  0  7 23 17 28 11 03 12 21
  21193773.77406 -14043743.83206 -10943151.40909  21193642.23406  21193644.63406
  21812685.95806    527554.61006    411086.36009  21812554.52206  21812557.70806
  21255044.48506 -21606017.94106 -16835846.30209  21254912.82206  21254915.26806
  23752258.78406 -10904714.62806  -8497175.25809  23752127.53706  23752132.37406
  24546048.52106  15304788.46106  11925790.81109  24545917.43006  24545925.72606
  24830381.97206  -1150766.77306   -896699.83809  24830251.51206  24830259.01106
  20704090.49506 -18721522.75906 -14588173.71609  20703959.19406  20703961.69806
 92  8 19  1 35 30.0000000  0  7 23 17 28 11 03 12 21
  21201704.34906 -14002068.04706 -10910676.78009  21201572.90006  21201575.29906
  21824619.22806    590263.80306    459950.63209  21824487.67106  21824490.89506
  21251867.63006 -21622711.93206 -16848854.59409  21251735.94206  21251738.36506
  23732077.03306 -11010769.80706  -8579815.60109  23731945.76406  23731950.76806
  24570422.97806  15432875.93306  12025599.07709  24570291.86906  24570300.15106
  24816074.47606  -1225952.72606   -955286.17109  24815943.93906  24815951.67506
  20699818.50706 -18743972.45406 -14605666.96909  20699687.17806  20699689.66106
 92  8 19  1 36  0.0000000  0  7 23 17 28 11 03 12 21
  21209663.43006 -13960243.10506 -10878085.92609  21209531.94506  21209534.26306
  21836599.09406    653218.63006    509006.30709  21836467.61306  21836470.84206
  21248801.74506 -21638823.83406 -16861409.31309  21248669.95706  21248672.40406
  23711926.25006 -11116663.16806  -8662329.85909  23711794.96106  23711799.92806
  24594814.24606  15561051.60406  12125476.06709  24594682.94006  24594691.33306
  24801807.23806  -1300929.37606  -1013709.40009  24801676.24006  24801683.78406
  20695593.16606 -18766176.68006 -14622968.94609  20695461.81006  20695464.36106
 92  8 19  1 36 30.0000000  0  7 23 17 28 11 03 12 21
  21217652.18106 -13918262.25806 -10845373.58509  21217520.62406  21217523.01306
  21848630.36006    716443.19506    558272.17309  21848498.91006  21848502.09506
  21245846.17006 -21654355.88606 -16873512.20309  21245714.41706  21245716.83906
  23691809.33306 -11222378.47406  -8744705.37409  23691678.01706  23691682.90606
  24619224.20306  15689325.68806  12225429.72009  24619092.90206  24619101.36506
  24787582.68106  -1375680.02706  -1071956.52209  24787451.54106  24787458.96906
  20691412.47106 -18788146.70906 -14640088.42909  20691281.06406  20691283.56406
 92  8 19  1 37  0.0000000  0  7 23 17 28 11 03 12 21
  21225663.87306 -13876159.81306 -10812566.49209  21225532.40006  21225534.81206
  21860709.58406    779919.94106    607734.54309  21860578.18206  21860581.33006
  21242995.03806 -21669338.49806 -16885186.95709  21242863.33606  21242865.73106
  23671723.99606 -11327927.92906  -8826951.65309  23671592.50706  23671597.46906
  24643649.20006  15817679.54706  12325445.54509  24643518.02706  24643526.58506
  24773398.52106  -1450216.44106  -1130036.70809  24773267.64506  24773275.19506
  20687269.72306 -18809916.98806 -14657052.26309  20687138.27606  20687140.74606
 92  8 19  1 37 30.0000000  0  7 23 17 28 11 03 12 21
  21233698.08206 -13833940.57606 -10779668.39509  21233566.55606  21233568.93406
  21872836.01006    843644.60506    657390.09109  21872704.57706  21872707.75006
  21240247.88006 -21683774.61306 -16896435.87309  21240116.19906  21240118.62206
  23651670.60306 -11433309.46506  -8909067.09209  23651539.15206  23651543.98006
  24668088.80606  15946109.25906  12425520.48209  24667957.47206  24667966.17106
  24759255.32806  -1524536.27606  -1187948.14109  24759124.81906  24759132.44306
  20683161.40406 -18831505.67306 -14673874.59909  20683030.07206  20683032.58006
 92  8 19  1 38  0.0000000  0  7 23 17 28 11 03 12 21
  21241757.21206 -13791589.35706 -10746667.45409  21241625.68906  21241628.14306
  21885014.48306    907642.29606    707258.38409  21884882.99006  21884886.13206
  21237611.49206 -21697628.92406 -16907231.43609  21237479.79706  21237482.22906
  23631653.28106 -11538501.31606  -8991034.72409  23631521.78806  23631526.61906
  24692545.39006  16074630.34406  12525666.61509  24692414.26306  24692422.95306
  24745158.41706  -1598617.07106  -1245673.31309  24745027.65206  24745035.18106
  20679090.87806 -18852896.44706 -14690542.71909  20678959.55406  20678962.04906
 92  8 19  1 38 30.0000000  0  7 23 17 28 11 03 12 21
  21249846.38506 -13749080.79506 -10713543.90809  21249714.81906  21249717.23006
  21897252.08306    971950.96606    757368.99809  21897120.45506  21897123.71106
  21235095.07906 -21710852.56306 -16917535.56709  21234963.34306  21234965.70606
  23611678.98206 -11643466.92806  -9072826.06109  23611547.55706  23611552.32606
  24717025.09306  16203273.07306  12625907.53709  24716894.03106  24716902.94306
  24731114.23906  -1672422.17006  -1303183.66409  24730982.97006  24730990.35406
  20675068.62806 -18874033.80606 -14707013.37409  20674937.25506  20674939.74106
 92  8 19  1 39  0.0000000  0  7 23 17 28 11 03 12 21
  21257971.57506 -13706382.36206 -10680272.41109  21257840.06906  21257842.45806
  21909552.55906   1036590.85406    807737.70609  21909421.02506  21909424.25406
  21232706.52006 -21723404.18406 -16927316.05009  21232574.78706  21232577.19706
  23591754.26206 -11748171.83006  -9154414.24409  23591622.83606  23591627.55106
  24741533.03006  16332066.08106  12726265.55309  24741402.66306  24741411.56706
  24717128.55506  -1745916.30206  -1360451.69109  24716997.47906  24717004.87206
  20671105.80506 -18894858.63806 -14723240.50109  20670974.43006  20670976.90306
 92  8 19  1 39 30.0000000  0  7 23 17 28 11 03 12 21
  21266140.35006 -13663455.13206 -10646822.63109  21266008.82506  21266011.22706
  21921922.80406   1101596.61906    858391.51409  21921791.32506  21921794.56306
  21230454.42206 -21735238.98906 -16936537.97509  21230322.72106  21230325.14506
  23571885.72306 -11852582.19906  -9235772.91609  23571754.17006  23571758.81306
  24766075.48906  16461036.83506  12826762.07609  24765945.08006  24765954.04506
  24703208.31006  -1819065.55306  -1417451.00309  24703077.45406  24703084.89406
  20667210.37006 -18915329.23606 -14739191.60109  20667078.98506  20667081.48506
 92  8 19  1 40  0.0000000  0  7 23 17 28 11 03 12 21
  21274360.44306 -13620258.10906 -10613162.62309  21274228.97106  21274231.36206
  21934367.14806   1166991.83106    909348.78609  21934235.60106  21934238.85806
  21228343.58306 -21746331.51806 -16945181.50209  21228211.94706  21228214.33606
  23552080.26906 -11956660.70506  -9316872.98609  23551948.74406  23551953.26906
  24790657.45706  16590216.29206  12927421.22409  24790527.39606  24790536.13206
  24689361.18906  -1891832.03406  -1474152.02609  24689230.37406  24689237.83406
  20663389.13706 -18935409.83806 -14754838.80709  20663257.72606  20663260.21906
 92  8 19  1 40 30.0000000  0  7 23 17 11 28 03 12 21
  21282637.12906 -13576764.53706 -10579271.54009  21282505.54406  21282507.92806
  21946889.45006   1232796.92106    960625.44109  21946757.97406  21946761.16506
  23532344.13906 -12060374.17606  -9397688.60809  23532212.67306  23532217.22206
  21226379.09906 -21756655.38206 -16953226.07009  21226247.35106  21226249.80006
  24815284.98006  16719631.36306  13028263.96009  24815154.41706  24815163.19606
  24675593.22906  -1964182.25806  -1530528.70809  24675462.44206  24675469.74806
  20659645.46606 -18955082.73106 -14770168.31709  20659514.10106  20659516.56606
 92  8 19  1 41  0.0000000  0  7 23 17 11 28 03 12 21
  21290970.93706 -13532969.81806 -10545145.79509  21290839.49006  21290841.88806
  21959488.48206   1299005.89306   1012216.81709  21959357.13806  21959360.34206
  23512678.32106 -12163716.96006  -9478215.36309  23512546.99206  23512551.73706
  21224560.75606 -21766210.75106 -16960671.81309  21224429.04206  21224431.43506
  24839957.19206  16849281.85706  13129290.15009  24839826.36506  24839835.02706
  24661905.77606  -2036110.14706  -1586576.30909  24661775.03606  24661782.40706
  20655974.91506 -18974371.65006 -14785198.62709  20655843.53606  20655846.01006
 92  8 19  1 41 30.0000000  0  7 23 17 11 28 03 12 21
  21299359.71006 -13488886.17206 -10510794.91109  21299228.25206  21299230.66806
  21972165.75806   1365624.77306   1064127.60109  21972034.28806  21972037.54006
  23493082.40106 -12266693.93306  -9558457.06309  23492950.98506  23492955.78806
  21222885.34306 -21775015.12206 -16967532.36409  21222753.69006  21222756.07706
  24864671.98506  16979156.77406  13230491.21609  24864540.80706  24864549.59706
  24648297.60606  -2107620.30706  -1642298.37709  24648166.98106  24648174.12806
  20652372.37706 -18993303.03106 -14799950.33609  20652240.98606  20652243.44506
 92  8 19  1 42  0.0000000  0  7 23 17 11 28 03 12 21
  21307797.82406 -13444543.72306 -10476242.36109  21307666.34006  21307668.82106
  21984917.01706   1432632.76406   1116341.58809  21984785.50706  21984788.71206
  23473553.27506 -12369319.69806  -9638425.09409  23473421.88506  23473426.54106
  21221349.68606 -21783085.02706 -16973820.60309  21221218.02706  21221220.37906
  24889425.30306  17109235.13206  13331850.79409  24889294.12506  24889302.91706
  24634766.41606  -2178726.97506  -1697706.04309  24634635.78906  24634642.99206
  20648833.07406 -19011902.27606 -14814443.23309  20648701.69806  20648704.14406
 92  8 19  1 42 30.0000000  0  7 23 17 11 28 03 12 21
  21316278.63006 -13399976.75706 -10441514.86309  21316147.14406  21316149.55106
  21997738.77306   1500011.64706   1168844.57909  21997607.27206  21997610.52706
  23454086.37706 -12471617.51506  -9718137.57009  23453955.12506  23453959.77106
  21219949.27906 -21790444.79606 -16979555.48409  21219817.54406  21219819.95006
  24914211.50506  17239487.30306  13433345.80509  24914080.36706  24914089.24306
  24621307.86706  -2249452.94806  -1752817.08909  24621176.85906  24621184.20606
  20645351.48406 -19030197.90906 -14828699.54709  20645220.11406  20645222.53406
 92  8 19  1 43 30.0000000  4  1
 -2356494.0000 -4646608.0000  3668427.0000                  APPROX POSITION XYZ
 92  8 19  1 43  0.0000000  0  7 23 17 11 28 03 12 21
  21324796.68606 -13355214.16606 -10406634.92809  21324665.14506  21324667.60206
  22010624.09406   1567724.52306   1221607.82509  22010492.63706  22010495.92606
  23434675.47306 -12573621.84506  -9797621.35209  23434544.22306  23434548.98206
  21218675.01006 -21797140.35006 -16984772.79109  21218543.34606  21218545.81506
  24939023.14706  17369872.94406  13534944.83809  24938892.10106  24938900.85506
  24607914.85606  -2319832.60506  -1807658.24109  24607783.97206  24607791.27706
  20641923.08406 -19048214.39206 -14842738.34409  20641791.72206  20641794.11506
 92  8 19  1 43 30.0000000  0  7 23 17 11 28 03 12 21
  21333342.66706 -13310304.14006 -10371640.11409  21333211.21606  21333213.65806
  22023563.47006   1635721.14806   1274592.16609  22023432.01706  22023435.32906
  23415311.29806 -12675380.93606  -9876914.03509  23415180.04706  23415184.67406
  21217520.80706 -21803205.92206 -16989499.20309  21217389.07706  21217391.49806
  24963849.58706  17500337.62406  13636605.45709  24963718.73506  24963727.69406
  24594578.57906  -2389913.58906  -1862266.67309  24594447.94006  24594455.11006
  20638540.10306 -19065991.74706 -14856590.80709  20638408.73206  20638411.14606
 92  8 19  1 44  0.0000000  0  7 23 17 11 28 03 12 21
  21341910.85006 -13265278.66606 -10336555.33609  21341779.38306  21341781.80606
  22036548.59706   1703958.07106   1327763.75609  22036417.03106  22036420.35406
  23395989.10206 -12776918.94806  -9956034.44209  23395857.83106  23395862.56806
  21216484.42406 -21808652.10306 -16993742.97009  21216352.72806  21216355.13506
  24988685.46106  17630850.50006  13738303.63809  24988554.57406  24988563.53506
  24581294.74806  -2459720.04606  -1916661.21209  24581164.19306  24581171.17906
  20635198.65706 -19083550.79106 -14870273.15609  20635067.31006  20635069.77506
 92  8 19  1 44 30.0000000  0  7 23 17 11 28 03 12 21
  21350497.18906 -13220157.43706 -10301395.94309  21350365.69606  21350368.10906
  22049576.83606   1772422.01906   1381112.25509  22049445.35206  22049448.64806
  23376704.53806 -12878259.60606 -10035001.07109  23376573.36806  23376577.96906
  21215559.59206 -21813512.04906 -16997529.93209  21215427.93306  21215430.29506
  25013524.63706  17761382.15306  13840016.44609  25013394.07506  25013403.16506
  24568059.22506  -2529275.23406  -1970859.93609  24567928.15506  24567935.33506
  20631896.57206 -19100903.02606 -14883794.35809  20631765.28506  20631767.74806
 92  8 19  1 45  0.0000000  0  7 23 17 11 28 03 12 21
  21359098.77906 -13174956.30506 -10266174.28709  21358967.24406  21358969.66806
  22062646.59906   1841104.00806   1434630.65709  22062515.14306  22062518.49406
  23357456.38106 -12979409.98406 -10113819.43209  23357324.98806  23357329.54506
  21214746.10706 -21817786.86306 -17000860.94509  21214614.42606  21214616.86506
  25038365.14406  17891919.01706  13941733.32309  25038234.40906  25038243.78006
  24554870.11406  -2598585.78306  -2024868.06709  24554738.71506  24554745.80606
  20628634.77606 -19118044.28206 -14897151.15709  20628503.44006  20628505.85206
 92  8 19  1 45 30.0000000  0  7 23 17 11 28 03 12 21
  21367711.47606 -13129696.26006 -10230906.72509  21367579.99206  21367582.39806
  22075756.78006   1909999.18506   1488315.17609  22075625.46006  22075628.76906
  23338243.87606 -13080372.73106 -10192491.59409  23338112.41606  23338116.82506
  21214043.79406 -21821477.03206 -17003736.38809  21213912.14506  21213914.50206
  25063205.11206  18022452.52306  14043447.58409  25063074.23106  25063083.74606
  24541726.18706  -2667654.15106  -2078687.45609  24541595.29006  24541602.60206
  20625410.85406 -19134986.33106 -14910352.72809  20625279.45406  20625281.85106
 92  8 19  1 46  0.0000000  0  7 23 17 11 28 03 12 21
  21376332.60806 -13084391.26606 -10195604.13509  21376201.18706  21376203.57906
  22088908.87306   1979113.30806   1542170.29609  22088777.47706  22088780.81206
  23319066.31206 -13181151.43606 -10271020.35009  23318934.86606  23318939.26106
  21213446.59906 -21824615.98306 -17006182.31409  21213314.89206  21213317.30106
  25088042.40506  18152972.48106  14145151.29709  25087911.42806  25087920.91906
  24528628.25106  -2736483.89206  -2132320.87809  24528497.34006  24528504.49306
  20622223.65406 -19151734.86006 -14923403.50809  20622092.23906  20622094.68306
 92  8 19  1 46 30.0000000  0  7 23 17 11 28 12 03 21
  21384966.64406 -13039019.23706 -10160249.31209  21384835.14006  21384837.57106
  22102107.20806   2048470.51406   1596214.83009  22101975.79706  22101979.12706
  23299927.63806 -13281725.73306 -10349389.83109  23299796.15806  23299800.50606
  21212953.15706 -21827208.27506 -17008202.27209  21212821.42506  21212823.79306
  24515579.43206  -2805054.18406  -2185752.18209  24515448.78906  24515455.74506
  25112879.99906  18283493.16406  14246855.56509  25112748.92806  25112758.45306
  20619075.29406 -19168279.20806 -14936295.18309  20618943.97906  20618946.36406
 92  8 19  1 47  0.0000000  0  7 23 17 11 28 12 03 21
  21393612.72006 -12993583.73506 -10124845.03209  21393481.19606  21393483.64106
  22115349.89006   2118060.71806   1650440.91809  22115218.41906  22115221.71906
  23280829.23806 -13382088.15306 -10427594.22209  23280697.78606  23280702.06206
  21212564.13706 -21829253.07006 -17009795.60809  21212432.46806  21212434.85206
  24502581.86306  -2873357.43406  -2238975.38209  24502450.92906  24502458.02706
  25137717.83006  18414015.75906  14348561.32909  25137586.74706  25137596.11606
  20615963.21606 -19184633.56806 -14949038.81609  20615831.83106  20615834.24706
 92  8 19  1 47 30.0000000  0  7 23 17 11 28 12 03 21
  21402271.34706 -12948082.51606 -10089389.54509  21402139.84706  21402142.29706
  22128635.62206   2187877.83906   1704843.82809  22128504.18906  22128507.46606
  23261771.43506 -13482236.91206 -10505632.13809  23261639.97106  23261644.21506
  21212277.96906 -21830756.80506 -17010967.33809  21212146.30006  21212148.65406
  24489635.46806  -2941391.24306  -2291988.62109  24489504.45406  24489511.43206
  25162555.13406  18544536.27906  14450265.46309  25162424.22906  25162433.29306
  20612883.78506 -19200815.80606 -14961648.32809  20612752.42706  20612754.80206
 92  8 19  1 48  0.0000000  0  7 23 17 11 28 12 03 21
  21410945.77606 -12902498.26406 -10053869.35709  21410814.26406  21410816.67706
  22141963.34506   2257915.32306   1759418.45409  22141831.94606  22141835.22906
  23242755.46906 -13582165.42506 -10583498.44709  23242624.16806  23242628.44406
  21212094.59706 -21831720.41206 -17011718.19409  21211962.87506  21211965.25506
  24476741.46906  -3009149.21106  -2344786.92509  24476610.55806  24476617.54606
  25187392.13006  18675054.79506  14551968.03809  25187261.02806  25187270.42606
  20609837.01706 -19216826.85306 -14974124.44809  20609705.65306  20609707.95406
 92  8 19  1 48 30.0000000  0  7 23 17 11 28 12 03 21
  21419636.52606 -12856827.58006 -10018281.82009  21419505.04206  21419507.51606
  22155327.84006   2328146.00306   1814143.62809  22155196.35306  22155199.69906
  23223781.46806 -13681873.80806 -10661193.23609  23223650.12206  23223654.55806
  21212014.72306 -21832139.40806 -17012044.67909  21211883.07606  21211885.46206
  24463900.01106  -3076631.17206  -2397370.14209  24463769.07206  24463776.13706
  25212227.24106  18805564.83106  14653664.00209  25212096.38506  25212105.69106
  20606820.24206 -19232680.49506 -14986477.91409  20606688.84406  20606691.16406
 92  8 19  1 49  0.0000000  0  7 23 17 11 28 12 03 21
  21428346.54606 -12811056.70606  -9982616.21209  21428215.04506  21428217.46306
  22168728.25506   2398565.41006   1869015.86309  22168596.68806  22168600.12406
  23204851.52106 -13781350.86206 -10738707.78009  23204720.25806  23204724.64906
  21212043.27106 -21831990.19206 -17011928.40309  21211911.63406  21211914.00106
  24451112.79206  -3143825.63706  -2449729.37109  24450982.31506  24450989.15806
  25237062.34806  18936071.48006  14755357.33009  25236931.03206  25236940.66906
  20603837.41306 -19248355.48506 -14998692.17109  20603705.95106  20603708.28006
 92  8 19  1 49 30.0000000  0  7 23 17 11 28 12 03 21
  21437079.37906 -12765165.42206  -9946856.78109  21436947.82606  21436950.28706
  22182165.21706   2469177.15806   1924037.96909  22182033.75606  22182037.19506
  23185968.28906 -13880583.12206 -10816031.59309  23185836.93406  23185841.32106
  21212183.05706 -21831255.31006 -17011355.76709  21212051.37006  21212053.75006
  24438383.50006  -3210719.13906  -2501854.04209  24438252.72806  24438259.81806
  25261898.15706  19066581.94906  14857053.60809  25261766.65406  25261776.21606
  20600890.89706 -19263838.76406 -15010757.04609  20600759.45806  20600761.79406
 92  8 19  1 50  0.0000000  0  7 23 17 11 28 12 03 21
  21445837.15106 -12719142.96706  -9910995.14309  21445705.64306  21445708.12506
  22195642.22706   2539999.38806   1979224.09409  22195510.77906  22195514.18606
  23167134.51906 -13979554.82906 -10893152.38709  23167003.22406  23167007.60606
  21212436.19106 -21829924.92206 -17010319.10509  21212304.47406  21212306.85506
  24425714.54706  -3277295.58606  -2553731.70209  24425583.63406  24425590.48406
  25286735.75506  19197105.89806  14958760.39709  25286604.77306  25286613.96406
  20597983.24606 -19279118.11406 -15022663.01609  20597851.88006  20597854.25506
 92  8 19  1 50 30.0000000  0  7 23 17 11 28 12 03 21
  21454625.10606 -12672961.55506  -9875009.64309  21454493.60806  21454496.12006
  22209170.98506   2611093.46706   2034622.04909  22209039.55506  22209042.98506
  23148357.61406 -14078229.03406 -10970041.37109  23148226.25706  23148230.51706
  21212811.11306 -21827955.69206 -17008784.64609  21212679.37606  21212681.75806
  24413112.96906  -3343517.94806  -2605333.44409  24412981.96206  24412988.67806
  25311581.76806  19327674.01606  15060501.59209  25311451.17106  25311460.53206
  20595122.73306 -19294150.17806 -15034376.29909  20594991.38206  20594993.76106
 92  8 19  1 51  0.0000000  0  7 23 17 11 28 12 03 21
  21463453.49006 -12626568.40406  -9838859.15509  21463322.04706  21463324.51106
  22222766.66706   2682539.27106   2090294.07409  22222635.25406  22222638.66006
  23129648.05206 -14176549.19206 -11046654.48109  23129516.59006  23129520.84406
  21213318.72806 -21825287.99406 -17006705.92909  21213187.02906  21213189.40006
  24400589.21406  -3409329.40706  -2656614.96509  24400458.20406  24400465.09406
  25336445.95706  19458336.70706  15162316.47309  25336315.42006  25336324.86406
  20592319.81506 -19308879.78206 -15045853.89609  20592188.43206  20592190.80206
 92  8 19  1 51 30.0000000  0  7 23 17 12 03 11 28 21
  21472328.02106 -12579932.43906  -9802519.46009  21472196.56706  21472198.99906
  22236440.62706   2754396.24106   2146286.49409  22236309.19806  22236312.55806
  24388151.70306  -3474687.00406  -2707542.85509  24388020.93106  24388027.96906
  25361335.69706  19589130.79806  15264233.74709  25361204.59806  25361214.50106
  23111013.93706 -14274472.40106 -11122958.28009  23110882.37906  23110886.76806
  21213965.84406 -21821887.00906 -17004055.82309  21213834.11606  21213836.55706
  20589579.48106 -19323280.50706 -15057075.22709  20589448.08706  20589450.44406
 92  8 19  1 52  0.0000000  0  7 23 17 11 28 12 03 21
  21481252.72806 -12533032.96006  -9765974.43209  21481121.24906  21481123.69206
  22250198.97606   2826696.74206   2202624.52109  22250067.57806  22250071.01106
  23092459.73906 -14371974.89006 -11198934.24109  23092328.27506  23092332.57606
  21214756.77506 -21817730.59706 -17000817.07509  21214625.08906  21214627.49806
  24375805.75406  -3539566.86406  -2758098.49309  24375674.80106  24375681.52106
  25386252.95906  19720073.28906  15366266.65809  25386122.47406  25386132.31706
  20586906.41506 -19337327.41306 -15068020.85509  20586774.99706  20586777.36506
 92  8 19  1 52 30.0000000  0  7 23 17 11 28 12 03 21
  21490228.88006 -12485863.05906  -9729218.68609  21490097.36506  21490099.83406
  22264040.09806   2899431.21006   2259300.70409  22263908.52106  22263911.93906
  23073988.18806 -14469042.53806 -11274571.36209  23073856.89206  23073861.27606
  21215693.88206 -21812806.53906 -16996980.16509  21215562.12906  21215564.52906
  24363552.86006  -3603954.87406  -2808270.84009  24363422.01506  24363428.77606
  25411200.70706  19851172.75806  15468421.89309  25411069.80806  25411079.79106
  20584304.89106 -19350998.49306 -15078673.63109  20584173.50706  20584175.80406
 92  8 19  1 53  0.0000000  0  7 23 17 11 28 12 03 21
  21499255.29606 -12438428.97006  -9692257.07809  21499123.85406  21499126.27506
  22277957.81606   2972569.31506   2316291.40409  22277826.28706  22277829.71806
  23055601.43606 -14565665.74806 -11349862.15309  23055470.05106  23055474.47006
  21216776.68206 -21807117.01806 -16992546.79509  21216644.97006  21216647.33406
  24351395.54806  -3667841.25506  -2858052.32809  24351264.75706  24351271.44706
  25436179.40406  19982432.24806  15570701.85709  25436047.86506  25436057.77906
  20581775.76806 -19364288.93906 -15089029.81509  20581644.40806  20581646.70006
 92  8 19  1 53 30.0000000  0  7 23 17 11 28 12 03 21
  21508327.24606 -12390755.56506  -9655108.99109  21508195.79606  21508198.25006
  22291946.39306   3046080.00906   2373572.43509  22291814.93506  22291818.33806
  23037297.92906 -14661850.96706 -11424811.64509  23037166.57606  23037171.01906
  21218002.56706 -21800674.26406 -16987526.49309  21217870.89106  21217873.27706
  24339332.64106  -3731232.23506  -2907447.76109  24339201.75706  24339208.44006
  25461186.11706  20113839.47906  15673096.93509  25461054.06906  25461063.99406
  20579319.79906 -19377195.00406 -15099086.48009  20579188.44506  20579190.80906
 92  8 19  1 54  0.0000000  0  7 23 17 11 12 28 03 21
  21517437.93006 -12342878.44706  -9617802.16609  21517306.39006  21517308.93806
  22305996.87906   3119915.95006   2431106.90109  22305865.39306  22305868.92906
  23019073.28506 -14757621.34206 -11499437.87509  23018942.04106  23018946.43606
  24327359.39006  -3794150.85406  -2956475.12109  24327228.62106  24327235.35906
  21219367.03206 -21793503.67606 -16981939.05009  21219235.36006  21219237.74806
  25486214.90406  20245364.74206  15775583.98709  25486082.49206  25486092.56706
  20576931.81406 -19389744.42506 -15108865.24309  20576800.38506  20576802.71606
 92  8 19  1 54 30.0000000  0  7 23 17 11 28 12 03 21
  21526576.36406 -12294855.49906  -9580381.70509  21526444.92606  21526447.41306
  22320103.51106   3194046.94006   2488871.26909  22319972.10006  22319975.61306
  23000921.46506 -14853010.20806 -11573766.81209  23000790.15006  23000794.45706
  21220861.56306 -21785649.51206 -16975818.95209  21220729.85006  21220732.23806
  24315469.87106  -3856630.60606  -3005160.51509  24315339.02406  24315345.56506
  25511258.53406  20376968.83706  15878132.47109  25511126.18306  25511136.51506
  20574604.41606 -19401973.98006 -15118394.75609  20574473.13006  20574475.43306
 92  8 19  1 55  0.0000000  0  7 23 17 11 12 28 03 21
  21535734.86206 -12246727.70606  -9542879.54609  21535603.44006  21535605.90806
  22334265.45406   3268467.73206   2546861.44809  22334133.94306  22334137.46806
  22982835.18906 -14948054.38506 -11647827.15709  22982703.82006  22982708.04206
  24303656.72406  -3918708.12906  -3053532.50409  24303525.99506  24303532.53806
  21222478.14806 -21777155.19106 -16969200.03109  21222346.42806  21222348.84906
  25536308.74706  20508608.52906  15980708.67609  25536176.24706  25536186.77006
  20572328.07406 -19413936.56606 -15127716.24209  20572196.74706  20572199.07906
 92  8 19  1 55 30.0000000  0  6 23 17 11 28 12 21
  21544910.55206 -12198508.77006  -9505306.36509  21544779.17506  21544781.63906
  22348482.60806   3343179.88206   2605078.66009  22348351.15006  22348354.70506
  22964809.99306 -15042777.54906 -11721637.35109  22964678.56206  22964682.78706
  21224211.62506 -21768045.48406 -16962101.58909  21224080.06106  21224082.43506
  24291915.73006  -3980407.03506  -3101609.43009  24291785.02806  24291791.55206
  20570095.09806 -19425670.99706 -15136859.94809  20569963.71406  20569966.08006
 92  8 19  1 56  0.0000000  0  6 23 17 11 12 28 21
  21554100.76306 -12150214.62506  -9467674.57509  21553969.25806  21553971.76206
  22362751.86706   3418165.15206   2663508.68609  22362620.50606  22362623.97806
  22946841.22806 -15137204.13906 -11795216.44309  22946709.79006  22946713.91806
  24280242.31006  -4041751.85806  -3149410.46809  24280111.24306  24280117.89706
  21226055.35606 -21758356.80906 -16954552.00009  21225923.73306  21225926.15806
  20567898.02506 -19437216.72906 -15145856.61709  20567766.64706  20567768.98406
 92  8 19  1 56 30.0000000  0  6 23 17 11 12 28 21
  21563306.13806 -12101839.27906  -9429979.51009  21563174.71806  21563177.29006
  22377072.35606   3493419.75806   2722148.59409  22376941.08606  22376944.48406
  22928926.53006 -15231346.86106 -11868574.33609  22928794.98706  22928799.03306
  24268633.57106  -4102755.09906  -3196945.33309  24268502.70606  24268509.19006
  21228005.32506 -21748110.22906 -16946567.68009  21227873.64206  21227876.06106
  20565735.89406 -19448578.76406 -15154710.14509  20565604.53306  20565606.86706
 92  8 19  1 57  0.0000000  0  6 23 17 11 12 28 21
  21572530.53106 -12053365.50406  -9392207.74709  21572399.04706  21572401.54906
  22391436.33806   3568902.58406   2780966.33109  22391304.96006  22391308.46706
  22911063.45206 -15325216.40806 -11941719.36009  22910932.10906  22910936.29206
  24257087.60406  -4163427.50006  -3244222.39909  24256956.95706  24256963.44206
  21230059.32406 -21737316.75706 -16938157.21009  21229927.60706  21229930.04206
  20563605.33106 -19459775.24406 -15163434.66609  20563473.91906  20563476.22206
 92  8 19  1 57 30.0000000  0  6 23 17 11 12 28 21
  21581775.96106 -12004780.63506  -9354349.41309  21581644.44006  21581646.94706
  22405838.70406   3644586.84806   2839941.02709  22405707.25906  22405710.77506
  22893253.66106 -15418806.75806 -12014646.82209  22893122.35706  22893126.61706
  24245606.14306  -4223762.99806  -3291236.96609  24245475.58206  24245482.02206
  21232218.22006 -21725971.21106 -16929316.54909  21232086.53306  21232088.94306
  20561507.29906 -19470799.68606 -15172025.13109  20561375.98806  20561378.30306
 92  8 19  1 58  0.0000000  0  6 23 17 11 12 28 21
  21591047.36606 -11956059.04906  -9316384.54309  21590915.89806  21590918.37206
  22420280.34406   3720478.07706   2899076.99509  22420148.89906  22420152.39206
  22875501.56506 -15512093.16406 -12087337.44109  22875370.43006  22875374.74106
  24234193.55306  -4283736.93306  -3337969.77309  24234062.75606  24234069.11406
  21234486.07806 -21714053.10706 -16920029.73509  21234354.37206  21234356.80106
  20559447.63306 -19481623.63906 -15180459.37109  20559316.30706  20559318.63406
 92  8 19  1 58 30.0000000  0  6 23 17 11 12 28 21
  21600344.95406 -11907200.05606  -9278312.59909  21600213.42406  21600215.88406
  22434762.16506   3796581.25206   2958378.11009  22434630.78706  22434634.43106
  22857808.80906 -15605068.83806 -12159785.92709  22857677.60406  22857681.95206
  24222851.14106  -4343342.55806  -3384415.60309  24222720.21506  24222726.55406
  21236865.40806 -21701550.22506 -16910287.24609  21236733.68706  21236736.16306
  20557426.22706 -19492246.20006 -15188736.67809  20557294.87506  20557297.21206
 92  8 19  1 59  0.0000000  0  6 23 17 11 12 28 21
  21609659.87506 -11858249.58106  -9240169.36609  21609528.39406  21609530.86606
  22449281.29406   3872879.17506   3017830.97109  22449149.94506  22449153.55706
  22840172.66606 -15697747.66206 -12232003.10109  22840041.37906  22840045.62906
  24211575.64006  -4402593.74406  -3430585.24409  24211444.90006  24211451.26306
  21239353.57606 -21688474.68706 -16900098.52809  21239221.97506  21239224.43206
  20555438.09306 -19502693.61206 -15196877.50509  20555306.76206  20555309.07806
 92  8 19  1 59 30.0000000  0  6 23 17 11 12 28 21
  21618987.17306 -11809234.72906  -9201975.96809  21618855.63806  21618858.12006
  22463842.19906   3949396.17406   3077454.54309  22463710.70706  22463714.34506
  22822593.99606 -15790125.23406 -12303985.54009  22822462.50806  22822466.65406
  24200368.54406  -4461486.26106  -3476475.39809  24200237.97106  24200244.22906
  21241951.40906 -21674823.19106 -16889461.00609  21241819.69706  21241822.15706
  20553483.94806 -19512962.97806 -15204879.59409  20553352.58806  20553354.88706
 92  8 19  2  0  0.0000000  0  6 23 17 11 12 28 21
  21628324.17406 -11760167.76606  -9163741.96309  21628192.67906  21628195.21306
  22478448.11306   4026150.08606   3137262.72509  22478316.61706  22478320.11706
  22805074.74206 -15882190.10906 -12375724.32309  22804943.19706  22804947.16306
  24189232.30306  -4520008.45306  -3522076.99909  24189101.44106  24189107.79206
  21244662.31106 -21660578.03806 -16878360.89309  21244530.52506  21244532.98906
  20551566.24706 -19523040.42206 -15212732.13109  20551434.88606  20551437.19506
 92  8 19  2  0 30.0000000  0  6 23 17 11 12 28 21
  21637666.82806 -11711071.60706  -9125485.20809  21637535.33806  21637537.86006
  22493100.20806   4103147.21606   3197260.43009  22492968.60706  22492972.17906
  22787615.49706 -15973938.50706 -12447216.50109  22787483.98006  22787487.90206
  24178166.93606  -4578156.86306  -3567387.33309  24178035.99606  24178042.38106
  21247486.24006 -21645737.19806 -16866796.60509  21247354.56006  21247356.97206
  20549684.96906 -19532926.87006 -15220435.84209  20549553.59606  20549555.90106
 92  8 19  2  1  0.0000000  0  6 23 17 11 12 28 21
  21647014.87406 -11661946.90206  -9087206.20609  21646883.46006  21646885.99206
  22507798.52206   4180387.53906   3257447.64009  22507667.09406  22507670.66906
  22770217.30706 -16065366.10106 -12518458.70409  22770085.86706  22770089.69906
  24167173.66906  -4635927.08806  -3612402.97809  24167042.53606  24167049.03406
  21250421.58506 -21630312.39706 -16854777.28209  21250289.90906  21250292.35206
  20547842.15206 -19542610.55306 -15227981.55409  20547710.77306  20547713.09406
 92  8 19  2  1 30.0000000  0  6 23 17 11 12 28 21
  21656371.43606 -11612778.40506  -9048893.08109  21656239.95006  21656242.51406
  22522541.43806   4257862.03506   3317817.32109  22522409.96506  22522413.64806
  22752879.60806 -16156474.68606 -12589452.33209  22752748.30306  22752752.23006
  24156251.64606  -4693321.21806  -3657125.54809  24156120.88006  24156126.97006
  21253464.71706 -21614320.58506 -16842316.13009  21253333.08106  21253335.48206
  20546038.13006 -19552090.88306 -15235368.80709  20545906.73706  20545909.03506
 92  8 19  2  2  0.0000000  0  6 23 17 11 12 28 21
  21665743.20406 -11563529.47206  -9010517.27909  21665611.66006  21665614.17506
  22537330.40106   4335578.29306   3378375.39609  22537198.94606  22537202.60606
  22735608.11706 -16247236.48506 -12660175.73709  22735476.78806  22735480.84606
  24145406.44906  -4750311.40006  -3701533.35709  24145275.91606  24145281.99206
  21256617.54806 -21597752.11406 -16829405.63209  21256485.83506  21256488.29806
  20544277.51106 -19561342.85306 -15242578.11509  20544146.12606  20544148.41606
 92  8 19  2  2 30.0000000  0  6 23 17 11 12 28 21
  21675142.48306 -11514135.85106  -8972028.73109  21675010.99206  21675013.52006
  22552172.13106   4413571.43806   3439149.23509  22552040.56206  22552044.22306
  22718410.70206 -16337608.69406 -12730595.56509  22718279.48306  22718283.53906
  24134646.88006  -4806854.91806  -3745593.12109  24134515.89706  24134522.12106
  21259883.35406 -21580590.41306 -16816032.87309  21259751.58106  21259754.04806
  20542567.56406 -19570328.31906 -15249579.75709  20542436.23006  20542438.49606
 92  8 19  2  3  0.0000000  0  6 23 17 11 12 28 21
  21684582.78506 -11464525.98906  -8933371.68409  21684451.36106  21684453.91006
  22567074.13206   4491882.66106   3500170.93209  22566942.69006  22566946.39406
  22701298.38106 -16427534.34806 -12800667.42909  22701167.12306  22701171.26606
  24123982.84206  -4862895.21306  -3789260.75709  24123851.63406  24123857.81306
  21263271.87006 -21562783.71206 -16802157.51709  21263140.16606  21263142.60506
  20540919.27906 -19578989.91306 -15256329.02809  20540787.89906  20540790.21306
 92  8 19  2  3 30.0000000  0  6 23 17 11 12 28 21
  21694072.08806 -11414659.88706  -8894514.97009  21693940.58506  21693943.05106
  22582041.98206   4570539.33806   3561461.81509  22581910.63606  22581914.30606
  22684280.84606 -16516962.75506 -12870351.82609  22684149.47106  22684153.52306
  24113423.85006  -4918381.58506  -3832496.77709  24113292.82006  24113298.97106
  21266796.19706 -21544263.27406 -16787726.00009  21266664.54206  21266667.01106
  20539339.26306 -19587293.36706 -15262799.22909  20539207.88706  20539210.18606
 92  8 19  2  4  0.0000000  0  6 23 17 11 12 28 21
  21703612.04606 -11364527.20906  -8855450.53809  21703480.53306  21703483.00006
  22597078.12606   4649554.30806   3623031.89309  22596946.67306  22596950.42206
  22667361.38006 -16605875.50106 -12939634.41409  22667229.94906  22667233.91506
  24102973.69206  -4973295.78506  -3875286.93109  24102843.05306  24102849.05206
  21270461.47906 -21525001.36206 -16772716.71009  21270329.79706  21270332.22906
  20537828.84106 -19595230.41106 -15268983.91609  20537697.51406  20537699.76506
 92  8 19  2  4 30.0000000  0  6 23 17 11 12 28 21
  21713200.39206 -11314140.01306  -8816187.78009  21713068.90306  21713071.39306
  22612183.36006   4728932.28006   3684884.83809  22612051.91006  22612055.51406
  22650540.90206 -16694267.72406 -13008511.40009  22650409.39506  22650413.29306
  24092633.71506  -5027632.96206  -3917627.46609  24092502.74906  24092508.90106
  21274271.58706 -21504979.52606 -16757115.27309  21274139.84406  21274142.28206
  20536388.22206 -19602800.63306 -15274882.76709  20536256.90606  20536259.13306
 92  8 19  2  5  0.0000000  0  6 23 17 11 12 28 21
  21722832.94506 -11263520.25106  -8776743.80209  21722701.51106  21722703.99506
  22627356.69406   4808668.81806   3747017.18409  22627225.16206  22627228.88006
  22633818.91306 -16782141.68206 -13076984.54409  22633687.49606  22633691.33006
  24082402.94406  -5081395.80606  -3959520.46309  24082272.09706  24082278.18906
  21278227.05506 -21484193.27706 -16740918.18509  21278095.33406  21278097.76806
  20535015.55006 -19610013.99206 -15280503.54309  20534884.17006  20534886.41606
 92  8 19  2  5 30.0000000  0  6 23 17 12 11 28 21
  21732506.92906 -11212683.38106  -8737130.65109  21732375.46206  21732377.87906
  22642598.13506   4888762.81906   3809428.07309  22642466.63306  22642470.31906
  24072279.28606  -5134595.58306  -4000974.70309  24072148.41006  24072154.32006
  22617193.29306 -16869508.58706 -13145062.58209  22617062.00206  22617065.84306
  21282323.66006 -21462664.42706 -16724142.44709  21282192.03906  21282194.40606
  20533706.07606 -19616895.06606 -15285865.39409  20533574.72806  20533576.93806
 92  8 19  2  6  0.0000000  0  6 23 17 12 11 28 21
  21742218.90806 -11161646.72606  -8697361.82609  21742087.41206  21742089.84206
  22657907.34306   4969213.83806   3872117.15809  22657775.96206  22657779.61606
  24062258.45906  -5187254.46406  -4042007.47809  24062127.62306  24062133.47206
  22600660.31606 -16956390.23806 -13212762.50209  22600528.88406  22600532.79206
  21286551.40706 -21440447.94006 -16706830.89209  21286419.80506  21286422.24406
  20532457.40406 -19623456.33406 -15290978.04409  20532326.11006  20532328.36306
 92  8 19  2  6 30.0000000  0  6 23 17 12 11 28 21
  21751958.06106 -11110466.53906  -8657481.15709  21751826.64906  21751829.07706
  22673276.65906   5049980.10606   3935051.89209  22673145.24606  22673148.93306
  24052331.97506  -5239416.41806  -4082653.03409  24052201.41706  24052207.31206
  22584211.18306 -17042830.63106 -13280118.58509  22584079.82506  22584083.72006
  21290899.79606 -21417597.79106 -16689025.57109  21290768.07806  21290770.50806
  20531262.01306 -19629738.27306 -15295873.03409  20531130.66606  20531132.91306
 92  8 19  2  7  0.0000000  0  6 23 17 12 11 28 21
  21761718.37706 -11059175.75506  -8617514.31009  21761586.94706  21761589.41306
  22688698.56706   5131022.58406   3998201.85109  22688567.14406  22688570.85706
  24042491.76906  -5291127.43606  -4122947.21309  24042361.12906  24042366.90006
  22567837.28306 -17128875.32706 -13347166.33209  22567706.00006  22567709.87306
  21295356.01006 -21394179.11406 -16670777.24209  21295224.35706  21295226.77006
  20530110.76306 -19635788.64406 -15300587.58309  20529979.38806  20529981.62206
 92  8 19  2  7 30.0000000  0  6 23 17 12 11 28 21
  21771492.89706 -11007811.05706  -8577489.87009  21771361.37506  21771363.84306
  22704168.64906   5212317.00206   4061548.12209  22704037.10006  22704040.75506
  24032732.70506  -5342413.05606  -4162909.91709  24032601.60006  24032607.50306
  22551534.05606 -17214549.71006 -13413925.53209  22551402.69206  22551406.50006
  21299915.98406 -21370216.87506 -16652105.35909  21299784.34006  21299786.79406
  20528998.96306 -19641631.12306 -15305140.13609  20528867.55606  20528869.79406
 92  8 19  2  8  0.0000000  0  6 23 17 12 11 28 21
  21781278.07306 -10956389.31606  -8537420.98509  21781146.59006  21781149.03106
  22719682.20806   5293840.72906   4125073.07209  22719550.56006  22719554.23106
  24023051.20206  -5393288.00506  -4202552.61709  24022920.34006  24022926.24006
  22535298.48606 -17299868.06706 -13480407.31109  22535167.12706  22535170.94006
  21304578.21006 -21345717.18406 -16633014.67909  21304446.51906  21304448.95606
  20527924.27106 -19647278.46306 -15309540.63009  20527792.88906  20527795.10006
 92  8 19  2  8 30.0000000  0  6 23 17 12 11 28 21
  21791072.87106 -10904917.13506  -8497312.79709  21790941.43106  21790943.89606
  22735233.69606   5375565.43206   4188754.61909  22735102.19006  22735105.88006
  24013445.64806  -5443763.96306  -4241884.40609  24013315.02306  24013320.84406
  22519128.46606 -17384842.06406 -13546620.75909  22518997.11706  22519000.91606
  21309343.33106 -21320675.53206 -16613501.69209  21309211.63906  21309214.09006
  20526881.52806 -19652757.89706 -15313810.28909  20526750.19606  20526752.39706
 92  8 19  2  9  0.0000000  0  6 23 17 12 11 28 21
  21800877.34906 -10853394.03306  -8457164.93009  21800745.93106  21800748.48006
  22750821.07406   5457477.91506   4252582.48709  22750689.63506  22750693.36906
  24003914.23006  -5493851.89206  -4280913.83609  24003783.55406  24003789.16806
  22503021.93106 -17469482.26606 -13612574.11409  22502890.51306  22502894.28006
  21314209.88106 -21295100.92006 -16593573.41409  21314078.26106  21314080.69306
  20525866.38106 -19658092.42906 -15317967.03409  20525735.07806  20525737.26606
 92  8 19  2  9 30.0000000  0  6 23 17 12 11 28 21
  21810691.68806 -10801820.06406  -8416977.42809  21810560.12406  21810562.65506
  22766441.02506   5539561.58706   4316543.74709  22766309.66706  22766313.38106
  23994456.96806  -5543550.92206  -4319640.23109  23994325.99206  23994331.78406
  22486979.20206 -17553787.48006 -13678266.44009  22486847.77806  22486851.53006
  21319179.86806 -21268983.60906 -16573222.25509  21319048.16606  21319050.58506
  20524877.67206 -19663287.84706 -15322015.37709  20524746.28606  20524748.50406
 92  8 19  2 10  0.0000000  0  6 23 17 12 11 28 21
  21820519.19406 -10750175.73706  -8376735.10309  21820387.72906  21820390.24206
  22782093.51306   5621815.16106   4380637.39709  22781962.10006  22781965.85206
  23985074.04406  -5592857.15206  -4358060.55409  23984943.21906  23984948.96806
  22471000.85006 -17637753.63206 -13743694.56709  22470869.48606  22470873.19006
  21324251.58406 -21242332.42706 -16552455.09409  21324119.94506  21324122.35006
  20523914.64406 -19668348.19606 -15325958.47209  20523783.30806  20523785.52006
 92  8 19  2 10 30.0000000  0  6 23 17 12 11 28 21
  21830358.72906 -10698468.86406  -8336444.04109  21830227.23906  21830229.73606
  22797779.93206   5704247.18506   4444870.10309  22797648.43206  22797652.14406
  23975767.90606  -5641760.73706  -4396167.13309  23975637.09706  23975642.75806
  22455089.06206 -17721370.32106 -13808850.38709  22454957.63706  22454961.43206
  21329424.39806 -21215149.54806 -16531273.62409  21329292.70006  21329295.14706
  20522979.00406 -19673264.82506 -15329789.57909  20522847.69906  20522849.84406
 92  8 19  2 11  0.0000000  0  6 23 17 12 11 28 21
  21840206.82006 -10646716.59406  -8296117.60609  21840075.30106  21840077.85506
  22813499.10306   5786851.74906   4509237.25609  22813367.52806  22813371.28006
  23966538.45006  -5690260.50306  -4433959.05309  23966407.80606  23966413.54006
  22439243.99706 -17804636.11906 -13873732.79009  22439112.69006  22439116.44306
  21334696.51306 -21187443.54906 -16509684.52809  21334564.88406  21334567.28106
  20522071.98706 -19678031.87806 -15333504.13309  20521940.59906  20521942.78006
 92  8 19  2 11 30.0000000  0  6 23 17 12 11 28 21
  21850063.06906 -10594922.04906  -8255758.23109  21849931.58806  21849934.10906
  22829250.56306   5869626.80606   4573737.25309  22829119.09806  22829122.86306
  23957388.59106  -5738343.33906  -4471426.09909  23957257.89706  23957263.58306
  22423468.43006 -17887537.72706 -13938331.41209  22423337.07506  22423340.76706
  21340067.31806 -21159219.56306 -16487691.80709  21339935.67506  21339938.09506
  20521195.39206 -19682638.37006 -15337093.57509  20521063.98006  20521066.14106
 92  8 19  2 12  0.0000000  0  6 23 17 12 11 28 21
  21859927.87006 -10543081.91506  -8215363.33209  21859796.46306  21859798.91506
  22845040.30006   5952601.68706   4638392.95609  22844908.81306  22844912.58306
  23948321.81806  -5785989.75006  -4508553.05909  23948191.08306  23948196.58906
  22407765.92206 -17970055.08306 -14002630.62009  22407634.54006  22407638.23506
  21345539.54006 -21130464.23406 -16465285.05409  21345407.75406  21345410.16006
  20520352.87306 -19687065.59806 -15340543.33309  20520221.49506  20520223.63206
 92  8 19  2 12 30.0000000  0  6 23 17 12 11 28 21
  21869800.05506 -10491202.77806  -8174938.04409  21869668.62606  21869671.16806
  22860868.96306   6035781.97506   4703208.72409  22860737.52006  22860741.35906
  23939340.97706  -5833184.55906  -4545328.12109  23939209.98906  23939215.57606
  22392139.47106 -18052172.90206 -14066618.50109  22392008.04606  22392011.66006
  21351114.48006 -21101167.69406 -16442456.58309  21350982.75906  21350985.12906
  20519547.14906 -19691299.33506 -15343842.32309  20519415.77106  20519417.95506
 92  8 19  2 13  0.0000000  0  6 23 17 12 11 28 21
  21879686.04806 -10439251.92806  -8134456.87409  21879554.62706  21879557.10106
  22876739.26506   6119180.42306   4768194.48709  22876607.74206  22876611.54806
  23930449.79106  -5879908.13806  -4581735.99609  23930318.74506  23930324.21606
  22376592.71206 -18133870.93006 -14130279.27509  22376461.33906  22376465.02606
  21356794.93206 -21071315.61606 -16419195.22509  21356663.28006  21356665.70106
  20518782.28106 -19695318.84406 -15346974.38109  20518650.89706  20518653.07206
 92  8 19  2 13 30.0000000  4  1
 -2356494.0000 -4646608.0000  3668427.0000                  APPROX POSITION XYZ
 92  8 19  2 13 30.0000000  0  6 23 17 12 11 28 21
  21889587.54006 -10387219.85906  -8093912.42109  21889456.00106  21889458.48006
  22892654.20606   6202813.15906   4833362.81509  22892522.60706  22892526.37706
  23921650.07706  -5926148.85606  -4617767.62309  23921519.32206  23921524.85806
  22361128.20006 -18215137.21906 -14193603.62809  22360996.81006  22361000.58006
  21362581.26806 -21040907.67306 -16395500.72709  21362449.72606  21362452.13306
  20518059.07306 -19699118.93006 -15349935.46209  20517927.73006  20517929.86506
 92  8 19  2 14  0.0000000  0  6 23 17 12 11 28 21
  21899510.01906 -10335076.57706  -8053281.30709  21899378.56706  21899381.01506
  22908618.42306   6286707.10106   4898734.68509  22908487.03006  22908490.88306
  23912948.14406  -5971879.10406  -4653401.48309  23912816.97106  23912822.65406
  22345751.25606 -18295943.76106 -14256569.73809  22345619.85406  22345623.56006
  21368478.45406 -21009918.24106 -16371353.12109  21368346.79906  21368349.23806
  20517382.28206 -19702675.50406 -15352706.79709  20517250.91406  20517253.03706
 92  8 19  2 14 30.0000000  0  6 23 17 12 11 28 21
  21909462.24206 -10282777.31406  -8012528.64709  21909330.77106  21909333.28106
  22924636.35206   6370881.55806   4964325.14309  22924504.92006  22924508.79206
  23904350.26606  -6017060.06606  -4688607.33209  23904219.42006  23904224.90806
  22330469.19606 -18376251.31406 -14319147.02409  22330337.79906  22330341.56506
  21374491.86006 -20978318.78206 -16346730.17409  21374360.09906  21374362.48706
  20516758.60206 -19705952.96206 -15355260.64109  20516627.20706  20516629.33106
 92  8 19  2 15  0.0000000  0  6 23 17 12 11 28 21
  21919452.50306 -10230278.34506  -7971620.37509  21919320.97006  21919323.53406
  22940715.22106   6455376.74106   5030165.51909  22940583.73306  22940587.73006
  23895864.23506  -6061652.86506  -4723354.87709  23895733.56206  23895739.05506
  22315289.67206 -18456020.52306 -14381304.82509  22315158.24406  22315161.87206
  21380630.09106 -20946062.51906 -16321595.43309  21380498.30706  21380500.72606
  20516194.72106 -19708915.91006 -15357569.41409  20516063.37406  20516065.49206
 92  8 19  2 15 30.0000000  0  6 23 17 12 11 28 21
  21929483.04606 -10177567.96206  -7930547.36609  21929351.44506  21929353.95906
  22956861.50906   6540224.62606   5096280.72809  22956729.96106  22956733.84006
  23887497.04106  -6105624.26306  -4757618.21109  23887365.93406  23887371.43006
  22300218.89906 -18535217.76706 -14443016.93809  22300087.51306  22300091.15506
  21386898.44306 -20913121.29606 -16295926.95809  21386766.77306  21386769.16406
  20515695.86206 -19711537.38106 -15359612.10009  20515564.54106  20515566.65306
 92  8 19  2 16  0.0000000  0  6 23 17 12 11 28 21
  21939557.87506 -10124624.27206  -7889292.55709  21939426.36206  21939428.86506
  22973076.91606   6625438.07406   5162680.79209  22972945.49206  22972949.34106
  23879251.70106  -6148952.79506  -4791380.61409  23879120.73506  23879126.31006
  22285261.04706 -18613821.05306 -14504266.22609  22285129.73306  22285133.41006
  21393302.58706 -20879465.94006 -16269702.01609  21393170.95006  21393173.35306
  20515265.84106 -19713797.36806 -15361373.11109  20515134.48906  20515136.64206
 92  8 19  2 16 30.0000000  0  6 23 17 12 11 28 21
  21949678.64906 -10071438.02606  -7847848.74609  21949547.30306  21949549.82706
  22989365.03206   6711032.50806   5229377.72209  22989233.56406  22989237.55306
  23871131.21306  -6191625.60706  -4824632.06609  23871000.39106  23871005.87306
  22270418.79706 -18691817.21006 -14565042.42709  22270287.51606  22270291.12906
  21399846.34406 -20845079.18206 -16242907.15509  21399714.68006  21399717.07306
  20514910.01806 -19715666.90206 -15362829.87509  20514778.66606  20514780.81306
 92  8 19  2 17  0.0000000  0  6 23 17 12 11 28 21
  21959843.63806 -10018021.04106  -7806225.13709  21959712.22406  21959714.79606
  23005725.64006   6797009.24406   5296372.54409  23005594.42406  23005598.33606
  23863134.43206  -6233647.75006  -4857376.50809  23863003.69206  23863009.21406
  22255691.36106 -18769210.67506 -14625348.99709  22255560.01706  22255563.66706
  21406527.19706 -20809971.47706 -16215550.51909  21406395.48206  21406397.88606
  20514626.90306 -19717154.52106 -15363989.04609  20514495.60106  20514497.67906
 92  8 19  2 17 30.0000000  0  6 23 17 12 11 28 21
  21970050.97906  -9964381.82506  -7764428.36309  21969919.50606  21969922.07506
  23022154.01306   6883339.81506   5363643.08809  23022022.51406  23022026.50106
  23855258.61206  -6275036.45806  -4889627.37209  23855127.68106  23855133.01006
  22241075.44806 -18846018.41906 -14685199.15909  22240943.97706  22240947.62706
  21413339.32406 -20774173.46306 -16187655.98009  21413207.62806  21413210.06106
  20514411.34706 -19718287.11406 -15364871.57509  20514280.01806  20514282.11506
 92  8 19  2 18  0.0000000  0  6 23 17 12 11 28 21
  21980299.78706  -9910524.52306  -7722461.65009  21980168.26706  21980170.82606
  23038642.65006   6969988.29406   5431161.35409  23038511.25906  23038515.18006
  23847498.70006  -6315814.37106  -4921402.27609  23847367.85806  23847373.25906
  22226566.63106 -18922262.35806 -14744609.99109  22226435.24406  22226438.89606
  21420278.85106 -20737706.00506 -16159239.79809  21420147.15306  21420149.56406
  20514258.36106 -19719091.10606 -15365498.05009  20514127.02806  20514129.12406
 92  8 19  2 18 30.0000000  0  6 23 17 12 11 28 21
  21990579.05106  -9856505.80106  -7680369.15809  21990447.62006  21990450.16606
  23055183.38906   7056909.80606   5498892.36909  23055051.96206  23055055.87606
  23839844.96006  -6356034.02006  -4952742.17509  23839714.21506  23839719.56106
  22212155.23406 -18997994.43206 -14803621.96609  22212023.84806  22212027.50106
  21427333.69106 -20700632.40206 -16130351.29509  21427202.06106  21427204.52506
  20514155.69206 -19719630.76806 -15365918.55309  20514024.36106  20514026.45506
 92  8 19  2 19  0.0000000  0  6 23 17 12 11 28 21
  22000878.83206  -9802379.87106  -7638193.12409  22000747.42206  22000750.00306
  23071767.22806   7144058.58106   5566800.46909  23071635.85606  23071639.82806
  23832289.11506  -6395739.69406  -4983681.56809  23832158.40406  23832163.76606
  22197832.76306 -19073258.53106 -14862269.28609  22197701.49906  22197705.18406
  21434492.35006 -20663013.50006 -16101037.88809  21434360.70706  21434363.15606
  20514088.15206 -19719985.52106 -15366194.97209  20513956.82106  20513958.97006
 92  8 19  2 19 30.0000000  0  6 23 17 12 11 28 21
  22011190.91706  -9748190.53106  -7595967.68109  22011059.39906  22011061.96806
  23088387.49806   7231398.54206   5634857.54609  23088256.08906  23088260.02106
  23824825.38206  -6434962.27506  -5014244.53509  23824694.57606  23824699.80706
  22183593.76706 -19148085.00506 -14920575.59709  22183462.47906  22183466.17806
  21441749.19306 -20624878.76206 -16071322.53009  21441617.50006  21441619.92906
  20514048.14306 -19720195.74106 -15366358.76809  20513916.80706  20513918.90906
 92  8 19  2 20  0.0000000  0  6 23 17 12 11 28 21
  22021510.80606  -9693959.49006  -7553709.74709  22021379.28606  22021381.79106
  23105044.75506   7318932.67506   5703065.92809  23104913.31706  23104917.28506
  23817452.63306  -6473706.27106  -5044434.58409  23817321.71206  23817327.05006
  22169437.30506 -19222477.97206 -14978544.10909  22169305.95006  22169309.59506
  21449101.85306 -20586240.53306 -16041214.84509  21448970.14606  21448972.57906
  20514035.42406 -19720262.53506 -15366410.80409  20513904.09006  20513906.18606
 92  8 19  2 20 30.0000000  0  6 23 17 12 11 28 21
  22031836.65506  -9639695.95806  -7511426.49409  22031705.23706  22031707.76306
  23121742.86906   7406682.24806   5771442.17809  23121611.55806  23121615.56506
  23810172.79706  -6511961.42806  -5074243.71109  23810041.93706  23810047.27606
  22155365.40506 -19296426.58906 -15036166.37709  22155234.03506  22155237.67106
  21456549.99606 -20547100.94706 -16010716.49109  21456418.28906  21456420.74906
  20514052.49306 -19720172.90706 -15366340.95409  20513921.15406  20513923.21306
 92  8 19  2 21  0.0000000  0  6 23 17 12 11 28 21
  22042168.18606  -9585403.35706  -7469120.58909  22042036.84706  22042039.35906
  23138478.49106   7494628.71906   5839971.85309  23138347.09206  23138351.09706
  23802986.29706  -6549728.25606  -5103672.32409  23802855.14906  23802860.35206
  22141378.04006 -19369930.52106 -15093442.13509  22141246.65506  22141250.31606
  21464094.75406 -20507452.77506 -15979821.83709  21463963.10206  21463965.57606
  20514103.09006 -19719906.88606 -15366133.65509  20513971.74406  20513973.84006
 92  8 19  2 21 30.0000000  0  6 23 17 12 11 28 21
  22052508.09706  -9531066.94606  -7426780.54709  22052376.74706  22052379.26106
  23155248.90006   7582757.11906   5908643.28509  23155117.59306  23155121.59406
  23795891.06406  -6587011.74106  -5132724.30409  23795760.23106  23795765.43706
  22127474.45806 -19442994.18506 -15150374.82909  22127343.09406  22127346.67406
  21471737.90406 -20467287.42706 -15948524.19009  21471606.31006  21471608.74206
  20514191.81706 -19719440.11406 -15365769.92509  20514060.53606  20514062.63006
 92  8 19  2 22  0.0000000  0  6 23 17 12 11 28 21
  22062857.62706  -9476679.90406  -7384401.05209  22062726.20406  22062728.79106
  23172055.50006   7671076.02206   5977463.16809  23171924.13406  23171928.08906
  23788888.05206  -6623812.24006  -5161399.93709  23788757.40406  23788762.46106
  22113654.54606 -19515617.43306 -15206964.34209  22113523.27206  22113526.95706
  21479478.89106 -20426608.37306 -15916826.25309  21479347.29806  21479349.73306
  20514321.54206 -19718758.32906 -15365238.65709  20514190.24606  20514192.37306
 92  8 19  2 22 30.0000000  0  6 23 17 12 11 28 21
  22073214.97606  -9422252.08906  -7341989.78609  22073083.48506  22073086.07306
  23188895.26206   7759570.02106   6046419.49709  23188763.98706  23188767.95406
  23781975.34406  -6660138.33106  -5189705.90109  23781844.58306  23781849.80306
  22099917.11206 -19587808.26206 -15263216.90409  22099785.79406  22099789.40806
  21487315.86806 -20385425.51806 -15884735.74409  21487184.19406  21487186.65706
  20514489.58406 -19717875.69706 -15364550.88109  20514358.25106  20514360.35206
 92  8 19  2 23  0.0000000  0  7 23 17 12 11 28 25 21
  22083581.70706  -9367774.79006  -7299539.96009  22083450.23706  22083452.72706
  23205765.94306   7848225.80506   6115501.88809  23205634.55406  23205638.60206
  23775152.38306  -6695992.13406  -5217643.84509  23775021.78606  23775027.00606
  22086261.65106 -19659568.32606 -15319133.80709  22086130.26406  22086133.91806
  21495248.84306 -20343737.21506 -15852251.37909  21495117.09606  21495119.62206
  25573281.10616        -0.43216        -0.48819  25573150.30616  25573158.74916
  20514690.40406 -19716820.40906 -15363728.56909  20514559.05506  20514561.14606
 92  8 19  2 23 30.0000000  0  7 23 17 12 11 28 25 21
  22093956.72906  -9313254.26906  -7257056.45409  22093825.24206  22093827.76406
  23222668.04306   7937045.77706   6184712.21609  23222536.52706  23222540.50506
  23768420.35706  -6731369.95906  -5245210.90109  23768289.62306  23768294.75106
  22072689.08506 -19730893.08206 -15374711.51109  22072557.67206  22072561.27406
  21503274.61006 -20301561.57406 -15819387.27109  21503142.91006  21503145.40006
  25555256.10806    -94723.24306    -73810.01709  25555124.84506  25555133.08306
  20514919.46106 -19715616.46906 -15362790.42709  20514788.12706  20514790.24806
 92  8 19  2 24  0.0000000  0  7 23 17 12 11 28 25 21
  22104337.06406  -9258705.12806  -7214550.64809  22104205.57406  22104208.09606
  23239603.16706   8026040.38006   6254058.62909  23239471.65206  23239475.70506
  23761781.86006  -6766255.41406  -5272394.29909  23761651.00406  23761656.22106
  22059202.45406 -19801765.67206 -15429936.87709  22059071.07406  22059074.62106
  21511391.92606 -20258905.10806 -15786148.49209  21511260.32906  21511262.86706
  25537179.87506   -189715.24406   -147829.30109  25537048.08206  25537056.91506
  20515175.48506 -19714270.80906 -15361741.85209  20515044.15906  20515046.20606
 92  8 19  2 24 30.0000000  0  7 23 17 12 11 28 25 21
  22114726.49806  -9204108.08306  -7172007.51209  22114594.96006  22114597.64106
  23256570.74006   8115205.34606   6323537.79409  23256439.18606  23256443.28206
  23755240.93806  -6800628.06106  -5299178.10709  23755110.11706  23755115.16606
  22045805.80106 -19872164.75006 -15484793.27309  22045674.50906  22045678.05706
  21519601.69706 -20215761.85406 -15752530.39809  21519470.15106  21519472.66306
  25519057.55106   -284946.35706   -222034.90509  25518925.99306  25518934.31306
  20515459.33606 -19712779.28906 -15360579.62009  20515328.00406  20515330.09506
 92  8 19  2 25  0.0000000  0  7 23 17 12 11 28 25 21
  22125126.16606  -9149457.51506  -7129422.66609  22124994.75606  22124997.30906
  23273569.55406   8204534.30506   6393144.74709  23273437.99806  23273442.01306
  23748798.50206  -6834481.65806  -5325557.45909  23748667.88406  23748673.00906
  22032500.58306 -19942083.64806 -15539275.50209  22032369.35606  22032372.91206
  21527905.65806 -20172124.40706 -15718527.22009  21527774.00506  21527776.54206
  25500891.50906   -380407.87206   -296420.05509  25500759.90806  25500768.14506
  20515773.44206 -19711128.59306 -15359293.35409  20515642.13506  20515644.22806
 92  8 19  2 25 30.0000000  0  7 23 17 12 11 28 25 21
  22135538.95206  -9094737.46006  -7086783.67109  22135407.54606  22135410.14906
  23290604.92406   8294056.71806   6462902.44309  23290473.52106  23290477.52506
  23742460.19706  -6867790.53206  -5351512.35709  23742329.37706  23742334.42506
  22019291.91706 -20011495.93506 -15593362.96909  22019160.61906  22019164.15906
  21536306.12206 -20127980.13806 -15684129.11509  21536174.38606  21536176.90406
  25482685.75206   -476076.06906   -370966.25409  25482554.40606  25482562.67406
  20516129.10306 -19709259.61906 -15357837.00209  20515997.76806  20515999.88106
 92  8 19  2 26  0.0000000  0  7 23 17 12 11 28 25 21
  22145974.37906  -9039898.85106  -7044052.29609  22145842.92406  22145845.50406
  23307684.57006   8383810.67006   6532840.56009  23307553.20806  23307557.15906
  23736232.29206  -6900518.65306  -5377014.72409  23736101.33806  23736106.37006
  22006186.58006 -20080365.00606 -15647027.14809  22006055.25406  22006058.84306
  21544809.73406 -20083293.61306 -15649308.47409  21544678.09206  21544680.57606
  25464448.08006   -571912.77206   -445643.76909  25464316.85806  25464325.10706
  20516535.45706 -19707124.15206 -15356172.99209  20516404.13306  20516406.23606
 92  8 19  2 26 30.0000000  0  7 23 17 12 11 28 25 21
  22156443.41706  -8984883.00206  -7001182.81009  22156312.04106  22156314.66906
  23324816.40806   8473839.37706   6602992.77009  23324685.04306  23324689.11506
  23730122.51006  -6932626.26206  -5402033.56909  23729991.54206  23729996.39906
  21993192.46106 -20148650.12606 -15700236.30109  21993061.02506  21993064.54806
  21553426.35006 -20038013.85006 -15614025.56809  21553294.70806  21553297.18606
  25446184.13106   -667886.12906   -520427.76409  25446053.47106  25446061.44506
  20517000.22006 -19704681.47206 -15354269.59609  20516868.92306  20516870.98406
 92  8 19  2 27  0.0000000  0  7 23 17 12 11 28 25 21
  22166952.58706  -8929657.18406  -6958149.70709  22166821.19406  22166823.80206
  23342009.26306   8564187.39106   6673393.78809  23341877.71306  23341881.76306
  23724137.86306  -6964073.91606  -5426538.17909  23724007.20706  23724012.20906
  21980316.84806 -20216311.40606 -15752959.34209  21980185.46806  21980189.00206
  21562165.92406 -19992087.51506 -15578238.84009  21562034.21506  21562036.79006
  25427903.28806   -763949.58406   -595281.94609  25427772.73706  25427780.65006
  20517531.05106 -19701892.46706 -15352096.33709  20517399.72806  20517401.76806
 92  8 19  2 27 30.0000000  0  7 23 17 12 11 28 25 21
  22177505.21106  -8874203.47906  -6914939.02509  22177373.77806  22177376.35606
  23359268.93806   8654886.91706   6744068.71409  23359137.42606  23359141.52006
  23718284.02406  -6994835.64706  -5450508.29809  23718153.34806  23718158.29506
  21967565.05106 -20283322.01506 -15805175.36409  21967433.70806  21967437.24106
  21571030.94106 -19945501.40106 -15541937.99909  21570899.27606  21570901.86306
  25409614.55106   -860055.72506   -670169.40209  25409484.03206  25409491.99406
  20518129.31406 -19698748.19206 -15349646.24609  20517998.00106  20518000.08706
 92  8 19  2 28  0.0000000  0  7 23 17 12 11 28 25 21
  22188103.31606  -8818510.17306  -6871541.63609  22187971.87606  22187974.40606
  23376596.91206   8745947.66606   6815025.10509  23376465.80606  23376469.83706
  23712562.97906  -7024900.10006  -5473935.08409  23712432.14006  23712437.17906
  21954939.34606 -20349670.11606 -15856875.14309  21954808.04506  21954811.60106
  21580024.40106 -19898239.85906 -15505110.84709  21579892.77806  21579895.34206
  25391322.33406   -956180.22306   -745071.18909  25391192.00406  25391199.60106
  20518791.29006 -19695269.57306 -15346935.62709  20518659.96106  20518662.03406
 92  8 19  2 28 30.0000000  0  7 23 17 12 11 28 25 21
  22198744.15606  -8762591.97706  -6827969.01009  22198612.75706  22198615.31306
  23393993.24506   8837364.23506   6886258.75809  23393861.78306  23393865.93906
  23706975.61306  -7054262.79006  -5496815.04409  23706844.67106  23706849.53306
  21942440.77206 -20415350.36806 -15908054.51609  21942309.48206  21942313.02806
  21589147.66506 -19850296.39506 -15467752.33009  21589015.97406  21589018.52506
  25373030.28306  -1052308.18506   -819975.69509  25372899.19406  25372906.39306
  20519516.65306 -19691457.65206 -15343965.29109  20519385.33306  20519387.40806
 92  8 19  2 29  0.0000000  0  7 23 17 12 11 28 25 21
  22209423.85206  -8706470.05506  -6784237.63309  22209292.36306  22209294.94706
  23411454.19606   8929121.31006   6957757.75009  23411322.61406  23411326.74606
  23701520.85406  -7082926.45406  -5519150.30709  23701390.16906  23701394.97406
  21930069.03506 -20480364.70706 -15958714.99409  21929937.65206  21929941.10806
  21598397.15006 -19801690.48406 -15429877.62109  21598265.45006  21598267.98206
  25354736.28206  -1148444.10706   -894886.40809  25354604.88706  25354611.92606
  20520306.74706 -19687305.77606 -15340730.05709  20520175.40806  20520177.50906
 92  8 19  2 29 30.0000000  0  7 23 17 12 11 25 28 21
  22220137.96106  -8650166.96506  -6740365.08609  22220006.42506  22220009.06706
  23428976.83306   9021203.86606   7029510.35809  23428845.37406  23428849.44206
  23696195.61106  -7110909.47206  -5540955.19509  23696064.99906  23696069.98606
  21917820.52406 -20544730.76106 -16008870.31109  21917689.13706  21917692.62006
  25336431.96906  -1244630.98406   -969836.84509  25336300.76006  25336307.98206
  21607764.66906 -19752464.15106 -15391519.46609  21607632.99506  21607635.57006
  20521158.67006 -19682829.06006 -15337241.70009  20521027.35906  20521029.39906
 92  8 19  2 30  0.0000000  0  7 23 17 12 11 25 28 21
  22230878.83206  -8593722.99106  -6696382.75709  22230747.34306  22230749.95906
  23446550.96106   9113557.29206   7101474.02209  23446419.49606  23446423.74006
  23690992.05606  -7138254.15206  -5562262.67409  23690861.46506  23690866.35706
  21905687.42106 -20608490.13806 -16058552.88809  21905556.13706  21905559.57406
  25318105.44406  -1340936.60406  -1044879.82209  25317973.98006  25317981.25406
  21617240.68806 -19702666.85706 -15352716.40209  21617109.09106  21617111.68606
  20522065.44706 -19678063.78006 -15333528.48909  20521934.09306  20521936.17906
 92  8 19  2 30 30.0000000  0  7 23 17 12 11 25 28 21
  22241635.38706  -8537197.20806  -6652336.68009  22241503.87106  22241506.50106
  23464163.23606   9206110.39306   7173593.27309  23464031.84406  23464035.93806
  23685900.29206  -7165012.55106  -5583113.32109  23685769.48806  23685774.41406
  21893660.01806 -20671693.88906 -16107802.50609  21893528.76506  21893532.28106
  25299744.15806  -1437425.19006  -1120065.38009  25299612.37706  25299619.64406
  21626813.55606 -19652361.04706 -15313517.08809  21626681.94806  21626684.58706
  20523020.96406 -19673042.59406 -15329615.87309  20522889.62906  20522891.72706
 92  8 19  2 31  0.0000000  0  7 23 17 12 11 25 28 21
  22252403.13106  -8480612.08506  -6608244.36109  22252271.62206  22252274.20306
  23481808.24206   9298835.01906   7245846.18609  23481676.72806  23481680.88506
  23680911.72206  -7191226.77406  -5603539.92709  23680781.04506  23680785.84306
  21881730.62206 -20734383.56306 -16156651.54009  21881599.30806  21881602.73906
  25281337.63806  -1534146.12406  -1195431.98309  25281206.96506  25281214.18906
  21636473.14006 -19601600.67906 -15273963.57209  21636341.40806  21636344.03706
  20524016.15606 -19667812.47306 -15325540.45009  20523884.88706  20523886.94006
 92  8 19  2 31 30.0000000  0  7 23 17 12 11 25 28 21
  22263181.82806  -8423969.46406  -6564107.24009  22263050.36806  22263052.97506
  23499483.86706   9391721.47906   7318225.21309  23499352.55006  23499356.63106
  23676024.51606  -7216911.09006  -5623553.62409  23675893.42406  23675898.29406
  21869896.47906 -20796572.63106 -16205110.48709  21869765.05906  21869768.56306
  25262887.64606  -1631101.04206  -1270980.92009  25262756.70506  25262763.88206
  21646215.38906 -19550404.68706 -15234070.60809  21646083.65306  21646086.21806
  20525045.14006 -19662405.35206 -15321327.10309  20524913.81906  20524915.88506
 92  8 19  2 32  0.0000000  0  7 23 17 12 11 25 28 21
  22273971.68906  -8367267.78106  -6519924.09609  22273840.29506  22273842.93006
  23517185.77806   9484744.93806   7390710.99609  23517054.38206  23517058.55406
  23671235.57506  -7242074.29406  -5643161.25109  23671105.09506  23671109.87906
  21858155.92306 -20858268.96406 -16253185.48309  21858024.58406  21858028.01406
  25244395.77706  -1728275.42906  -1346700.87009  25244264.61306  25244271.97606
  21656038.61606 -19498782.46906 -15193845.51809  21655906.94906  21655909.52806
  20526106.37006 -19656828.71106 -15316981.66009  20525975.02106  20525977.08006
 92  8 19  2 32 30.0000000  0  7 23 17 12 11 25 28 21
  22284774.71306  -8310497.09506  -6475687.18009  22284643.38806  22284646.03506
  23534916.01106   9577917.65806   7463313.07909  23534784.50906  23534788.79106
  23666546.62406  -7266715.49206  -5662362.12209  23666415.89006  23666420.72106
  21846509.52306 -20919470.79206 -16300875.14709  21846378.20406  21846381.58406
  25225864.75406  -1825655.75706  -1422581.29909  25225733.46306  25225740.75206
  21665943.64406 -19446731.26606 -15153286.15009  21665812.07806  21665814.69406
  20527198.87606 -19651086.95306 -15312507.55409  20527067.55506  20527069.59206
 92  8 19  2 33  0.0000000  0  7 23 17 12 11 25 28 21
  22295591.24506  -8253655.94106  -6431395.35609  22295459.88206  22295462.49406
  23552676.24206   9671249.13906   7536038.87909  23552544.87606  23552549.14006
  23661958.59206  -7290825.73506  -5681149.25809  23661827.86906  23661832.65606
  21834959.05606 -20980168.64606 -16348172.10109  21834827.74506  21834831.11006
  25207299.42306  -1923219.20806  -1498604.42709  25207167.69106  25207174.78206
  21675933.04006 -19394236.39606 -15112381.06309  21675801.45206  21675804.06406
  20528321.11006 -19645189.96406 -15307912.48309  20528189.78506  20528191.83906
 92  8 19  2 33 30.0000000  0  7 23 17 12 11 25 28 21
  22306415.22006  -8196776.46906  -6387073.67509  22306283.72106  22306286.31206
  23570461.16506   9764708.86606   7608864.60409  23570329.75706  23570333.95106
  23657469.77906  -7314414.25006  -5699529.85909  23657339.04306  23657343.79006
  21823502.94106 -21040370.65706 -16395082.68309  21823371.63406  21823374.95206
  25188697.58006  -2020972.56606  -1574775.54209  25188565.74306  25188572.24906
  21686007.30706 -19341296.92806 -15071129.53409  21685875.59906  21685878.21606
  20529472.01306 -19639141.73306 -15303199.56109  20529340.70806  20529342.73106
 92  8 19  2 34  0.0000000  0  7 23 17 12 25 11 28 21
  22317243.69506  -8139871.41606  -6342732.05909  22317112.43906  22317115.00606
  23588271.56806   9858303.30506   7681795.30109  23588140.22506  23588144.41506
  23653080.84406  -7337479.49306  -5717502.72009  23652949.77406  23652954.50706
  25170058.68606  -2118916.29506  -1651094.99309  25169927.40706  25169933.93506
  21812141.64106 -21100074.64406 -16441605.19309  21812010.25106  21812013.66206
  21696167.56606 -19287903.81406 -15029524.51409  21696035.81406  21696038.48006
  20530654.50606 -19632927.45606 -15298357.25209  20530523.18906  20530525.26706
 92  8 19  2 34 30.0000000  0  7 23 17 12 11 25 28 21
  22328074.05206  -8082957.93006  -6298383.87309  22327942.64306  22327945.26406
  23606111.03606   9952048.60706   7754843.56509  23605979.52406  23605983.54906
  23648791.22706  -7360020.05706  -5735066.73309  23648660.49006  23648665.20106
  21800875.54106 -21159278.19406 -16487737.75509  21800744.15006  21800747.50206
  25151383.70506  -2217052.78306  -1727564.64409  25151252.52106  25151258.67506
  21706417.02806 -19234042.39106 -14987554.57509  21706285.33106  21706287.94506
  20531867.10106 -19626555.12106 -15293391.78009  20531735.77206  20531737.83306
 92  8 19  2 35  0.0000000  0  7 23 17 12 25 11 28 21
  22338904.74106  -8026042.42006  -6254034.11209  22338773.30906  22338775.94606
  23623980.38706  10045952.50306   7828015.41109  23623848.83906  23623852.87506
  23644605.11006  -7382018.67006  -5752208.44809  23644474.21006  23644478.90706
  25132675.92406  -2315361.64706  -1804168.61409  25132544.68306  25132550.80006
  21789708.07706 -21217963.15606 -16533466.22409  21789576.73706  21789580.00006
  21716759.02006 -19179693.83806 -14945205.05309  21716627.50506  21716630.15106
  20533113.24506 -19620006.95206 -15288289.29109  20532981.92306  20532983.96506
 92  8 19  2 35 30.0000000  0  7 23 17 12 25 11 28 21
  22349739.44206  -7969105.43806  -6209667.62009  22349608.03006  22349610.61206
  23641883.62506  10140035.19606   7901326.56409  23641752.12406  23641756.25506
  23640523.10306  -7403469.59106  -5768923.38909  23640392.26906  23640396.95006
  25113934.12406  -2413848.96506  -1880911.64609  25113802.94306  25113809.10206
  21778640.50206 -21276123.02306 -16578785.53109  21778509.20806  21778512.48906
  21727192.26006 -19124867.88506 -14902483.53009  21727060.65306  21727063.22406
  20534394.28806 -19613274.70006 -15283043.35809  20534262.97806  20534265.01606
 92  8 19  2 36  0.0000000  0  7 23 17 12 25 11 28 21
  22360581.86106  -7912127.32906  -6165269.08309  22360450.61106  22360453.18306
  23659825.30006  10234319.75306   7974795.01309  23659693.83706  23659698.10706
  23636547.31406  -7424361.40106  -5785202.65909  23636416.56506  23636421.20106
  25095161.37006  -2512499.70006  -1957782.02509  25095029.91906  25095036.22306
  21767675.33506 -21333745.42206 -16623686.03709  21767544.01206  21767547.29006
  21737715.47006 -19069568.00406 -14859392.71109  21737583.80206  21737586.45606
  20535710.52406 -19606357.59306 -15277653.37909  20535579.21906  20535581.24606
 92  8 19  2 36 30.0000000  0  7 23 17 12 25 11 28 21
  22371433.97006  -7855099.63306  -6120831.90409  22371302.55906  22371305.13706
  23677801.39506  10328784.80006   8048404.10909  23677669.97806  23677674.32306
  23632677.20606  -7444698.62506  -5801049.78909  23632546.56106  23632551.15206
  25076353.89906  -2611332.41206  -2034794.22309  25076222.42306  25076228.76106
  21756811.64706 -21390834.05506 -16668170.62609  21756680.32406  21756683.58306
  21748325.49506 -19013812.54106 -14815946.89409  21748193.81806  21748196.44206
  20537058.56406 -19599273.80906 -15272133.51909  20536927.20206  20536929.19206
 92  8 19  2 37  0.0000000  0  7 23 17 12 25 11 28 21
  22382301.12006  -7797992.85006  -6076333.10309  22382169.69906  22382172.27606
  23695811.20106  10423428.04706   8122152.06609  23695679.96006  23695684.28006
  23628915.15206  -7464469.13406  -5816455.32209  23628784.25806  23628788.91706
  25057512.79006  -2710341.76706  -2111944.07609  25057381.29706  25057387.63106
  21746052.11506 -21447375.79706 -16712229.07209  21745920.74706  21745924.02706
  21759020.25706 -18957610.69506 -14772153.24909  21758888.53506  21758891.15306
  20538440.45006 -19592011.50506 -15266474.55309  20538309.13706  20538311.15606
 92  8 19  2 37 30.0000000  0  7 23 17 12 25 11 28 21
  22393190.01206  -7740771.43906  -6031744.98509  22393058.52906  22393061.12506
  23713857.94006  10518262.76006   8196049.21909  23713726.52906  23713730.83106
  23625264.81806  -7483651.95506  -5831402.91109  23625133.82506  23625138.30806
  25038638.99806  -2809521.36206  -2189226.59509  25038507.81306  25038514.11406
  21735400.74606 -21503349.03606 -16755844.53409  21735269.35506  21735272.63006
  21769799.46406 -18900965.65706 -14728014.25909  21769667.81406  21769670.44606
  20539861.77706 -19584542.07906 -15260654.19509  20539730.47006  20539732.49406
 92  8 19  2 38  0.0000000  0  7 23 17 25 12 11 28 21
  22404103.72506  -7683418.99306  -5987054.76109  22403972.27706  22403974.87606
  23731942.25606  10613295.55506   8270100.71809  23731810.64306  23731814.91906
  25019736.66406  -2908850.64106  -2266625.77509  25019605.73106  25019611.97806
  23621731.12706  -7502218.96206  -5845870.65109  23621600.57906  23621605.24606
  21724863.04606 -21558724.37306 -16798994.10509  21724731.73706  21724734.99406
  21780666.59606 -18843858.84706 -14683515.44809  21780534.92206  21780537.51006
  20541327.75606 -19576838.95606 -15254651.73409  20541196.42006  20541198.42706
 92  8 19  2 38 30.0000000  0  7 23 17 25 12 11 28 21
  22415048.31606  -7625905.18306  -5942238.80309  22414916.87106  22414919.38606
  23750068.78506  10708551.81106   8344326.34709  23749937.39706  23749941.65706
  25000812.57406  -3008298.21106  -2344117.14309  25000681.44206  25000687.70406
  23618323.35606  -7520129.70706  -5859827.01109  23618192.27006  23618196.78206
  21714447.05906 -21613460.65706 -16841645.71909  21714315.72206  21714319.01806
  21791628.83706 -18786251.52506 -14638626.63109  21791497.25606  21791499.89006
  20542844.74406 -19568866.62606 -15248439.50209  20542713.42506  20542715.44506
 92  8 19  2 39  0.0000000  0  7 23 17 25 12 11 28 21
  22426027.37806  -7568210.10406  -5897281.59709  22425895.82806  22425898.44306
  23768246.20906  10804074.41606   8418759.51809  23768114.66606  23768119.02706
  24981875.20306  -3107813.64006  -2421661.39709  24981744.26906  24981750.31206
  23615046.97806  -7537345.32706  -5873241.71209  23614916.16106  23614920.69606
  21704160.31606 -21667517.92706 -16883768.23709  21704028.96306  21704032.18706
  21802693.14706 -18728108.25006 -14593320.19009  21802561.54906  21802564.13406
  20544421.48106 -19560580.83506 -15241983.01609  20544290.15106  20544292.14506
 92  8 19  2 39 30.0000000  0  7 23 17 12 25 11 28 21
  22437044.64606  -7510313.97106  -5852167.72609  22436913.08306  22436915.63806
  23786479.59906  10899891.61206   8493422.23209  23786348.15406  23786352.28906
  23611908.76506  -7553835.71806  -5886091.30409  23611778.02806  23611782.69006
  24962933.63406  -3207353.37706  -2499224.60109  24962802.45806  24962808.31806
  21694008.60906 -21720865.28806 -16925337.58809  21693877.31506  21693880.52706
  21813866.32506 -18669392.37706 -14547567.57109  21813734.65406  21813737.28106
  20546063.20506 -19551953.42606 -15235260.33609  20545931.88606  20545933.89306
 92  8 19  2 40  0.0000000  0  7 23 17 12 25 11 28 21
  22448101.95706  -7452207.06806  -5806889.62109  22447970.47706  22447973.06706
  23804773.68406  10996026.67806   8568332.64109  23804642.06706  23804646.25006
  23608912.15306  -7569584.79906  -5898363.26009  23608781.13906  23608785.64706
  24943995.53606  -3306875.44206  -2576774.04109  24943863.83406  24943869.51006
  21683995.33406 -21773485.67906 -16966340.47609  21683863.94506  21683867.13306
  21825155.33506 -18610069.41306 -14501341.89809  21825023.60406  21825026.17906
  20547770.64006 -19542980.56906 -15228268.47709  20547639.33006  20547641.32706
 92  8 19  2 40 30.0000000  0  7 23 17 25 12 11 28 21
  22459202.63406  -7393873.16406  -5761434.63509  22459071.11806  22459073.69306
  23823130.02306  11092490.99506   8643499.60209  23822998.68606  23823003.00106
  24925064.87806  -3406356.67506  -2654291.66509  24924933.04806  24924938.54606
  23606056.54606  -7584588.78006  -5910054.62409  23605925.91106  23605930.39206
  21674121.20406 -21825374.35506 -17006773.20409  21673989.86506  21673993.08406
  21836562.56806 -18550123.76906 -14454631.02009  21836430.81606  21836433.43906
  20549546.61406 -19533647.62406 -15220996.03109  20549415.27906  20549417.29306
 92  8 19  2 41  0.0000000  0  7 23 11 17 25 12 28 21
  22470346.20206  -7335312.71306  -5715803.11709  22470214.74006  22470217.31206
  21664385.59506 -21876535.18006 -17046638.77909  21664254.27506  21664257.45506
  23841548.27706  11189279.30906   8718919.03409  23841416.79406  23841421.20406
  24906141.38506  -3505798.50406  -2731778.58609  24906009.58306  24906015.11106
  23603342.01306  -7598852.41106  -5921169.09409  23603211.57406  23603216.09606
  21848086.60506 -18489564.11206 -14407441.69409  21847954.94906  21847957.61806
  20551391.43206 -19523952.92406 -15213441.69809  20551260.11506  20551262.06806
 92  8 19  2 41 30.0000000  0  7 23 17 25 12 11 28 21
  22481531.38606  -7276533.82406  -5670001.39109  22481399.95106  22481402.58706
  23860024.73206  11286374.13006   8794577.30209  23859893.29106  23859897.76506
  24887222.80206  -3605214.87406  -2809245.66709  24887091.15106  24887096.70406
  23600766.80506  -7612387.65006  -5931715.98209  23600635.85806  23600640.43106
  21654786.44806 -21926979.08906 -17085945.72409  21654655.12606  21654658.31406
  21859724.05206 -18428408.67206 -14359788.12209  21859592.43906  21859595.08706
  20553301.27706 -19513916.68406 -15205621.23109  20553169.93106  20553171.89506
 92  8 19  2 42  0.0000000  0  7 23 17 25 12 11 28 21
  22492751.94406  -7217569.83506  -5624055.42909  22492620.51106  22492623.08006
  23878554.19806  11383747.23606   8870452.41709  23878422.90306  23878427.30706
  24868300.65406  -3704648.84406  -2886726.45809  24868169.23706  24868174.68006
  23598324.92206  -7625218.62206  -5941714.08009  23598194.16006  23598198.73406
  21645319.45006 -21976729.13706 -17124712.00409  21645188.06106  21645191.27206
  21871466.51406 -18366700.52406 -14311703.86909  21871334.97106  21871337.63206
  20555272.23606 -19503558.91006 -15197550.21809  20555140.96606  20555142.90806
 92  8 19  2 42 30.0000000  0  7 23 17 25 12 11 28 21
  22504000.90206  -7158456.61506  -5577993.18209  22503869.36606  22503871.92606
  23897129.15906  11481359.33706   8946513.76509  23896997.76106  23897002.18106
  24849367.12906  -3804141.71706  -2964253.15209  24849236.05406  24849241.62106
  23596013.21406  -7637367.99406  -5951181.06609  23595882.18506  23595886.69906
  21635980.17606 -22025807.15406 -17162954.62709  21635848.82306  21635851.95406
  21883306.76106 -18304481.19406 -14263221.29609  21883175.08406  21883177.76206
  20557298.14406 -19492912.45606 -15189254.26009  20557166.87306  20557168.83306
 92  8 19  2 43  0.0000000  0  7 23 17 25 12 11 28 21
  22515263.37206  -7099270.68106  -5531874.27909  22515131.99806  22515134.53506
  23915737.84206  11579147.68006   9022712.43609  23915606.27206  23915610.76106
  24830411.52806  -3903751.89706  -3041871.25109  24830280.78606  24830286.18806
  23593820.06006  -7648891.20506  -5960160.13309  23593689.38106  23593693.72506
  21626758.40806 -22074267.53306 -17200715.97409  21626627.08906  21626630.29106
  21895230.73106 -18241820.57206 -14214394.86009  21895099.01506  21895101.67606
  20559364.37306 -19482054.05506 -15180793.14709  20559233.15406  20559235.11606
 92  8 19  2 43 30.0000000  4  1
 -2356494.0000 -4646608.0000  3668427.0000                  APPROX POSITION XYZ
 92  8 19  2 43 30.0000000  0  7 23 17 25 12 11 28 21
  22526530.15706  -7040063.63106  -5485738.91609  22526398.75906  22526401.30306
  23934369.72006  11677057.37906   9099005.65209  23934238.05906  23934242.46006
  24811425.22706  -4003526.47306  -3119617.45609  24811294.13706  24811299.54206
  23591736.04006  -7659842.01106  -5968693.16209  23591605.37906  23591609.82906
  21617644.17406 -22122163.04106 -17238037.15809  21617512.87906  21617516.08206
  21907227.28506 -18178777.68706 -14165270.56309  21907095.55506  21907098.26206
  20561459.52906 -19471044.25706 -15172214.06309  20561328.22806  20561330.20306
 92  8 19  2 44  0.0000000  0  7 23 17 25 12 11 28 21
  22537794.25906  -6980870.63906  -5439614.50509  22537662.87706  22537665.38406
  23953016.16206  11775045.14506   9175359.71309  23952884.49606  23952888.90006
  24792402.07706  -4103493.77706  -3197513.84109  24792270.78506  24792276.17106
  23589754.97906  -7670253.89406  -5976806.25709  23589623.97806  23589628.40006
  21608631.34506 -22169526.13906 -17274943.47709  21608499.99506  21608503.21206
  21919290.13206 -18115387.16506 -14115875.38409  21919158.58706  21919161.24906
  20563577.05606 -19459916.56606 -15163543.11309  20563445.75306  20563447.71506
 92  8 19  2 44 30.0000000  0  7 23 17 25 12 11 28 21
  22549054.38606  -6921698.76106  -5393506.54909  22548922.91506  22548925.52206
  23971677.12106  11873109.55206   9251773.51709  23971545.58806  23971550.02006
  24773343.05306  -4203649.37006  -3275556.94609  24773211.79506  24773217.17706
  23587874.15406  -7680136.69906  -5984507.08509  23587743.41006  23587747.83706
  21599718.08906 -22216365.46806 -17311441.66109  21599586.77706  21599589.99606
  21931418.16806 -18051654.26806 -14066213.42009  21931286.65106  21931289.32606
  20565713.03606 -19448692.03306 -15154796.70109  20565581.70706  20565583.62606
 92  8 19  2 45  0.0000000  0  7 23 17 25 12 11 28 21
  22560315.53306  -6862521.00706  -5347394.01109  22560184.06106  22560186.61206
  23990358.35006  11971280.12206   9328270.02909  23990226.88206  23990231.29306
  24754252.99806  -4303968.10106  -3353727.16909  24754121.61606  24754126.95306
  23586097.12906  -7689474.22906  -5991783.02409  23585966.45006  23585970.89806
  21590907.74006 -22262664.12206 -17347518.53709  21590776.44406  21590779.62206
  21943614.10806 -17987563.49806 -14016272.59409  21943482.56306  21943485.31306
  20567873.69106 -19437337.45806 -15145948.95709  20567742.38706  20567744.30506
 92  8 19  2 45 30.0000000  0  7 23 17 25 12 11 28 21
  22571582.08406  -6803314.20406  -5301258.83609  22571450.72506  22571453.20906
  24009062.46606  12069572.00806   9404861.06809  24008931.10706  24008935.60306
  24735133.78906  -4404440.45906  -3432017.10709  24735002.39906  24735007.51206
  23584426.45706  -7698254.10206  -5998624.42309  23584295.69006  23584300.09406
  21582202.87206 -22308408.54906 -17383163.53909  21582071.58306  21582074.81306
  21955879.72506 -17923108.68806 -13966048.10009  21955748.06206  21955750.83806
  20570064.82406 -19425822.68706 -15136976.38509  20569933.52506  20569935.45606
 92  8 19  2 46  0.0000000  0  7 23 17 25 12 11 28 21
  22582854.85206  -6744076.50106  -5255099.58509  22582723.32106  22582725.87306
  24027792.84206  12168001.20306   9481559.10909  24027661.75706  24027666.10806
  24715987.35006  -4505054.15506  -3510417.18309  24715856.04106  24715861.05506
  23582864.04506  -7706463.25206  -6005021.10309  23582733.48106  23582737.87206
  21573606.11606 -22353584.74906 -17418365.76209  21573474.81706  21573478.02106
  21968216.64806 -17858277.68606 -13915530.46709  21968084.89106  21968087.59206
  20572290.78506 -19414125.07406 -15127861.33909  20572159.50806  20572161.41906
 92  8 19  2 46 30.0000000  0  7 23 17 25 12 11 28 21
  22594134.11106  -6684802.84706  -5208912.31909  22594002.69506  22594005.23206
  24046551.88406  12266578.92906   9558372.88909  24046420.48006  24046424.79906
  24696814.22606  -4605808.76906  -3588927.07209  24696682.92806  24696687.98006
  23581410.17706  -7714104.47306  -6010975.23909  23581279.42506  23581283.80706
  21565117.22606 -22398194.34106 -17453126.46609  21564985.89506  21564989.09306
  21980626.37506 -17793064.09106 -13864714.71009  21980494.73706  21980497.47506
  20574551.09806 -19402247.05606 -15118605.72109  20574419.79406  20574421.71206
 92  8 19  2 47  0.0000000  0  7 23 17 25 12 11 28 21
  22605420.95506  -6625489.68306  -5162694.26509  22605289.59806  22605292.10406
  24065334.95806  12365284.72706   9635286.46409  24065203.57406  24065207.99206
  24677614.25406  -4706703.81706  -3667546.39709  24677483.08506  24677488.02606
  23580063.58406  -7721181.12206  -6016489.45209  23579932.67006  23579937.01806
  21556735.66006 -22442239.72506 -17487447.52209  21556604.31906  21556607.47106
  21993107.96306 -17727473.06106 -13813604.84909  21992976.36906  21992979.09606
  20576846.44306 -19390184.62006 -15109206.40009  20576715.16706  20576717.06206
 92  8 19  2 47 30.0000000  0  7 23 17 25 12 11 28 21
  22616716.85306  -6566129.78606  -5116439.79709  22616585.39106  22616587.88906
  24084140.23206  12464107.30506   9712291.04409  24084008.94706  24084013.37006
  24658388.94106  -4807733.50406  -3746270.63209  24658257.60906  24658262.61106
  23578824.95406  -7727689.09206  -6021560.54809  23578694.20806  23578698.57706
  21548462.45606 -22485715.71106 -17521324.88509  21548331.13306  21548334.24406
  22005664.97206 -17661484.78006 -13762185.43709  22005533.51006  22005536.21706
  20579175.15506 -19377947.01506 -15099670.58609  20579043.86706  20579045.78406
 92  8 19  2 48  0.0000000  0  7 23 17 25 12 11 28 21
  22628023.98606  -6506710.29806  -5070138.89809  22627892.58006  22627895.09906
  24102968.63906  12563051.62206   9789390.48609  24102837.47406  24102841.75106
  24639141.65206  -4908876.42006  -3825083.10409  24639010.50206  24639015.52806
  23577697.34206  -7733615.43306  -6026178.42509  23577566.37906  23577570.71306
  21540300.18406 -22528608.46406 -17554747.77409  21540168.88006  21540172.04706
  22018302.02206 -17595077.43606 -13710439.47509  22018170.40206  22018173.22606
  20581536.19406 -19365539.70206 -15090002.53409  20581404.89406  20581406.79406
 92  8 19  2 48 30.0000000  0  7 23 17 25 12 11 28 21
  22639349.80006  -6447192.74506  -5023761.58609  22639218.35206  22639220.90506
  24121823.58706  12662134.60206   9866597.97509  24121692.26806  24121696.63606
  24619878.57506  -5010103.40906  -3903961.09309  24619747.47406  24619752.43906
  23576684.75406  -7738934.90206  -6030323.41209  23576554.13906  23576558.53606
  21532253.99706 -22570891.43206 -17587695.50209  21532122.68606  21532125.78206
  22031021.72106 -17528235.74606 -13658355.06009  22030890.00306  22030892.80006
  20583933.01606 -19352944.51206 -15080188.08509  20583801.68006  20583803.59006
 92  8 19  2 49  0.0000000  0  7 23 17 25 12 11 28 21
  22650695.27006  -6387572.54106  -4977304.28809  22650563.77306  22650566.35706
  24140702.99406  12761344.80506   9943904.59909  24140571.43406  24140575.79306
  24600601.15406  -5111407.44006  -3982899.12009  24600469.84906  24600474.73306
  23575790.66506  -7743634.84006  -6033985.64809  23575659.70906  23575664.06006
  21524326.39506 -22612551.03206 -17620157.48409  21524195.06806  21524198.16406
  22043822.75906 -17460965.19406 -13605936.47109  22043691.07706  22043693.86106
  20586368.12806 -19340148.06006 -15070216.80709  20586236.80606  20586238.67806
 92  8 19  2 49 30.0000000  0  8 23 17 25 12 11 28 21 15
  22662061.58506  -6327841.34206  -4930760.50009  22661930.19606  22661932.67806
  24159610.20206  12860702.85906  10021326.44209  24159478.62506  24159483.00406
  24581312.26906  -5212769.64806  -4061882.48309  24581181.01806  24581185.85206
  23575017.98606  -7747694.73006  -6037149.14309  23574887.08506  23574891.52106
  21516521.53006 -22653565.74306 -17652116.95409  21516390.18906  21516393.28106
  22056707.76006 -17393254.80206 -13553175.14709  22056576.06606  22056578.80306
  20588844.65706 -19327133.87806 -15060075.86809  20588713.30906  20588715.18406
  25251499.77816        -0.00116        -0.34219  25251367.86616  25251371.83716
 92  8 19  2 50  0.0000000  0  8 23 12 17 25 11 28 21 15
  22673452.67506  -6267980.52606  -4884115.71209  22673321.29106  22673323.86106
  23574373.77506  -7751080.04306  -6039786.99709  23574242.89106  23574247.14506
  24178553.59906  12960252.09906  10098897.25809  24178422.29206  24178426.71206
  24562019.99406  -5314151.15906  -4140880.89509  24561888.71106  24561893.46606
  21508846.16006 -22693899.84406 -17683546.07609  21508714.80506  21508717.94906
  22069675.84306 -17325106.17806 -13500072.34309  22069544.20906  22069546.94406
  20591369.40706 -19313865.83706 -15049737.11409  20591238.07006  20591239.93906
  25231022.86106   -107607.41106    -83850.10209  25230890.74406  25230894.69506
 92  8 19  2 50 30.0000000  0  8 23 12 17 25 11 28 21 15
  22684872.31006  -6207971.49906  -4837355.43709  22684740.73006  22684743.32206
  23573864.11006  -7753757.62906  -6041873.37509  23573733.31606  23573737.55406
  24197541.24406  13060032.66706  10176648.31709  24197409.87606  24197414.30306
  24542729.35906  -5415523.01206  -4219871.78509  24542598.12806  24542602.84506
  21501306.69106 -22733519.29606 -17714418.33009  21501175.43706  21501178.57706
  22082731.21906 -17256500.07906 -13446613.06409  22082599.63706  22082602.40506
  20593951.00806 -19300299.29606 -15039165.76409  20593819.70706  20593821.58006
  25210554.28106   -215170.84606   -167665.65509  25210422.01406  25210426.16406
 92  8 19  2 51  0.0000000  0  8 23 11 17 25 12 28 21 15
  22696321.89306  -6147802.42306  -4790470.45209  22696190.56006  22696193.08106
  21493909.24406 -22772393.46406 -17744709.84209  21493777.87806  21493781.03906
  24216579.48306  13160080.00806  10254607.24609  24216448.22706  24216452.74606
  24523446.41706  -5516856.59706  -4298832.86009  24523314.90606  24523319.50206
  23573494.85506  -7755698.11306  -6043385.38509  23573364.01106  23573368.23606
  22095879.02906 -17187407.82906 -13392774.96809  22095747.42006  22095750.18506
  20596594.79506 -19286406.01606 -15028339.81509  20596463.49606  20596465.38406
  25190099.08206   -322660.31206   -251423.49209  25189966.98906  25189971.38706
 92  8 19  2 51 30.0000000  0  8 11 23 17 25 12 28 21 15
  21486658.30606 -22810497.21406 -17774401.03209  21486526.99206  21486530.07506
  22707805.57306  -6087455.44706  -4743446.84409  22707674.10206  22707676.65406
  24235678.46106  13260447.16906  10332815.38409  24235547.46006  24235551.96806
  24504176.29406  -5618122.04706  -4377740.84209  24504044.74206  24504049.34406
  23573270.46806  -7756877.42406  -6044304.27009  23573139.56806  23573143.81406
  22109125.35906 -17117798.25606 -13338533.76309  22108993.70306  22108996.47106
  20599304.37606 -19272167.00706 -15017244.46209  20599173.09406  20599174.99106
  25169662.06906   -430050.27206   -335103.85009  25169530.85906  25169535.41606
 92  8 19  2 52  0.0000000  0  8 11 23 17 25 12 28 21 15
  21479555.65106 -22847821.64306 -17803484.96209  21479424.33406  21479427.40806
  22719326.81106  -6026911.35706  -4696269.64009  22719195.30906  22719197.82406
  24254840.50006  13361142.75006  10411279.44709  24254709.27706  24254713.78106
  24484918.91106  -5719319.26306  -4456595.66109  24484787.50206  24484791.92806
  23573192.31006  -7757287.75006  -6044623.94609  23573061.42806  23573065.62506
  22122471.29706 -17047664.73706 -13283884.28809  22122339.68906  22122342.48606
  20602082.43906 -19257568.12106 -15005868.68609  20601951.10006  20601952.97906
  25149245.86606   -537331.92906   -418699.87309  25149115.37706  25149120.19706
 92  8 19  2 52 30.0000000  0  8 11 23 17 25 12 28 21 15
  21472602.18206 -22884362.02106 -17831957.94809  21472470.89006  21472473.97506
  22730888.88906  -5966151.42306  -4648924.24409  22730757.55306  22730760.02906
  24274062.77706  13462155.50606  10489990.65809  24273931.34906  24273935.79206
  24465673.77006  -5820451.84106  -4535400.11709  24465542.52806  24465546.98806
  23573260.85606  -7756925.35706  -6044341.50909  23573130.28906  23573134.60506
  22135919.50806 -16976994.17006 -13228816.33409  22135787.86006  22135790.61906
  20604929.59706 -19242606.29406 -14994210.09809  20604798.28706  20604800.08906
  25128851.69706   -644500.90006   -502208.09609  25128721.73206  25128726.42306
 92  8 19  2 53  0.0000000  0  8 11 23 17 25 12 28 21 15
  21465794.24406 -22920138.10206 -17859835.38109  21465662.95206  21465666.02006
  22742490.26306  -5905185.25706  -4601418.14909  22742358.95906  22742361.52706
  24293338.83906  13563451.25906  10568922.38609  24293207.34306  24293211.75006
  24446437.61906  -5921537.98706  -4614168.39609  24446306.28906  24446310.77006
  23573473.33306  -7755811.05106  -6043473.16609  23573342.29606  23573346.52706
  22149464.71606 -16905813.58406 -13173350.96509  22149333.12106  22149335.87306
  20607841.36106 -19227304.59706 -14982286.67609  20607710.10906  20607711.89906
  25108476.45006   -751576.60606   -585643.68309  25108345.98606  25108350.18006
 92  8 19  2 53 30.0000000  0  8 11 23 17 25 12 28 21 15
  21459126.88006 -22955175.95506 -17887137.58009  21458995.45106  21458998.45906
  22754128.52506  -5844025.94706  -4553761.54709  22753997.24006  22753999.77906
  24312660.89706  13664986.97606  10648041.10909  24312529.01706  24312533.44706
  24427204.60706  -6022606.62906  -4692923.04309  24427073.43506  24427077.91806
  23573823.07806  -7753972.04206  -6042040.12109  23573692.31806  23573696.43606
  22163099.95106 -16834160.43906 -13117517.36709  22162968.27606  22162971.12206
  20610812.62806 -19211690.13606 -14970119.54209  20610681.36806  20610683.23006
  25088114.68806   -858584.78206   -669026.61209  25087983.21906  25087987.19706
 92  8 19  2 54  0.0000000  0  8 11 23 17 25 12 28 21 15
  21452594.51206 -22989503.34706 -17913886.18109  21452463.18006  21452466.20806
  22765799.48606  -5782695.72606  -4505971.76609  22765668.03006  22765670.58706
  24332018.16806  13766710.74106  10727306.36709  24331886.37906  24331890.93106
  24407971.15306  -6123678.65206  -4771680.32409  24407839.85906  24407844.34106
  23574305.12706  -7751437.36606  -6040065.00209  23574174.57906  23574178.78106
  22176816.57006 -16762078.90206 -13061349.95609  22176684.90706  22176687.71306
  20613838.91806 -19195787.08706 -14957727.53209  20613707.60606  20613709.46806
  25067759.57506   -965553.10406   -752378.51509  25067627.90606  25067631.76606
 92  8 19  2 54 30.0000000  0  8 11 23 17 25 12 28 21 15
  21446189.40806 -23023161.76006 -17940113.50109  21446058.17406  21446061.18306
  22777492.10506  -5721250.89006  -4458092.67209  22777360.62106  22777363.24306
  24351403.85106  13868586.71306  10806690.21509  24351272.67206  24351277.31706
  24388732.45306  -6224778.29106  -4850459.12609  24388601.16606  24388605.71806
  23574912.09306  -7748249.37206  -6037580.80109  23574781.18006  23574785.34106
  22190606.73006 -16689610.75006 -13004881.29009  22190475.08306  22190477.89506
  20616910.82906 -19179644.14406 -14945148.59609  20616779.52006  20616781.38406
  25047404.54406  -1072523.06406   -835731.68409  25047272.40706  25047276.24206
 92  8 19  2 55  0.0000000  0  8 11 23 12 17 25 28 21 15
  21439903.21806 -23056195.91206 -17965854.39209  21439771.91506  21439774.95006
  22789196.19506  -5659745.31306  -4410166.25109  22789064.65406  22789067.26206
  23575634.46106  -7744454.03506  -6034623.35009  23575503.35506  23575507.64006
  24370812.18806  13970579.09606  10886164.77709  24370681.19406  24370685.79606
  24369481.70906  -6325941.70106  -4929287.62109  24369350.29906  24369354.84906
  22204463.53406 -16616793.23406 -12948140.39709  22204332.00406  22204334.76306
  20620020.88106 -19163300.41706 -14932413.20509  20619889.61406  20619891.46706
  25027040.21706  -1179538.83406   -919120.53209  25026907.97706  25026911.74306
 92  8 19  2 55 30.0000000  0  8 11 23 17 25 12 28 21 15
  21433727.96906 -23088647.36506 -17991141.23309  21433596.63206  21433599.68306
  22800901.78906  -5598231.17206  -4362233.15109  22800770.42806  22800773.00406
  24390235.58106  14072648.15406  10965699.09609  24390104.27506  24390108.91706
  24350213.39206  -6427196.92406  -5008187.66409  24350081.96306  24350086.41506
  23576463.86906  -7740093.85306  -6031225.76509  23576333.07906  23576337.22006
  22218379.60606 -16543663.46406 -12891156.19109  22218248.11406  22218250.86606
  20623161.84206 -19146794.52806 -14919551.45409  20623030.53806  20623032.40206
  25006658.74006  -1286641.86206  -1002577.36409  25006526.62806  25006530.73306
 92  8 19  2 56  0.0000000  0  8 11 23 17 25 12 28 21 15
  21427662.25906 -23120522.86906 -18015979.28609  21427530.93106  21427533.96406
  22812606.58406  -5536722.54306  -4314304.34609  22812475.07906  22812477.60506
  24409673.35506  14174793.72706  11045293.03609  24409542.04406  24409546.57606
  24330929.09406  -6528535.24006  -5087152.45609  24330797.75406  24330802.18906
  23577399.26506  -7735176.85706  -6027394.29909  23577268.76106  23577272.80506
  22232354.66806 -16470224.95006 -12833931.40709  22232222.97906  22232225.82706
  20626332.38106 -19130132.81206 -14906568.28009  20626201.11306  20626202.96706
  24986259.08706  -1393838.55406  -1086107.17609  24986127.69106  24986131.99506
 92  8 19  2 56 30.0000000  0  8 11 23 17 25 12 28 21 15
  21421709.26506 -23151805.72906 -18040355.54009  21421577.97806  21421581.05206
  22824314.21806  -5475198.55606  -4266363.57209  22824182.77606  22824185.29906
  24429128.22706  14277028.59706  11124956.56209  24428996.54706  24429001.21106
  24311630.98206  -6629945.11206  -5166173.01509  24311500.06306  24311504.46006
  23578444.12506  -7729687.40506  -6023116.76109  23578313.29106  23578317.33306
  22246391.72406 -16396460.20306 -12776452.42009  22246259.99206  22246262.82506
  20629534.05006 -19113307.90306 -14893457.94009  20629402.81906  20629404.60806
  24965844.88606  -1501111.86206  -1169696.71909  24965713.97806  24965718.51306
 92  8 19  2 57  0.0000000  0  8 11 23 17 25 12 28 21 15
  21415869.99706 -23182491.21506 -18064266.31309  21415738.70806  21415741.77506
  22836027.59506  -5413643.28706  -4218398.41909  22835896.32606  22835898.83906
  24448597.56406  14379339.12006  11204679.02909  24448465.69306  24448470.18506
  24292318.97506  -6731428.43806  -5245250.81209  24292188.27806  24292192.57806
  23579598.41506  -7723622.16806  -6018390.56109  23579467.49006  23579471.52306
  22260489.67506 -16322374.76506 -12718723.54409  22260358.00506  22260360.83106
  20632766.03306 -19096323.95506 -14880223.67509  20632634.75506  20632636.54806
  24945417.43606  -1608457.05306  -1253342.27309  24945286.78706  24945291.38006
 92  8 19  2 57 30.0000000  0  8 11 23 17 25 12 28 21 15
  21410143.13206 -23212586.44506 -18087717.14809  21410011.80106  21410014.83706
  22847747.54306  -5352055.06006  -4170407.58509  22847616.14406  22847618.71706
  24468077.02806  14481704.85906  11284444.51809  24467945.12306  24467949.83906
  24272990.55906  -6833000.67706  -5324397.89409  24272859.66906  24272864.04206
  23580860.48106  -7716988.93906  -6013221.76709  23580729.66806  23580733.78706
  22274643.88306 -16247993.85206 -12660764.43209  22274512.40506  22274515.17806
  20636024.52306 -19079200.40206 -14866880.62809  20635893.20306  20635895.01106
  24924975.25706  -1715880.41706  -1337048.75409  24924844.83206  24924849.36806
 92  8 19  2 58  0.0000000  0  8 11 23 17 25 12 28 21 15
  21404528.73406 -23242090.31306 -18110707.18209  21404397.41906  21404400.45206
  22859476.25806  -5290419.97606  -4122380.24209  22859344.90006  22859347.47806
  24487567.62306  14584129.40406  11364255.83209  24487435.87006  24487440.58706
  24253641.56106  -6934680.79806  -5403629.03909  24253510.56506  24253514.79506
  23582230.87506  -7709788.00006  -6007610.61409  23582100.05406  23582104.06906
  22288852.96206 -16173324.11306 -12602580.26009  22288721.53906  22288724.33506
  20639306.31506 -19061953.76206 -14853441.66909  20639175.06006  20639176.85806
  24904519.41906  -1823380.56706  -1420815.07309  24904388.29006  24904392.82106
 92  8 19  2 58 30.0000000  0  8 11 23 17 25 12 28 21 15
  21399028.83906 -23270992.37006 -18133228.27109  21398897.54906  21398900.59806
  22871214.70706  -5228734.50406  -4074313.63809  22871083.19206  22871085.78506
  24507070.52306  14686618.43506  11444117.40709  24506939.07406  24506943.54906
  24234270.44906  -7036477.92406  -5482951.35309  24234139.22606  24234143.30406
  23583710.77406  -7702009.86306  -6001549.69609  23583580.15706  23583584.12006
  22303118.72606 -16098357.55306 -12544164.80209  22302987.18506  22302990.05906
  20642614.04206 -19044572.19306 -14839897.57509  20642482.73006  20642484.54006
  24884050.87306  -1930946.59606  -1504632.72009  24883919.41506  24883923.56306
 92  8 19  2 59  0.0000000  0  8 11 23 17 25 12 28 21 15
  21393647.11706 -23299273.82206 -18155265.77009  21393515.79706  21393518.81206
  22882963.67406  -5166993.92306  -4026204.09609  22882832.10306  22882834.69906
  24526590.77306  14789197.78006  11524049.34609  24526459.39406  24526463.82006
  24214880.54106  -7138371.74006  -5562349.00909  24214749.35506  24214753.41106
  23585303.98106  -7693636.98506  -5995025.34209  23585173.34106  23585177.31006
  22317443.40806 -16023081.02806 -12485507.81409  22317311.74406  22317314.66806
  20645954.59106 -19027017.49706 -14826218.57609  20645823.32406  20645825.10806
  24863573.33206  -2038558.92606  -1588486.44109  24863441.56506  24863445.31206
 92  8 19  2 59 30.0000000  0  8 11 23 17 25 12 28 21 15
  21388386.91406 -23326916.41006 -18176805.45209  21388255.57406  21388258.62406
  22894725.21406  -5105186.24406  -3978042.26609  22894593.67006  22894596.32106
  24546133.01106  14891893.34606  11604071.84509  24546001.79706  24546006.22806
  24195476.43806  -7240340.96906  -5641805.43509  24195345.08806  24195349.27906
  23587013.85806  -7684652.12706  -5988024.11709  23586883.16306  23586887.10306
  22331830.33006 -15947477.90406 -12426596.33209  22331698.53106  22331701.36806
  20649333.45906 -19009261.05306 -14812382.37509  20649202.23606  20649204.04606
  24843090.57306  -2146198.78406  -1672361.59109  24842958.59606  24842962.16206
 92  8 19  3  0  0.0000000  0  8 11 23 17 25 12 28 21 15
  21383247.87806 -23353921.73906 -18197848.56509  21383116.60206  21383119.66106
  22906496.87106  -5043324.93706  -3929838.65109  22906365.54906  22906368.01906
  24565697.07406  14994704.38406  11684184.31609  24565566.08506  24565570.52606
  24176058.52606  -7342381.85106  -5721317.69109  24175927.27806  24175931.46006
  23588839.69706  -7675058.11106  -5980548.22909  23588708.75606  23588712.74406
  22346278.09906 -15871554.73106 -12367435.46009  22346146.32106  22346149.19706
  20652751.74806 -18991297.98706 -14798385.16709  20652620.45406  20652622.28606
  24822602.06006  -2253866.90906  -1756258.76109  24822469.99506  24822473.43306
 92  8 19  3  0 30.0000000  0  8 11 23 17 25 12 28 21 15
  21378232.01206 -23380280.49406 -18218387.84509  21378100.69306  21378103.74906
  22918280.13906  -4981404.13706  -3881588.67909  22918148.66806  22918151.27806
  24585284.01406  15097633.92906  11764389.13809  24585152.86806  24585157.49406
  24156631.01006  -7444472.80706  -5800868.96709  24156499.90906  24156504.00706
  23590783.01706  -7664846.54706  -5972591.14809  23590651.83406  23590655.97106
  22360785.45706 -15795318.34006 -12308030.52409  22360653.81706  22360656.67406
  20656214.04506 -18973103.30506 -14784207.48109  20656082.73906  20656084.56006
  24802110.03706  -2361553.22206  -1840170.09509  24801977.65006  24801981.22506
 92  8 19  3  1  0.0000000  0  8 11 23 17 25 12 28 21 15
  21373344.75306 -23405963.42406 -18238400.50209  21373213.40506  21373216.44206
  22930080.02406  -4919395.14506  -3833269.98909  22929948.55206  22929951.15306
  24604898.29706  15200707.26106  11844706.02509  24604766.98706  24604771.60106
  24137202.37006  -7546570.99206  -5880425.87409  24137071.20706  24137075.33606
  23592849.01506  -7653989.58106  -5964131.15409  23592717.88606  23592722.08506
  22375356.57906 -15718746.34106 -12248364.07209  22375224.96806  22375227.93006
  20659723.13006 -18954662.93806 -14769838.35309  20659591.85406  20659593.62706
  24781619.64506  -2469228.21306  -1924072.61609  24781487.54906  24781491.32306
 92  8 19  3  1 30.0000000  0  8 11 23 17 25 12 28 21 15
  21368593.64306 -23430930.30106 -18257855.19109  21368462.32006  21368465.38006
  22941903.79606  -4857261.13306  -3784853.89009  22941772.27106  22941774.84306
  24624542.96506  15303940.50906  11925147.53409  24624411.68706  24624416.23606
  24117780.53506  -7648633.10406  -5959954.67109  24117649.26506  24117653.42806
  23595045.11106  -7642448.00106  -5955137.68909  23594914.23806  23594918.25006
  22389998.89106 -15641799.42806 -12188405.48009  22389867.43906  22389870.34006
  20663281.69206 -18935962.37706 -14755266.47609  20663150.39006  20663152.18806
  24761139.01206  -2576850.88806  -2007934.37809  24761007.41306  24761011.42406
 92  8 19  3  2  0.0000000  0  8 11 23 17 25 12 28 21 15
  21363984.66106 -23455150.41306 -18276727.98009  21363853.35506  21363856.42506
  22953755.55006  -4794979.70306  -3736322.91409  22953624.10106  22953626.61606
  24644222.44306  15407357.82006  12005732.44909  24644091.26406  24644095.89506
  24098372.18206  -7750623.69706  -6039427.73909  24098240.99706  24098245.15806
  23597377.45606  -7630192.13206  -5945587.64209  23597246.35506  23597250.36906
  22404717.84206 -15564450.95106 -12128133.97709  22404586.23506  22404589.16606
  20666894.53406 -18916976.59406 -14740472.35009  20666763.25206  20666765.01306
  24740674.33606  -2684389.39406  -2091730.56509  24740543.16206  24740547.50606
 92  8 19  3  2 30.0000000  0  8 11 23 17 25 12 28 21 15
  21359521.63706 -23478603.89006 -18295003.38809  21359390.30006  21359393.31106
  22965637.91506  -4732537.47606  -3687666.64609  22965506.46306  22965509.02406
  24663941.31806  15510979.78206  12086476.81209  24663809.75106  24663814.37806
  24078984.19706  -7852507.37606  -6118817.50209  24078853.02306  24078857.10606
  23599848.81706  -7617203.40306  -5935466.53309  23599718.02806  23599722.06106
  22419517.83706 -15486677.39006 -12067531.24109  22419386.20606  22419389.18806
  20670561.93106 -18897704.66606 -14725455.25409  20670430.65306  20670432.40606
  24720229.79406  -2791823.73506  -2175445.60409  24720099.07306  24720103.39906
 92  8 19  3  3  0.0000000  0  8 11 23 17 25 12 28 21 15
  21355210.37806 -23501259.65006 -18312657.19609  21355079.03106  21355082.06806
  22977555.13806  -4669911.55506  -3638867.23709  22977423.76006  22977426.34206
  24683703.45406  15614830.38406  12167399.34509  24683571.98406  24683576.56106
  24059624.23106  -7954244.45606  -6198093.03309  24059493.10706  24059497.12106
  23602466.08706  -7603451.79106  -5924750.96909  23602334.92706  23602338.84006
  22434407.93406 -15408429.32606 -12006558.76209  22434276.28906  22434279.25206
  20674286.66306 -18878130.78306 -14710202.86909  20674155.40106  20674157.13706
  24699811.36306  -2899121.25106  -2259054.04509  24699680.88006  24699685.54006
 92  8 19  3  3 30.0000000  0  8 11 23 17 25 12 28 21 15
  21351054.12506 -23523100.61906 -18329676.09709  21350922.80806  21350925.79106
  22989513.71506  -4607068.42706  -3589898.58309  22989382.42306  22989385.02206
  24703513.95206  15718935.63606  12248520.32509  24703382.57806  24703387.04206
  24040293.79606  -8055827.50906  -6277248.54809  24040162.49306  24040166.42506
  23605230.83706  -7588921.26306  -5913428.45709  23605099.97706  23605103.92006
  22449390.03106 -15329698.73906 -11945210.28709  22449258.29206  22449261.17706
  20678075.37006 -18858220.82106 -14694688.60309  20677944.15306  20677945.88506
  24679422.96506  -3006263.89006  -2342541.80609  24679292.43606  24679296.93906
 92  8 19  3  4  0.0000000  0  8 11 23 17 25 12 28 21 15
  21347052.26006 -23544130.64106 -18346063.09009  21346920.88506  21346923.88806
  23001514.76406  -4544003.02906  -3540756.73009  23001383.34706  23001385.93106
  24723376.79706  15823315.42506  12329855.22009  24723245.23606  24723249.94906
  24020990.38606  -8157267.61806  -6356292.67609  24020858.98306  24020862.89806
  23608142.97306  -7573616.79706  -5901502.87209  23608012.29306  23608016.25706
  22464461.33706 -15250498.55306 -11883495.89109  22464329.75006  22464332.67606
  20681929.78106 -18837965.54206 -14678905.25909  20681798.56006  20681800.33906
  24659063.84806  -3113254.74006  -2425911.27209  24658932.85306  24658937.35706
 92  8 19  3  4 30.0000000  0  8 11 23 17 25 12 28 21 15
  21343200.97606 -23564368.75206 -18361833.00809  21343069.68306  21343072.67806
  23013553.94706  -4480737.05506  -3491458.58409  23013422.51406  23013425.11806
  24743288.41106  15927951.45006  12411389.78009  24743156.73506  24743161.55306
  24001709.20606  -8258588.43506  -6435243.84409  24001578.06106  24001582.01206
  23611198.67206  -7557558.64406  -5888990.00409  23611067.98506  23611071.94706
  22479617.41706 -15170853.19606 -11821434.60909  22479485.79006  22479488.74406
  20685847.36806 -18817378.89206 -14662863.70309  20685716.08506  20685717.85506
  24638730.24006  -3220111.90806  -2509176.55509  24638598.90006  24638602.99906
 92  8 19  3  5  0.0000000  0  8 11 23 17 25 12 28 21 15
  21339496.77006 -23583834.30206 -18377000.93009  21339365.47106  21339368.47106
  23025628.48306  -4417284.08506  -3442014.72609  23025497.27106  23025499.79906
  24763243.80206  16032815.92806  12493102.36109  24763112.00406  24763116.67006
  23982443.67206  -8359828.10906  -6514131.78509  23982312.73106  23982316.62106
  23614394.38806  -7540767.34906  -5875905.86309  23614263.28906  23614267.24906
  22494851.33906 -15090796.91406 -11759053.12509  22494719.78806  22494722.82906
  20689829.59906 -18796452.51306 -14646557.42409  20689698.30206  20689700.06706
  24618418.42706  -3326853.31006  -2592351.59709  24618286.66106  24618290.69906
 92  8 19  3  5 30.0000000  0  8 11 23 17 25 12 28 21 15
  21335931.14306 -23602571.91706 -18391601.63109  21335799.78806  21335802.76906
  23037729.78806  -4353692.44806  -3392462.80809  23037598.30006  23037600.91106
  24783232.85306  16137859.87006  12574954.78809  24783101.07306  24783105.63006
  23963184.44106  -8461036.61706  -6592995.43709  23963053.37006  23963057.26506
  23617720.15606  -7523288.68506  -5862286.10709  23617589.33706  23617593.27506
  22510150.91506 -15010398.05406 -11696404.69809  22510019.46006  22510022.37506
  20693868.56306 -18775227.16106 -14630018.17509  20693737.29106  20693739.05406
  24598120.16506  -3433522.40706  -2675470.27209  24597988.27306  24597992.13906
 92  8 19  3  6  0.0000000  0  8 11 23 17 25 12 28 21 15
  21332493.38106 -23620636.98306 -18405678.26909  21332362.08606  21332365.11906
  23049842.92606  -4290037.14306  -3342861.28309  23049711.63106  23049714.12706
  24803243.79406  16243018.33306  12656896.46209  24803112.26306  24803116.69106
  23943924.49306  -8562248.37306  -6671861.62009  23943793.29006  23943797.20406
  23621166.54306  -7505178.88806  -5848174.55709  23621035.46006  23621039.44906
  22525504.64506 -14929714.05906 -11633534.09109  22525373.11506  22525376.00606
  20697948.93206 -18753784.37606 -14613309.49609  20697817.65906  20697819.46606
  24577825.21406  -3540173.56906  -2758574.94709  24577693.16206  24577697.05606
 92  8 19  3  6 30.0000000  0  8 11 23 17 25 12 28 21 15
  21329174.49006 -23638077.80306 -18419268.48309  21329043.22106  21329046.14406
  23061958.82906  -4226367.65506  -3293248.70509  23061827.44706  23061830.07906
  24823265.94006  16348236.44106  12738884.61509  24823134.49006  24823138.95506
  23924657.20506  -8663497.29306  -6750756.76309  23924526.12406  23924529.89206
  23624723.11606  -7486487.46706  -5833609.79009  23624592.40006  23624596.18906
  22540902.36406 -14848798.32306 -11570482.90609  22540770.88806  22540773.80806
  20702061.15106 -18732174.59906 -14596470.69309  20701929.89506  20701931.64106
  24557524.40306  -3646854.19806  -2841702.57109  24557392.41506  24557396.12506
 92  8 19  3  7  0.0000000  0  8 11 23 17 25 12 28 21 15
  21325969.92606 -23654917.90006 -18432390.60109  21325838.61806  21325841.56506
  23074075.97506  -4162690.96106  -3243630.50409  23073944.73306  23073947.25706
  24843295.04706  16453488.98006  12820899.59409  24843163.45606  24843167.74806
  23905378.68006  -8764806.45706  -6829698.84409  23905247.62206  23905251.41106
  23628386.06906  -7467239.20306  -5818611.12509  23628255.24306  23628258.95206
  22556339.65806 -14767675.97606 -11507270.73009  22556208.00206  22556211.04906
  20706198.53906 -18710432.63506 -14579528.88309  20706067.24206  20706068.98206
  24537213.58806  -3753586.54406  -2924870.49409  24537081.78206  24537085.59506
 92  8 19  3  7 30.0000000  0  8 11 23 17 25 12 28 21 15
  21322878.63706 -23671162.94606 -18445049.05009  21322747.26506  21322750.17606
  23086194.84506  -4099006.31306  -3194006.10309  23086063.48606  23086066.11106
  24863329.66006  16558773.68106  12902939.64209  24863198.26306  24863202.82906
  23886089.76406  -8866169.19206  -6908682.66809  23885958.73206  23885962.61406
  23632153.55206  -7447440.88006  -5803183.83809  23632022.66506  23632026.57506
  22571815.52306 -14686349.29706 -11443899.33109  22571683.75906  22571686.79706
  20710356.74406 -18688580.80006 -14562501.46009  20710225.47206  20710227.23306
  24516892.10606  -3860374.76606  -3008081.96009  24516760.45706  24516764.15106
 92  8 19  3  8  0.0000000  0  8 11 23 17 25 12 28 21 15
  21319902.34206 -23686802.83406 -18457235.94809  21319771.09306  21319773.96706
  23098318.59206  -4035296.49306  -3144362.08409  23098187.10806  23098189.70806
  24883373.53706  16664106.24906  12985016.97609  24883242.45006  24883246.94706
  23866792.95506  -8967574.82206  -6987699.91609  23866661.85906  23866665.60006
  23636026.97606  -7427083.48306  -5787320.91109  23635896.63506  23635900.52006
  22587332.26206 -14604808.26106 -11380360.90309  22587200.67006  22587203.66906
  20714540.23506 -18666595.98906 -14545370.41809  20714409.02706  20714410.77106
  24496562.10306  -3967207.74406  -3091328.31009  24496430.63906  24496434.41906
 92  8 19  3  8 30.0000000  0  8 11 23 17 25 12 28 21 15
  21317042.66706 -23701830.55406 -18468945.83509  21316911.40306  21316914.27706
  23110448.68506  -3971551.51406  -3094690.67109  23110317.25806  23110319.94406
  24903424.77406  16769476.20406  13067123.45409  24903293.82806  24903298.18206
  23847489.17606  -9069018.03206  -7066746.44709  23847357.84106  23847361.54606
  23640008.73906  -7406161.07506  -5771017.71809  23639877.94106  23639881.92506
  22602890.72106 -14523048.59506 -11316652.11509  22602759.12106  22602762.13006
  20718754.21606 -18644451.76306 -14528115.15509  20718622.91706  20718624.65306
  24476225.16806  -4074077.05906  -3174602.98609  24476093.85606  24476097.73306
 92  8 19  3  9  0.0000000  0  8 11 23 17 25 12 28 21 15
  21314300.48306 -23716240.94106 -18480174.68309  21314169.18406  21314172.04506
  23122585.91206  -3907770.01706  -3044990.80109  23122454.45306  23122457.10606
  24923480.50006  16874869.17506  13149247.87109  24923349.48906  24923353.78106
  23828178.61406  -9170495.42506  -7145819.61509  23828047.23806  23828050.89306
  23644098.88206  -7384669.68906  -5754271.17009  23643967.53806  23643971.42706
  22618490.33106 -14441072.28406 -11252774.51509  22618358.81306  22618361.82706
  20722997.41006 -18622153.33006 -14510739.72809  20722866.17706  20722867.91806
  24455882.63906  -4180975.81806  -3257900.62609  24455751.60406  24455755.36006
 92  8 19  3  9 30.0000000  0  8 11 23 17 25 12 28 21 15
  21311676.39006 -23730030.60806 -18490919.85509  21311545.04406  21311547.92106
  23134726.42706  -3843972.05406  -2995278.09909  23134594.88506  23134597.51306
  24943540.03506  16980282.38006  13231388.03409  24943408.79606  24943413.18406
  23808864.44706  -9271991.03606  -7224906.98109  23808733.19506  23808736.73006
  23648296.65506  -7362606.93606  -5737079.39209  23648165.92606  23648169.75306
  22634129.35006 -14358887.85906 -11188734.74609  22633997.87406  22634001.00106
  20727271.63106 -18599692.06606 -14493237.41609  20727140.35306  20727142.10406
  24435535.66106  -4287899.14206  -3341217.42309  24435404.65306  24435408.50906
 92  8 19  3 10  0.0000000  0  8 11 23 17 25 12 28 21 15
  21309174.56406 -23743177.39606 -18501164.08309  21309043.28606  21309046.18306
  23146871.93506  -3780146.88206  -2945544.19909  23146740.45806  23146743.08106
  24963607.42906  17085736.60306  13313560.18609  24963476.13806  24963480.51006
  23789552.33106  -9373475.74906  -7303985.85609  23789421.14506  23789424.78206
  23652607.80206  -7339951.90506  -5719426.09809  23652477.10606  23652480.89106
  22649813.24206 -14276468.52106 -11124511.92709  22649681.75806  22649684.82106
  20731580.41906 -18577049.17006 -14475593.57009  20731449.14506  20731450.84806
  24415188.65406  -4394823.60806  -3424535.13309  24415057.57706  24415061.28006
 92  8 19  3 10 30.0000000  0  8 11 23 17 25 12 28 21 15
  21306795.54706 -23755678.80006 -18510905.42009  21306664.32006  21306667.22906
  23159022.79206  -3716292.96206  -2895787.89609  23158891.34706  23158894.02506
  24983682.74006  17191232.77506  13395765.01009  24983551.35906  24983555.96506
  23770243.75306  -9474942.45606  -7383050.69609  23770112.60206  23770116.13206
  23657032.24806  -7316702.98706  -5701310.03109  23656901.10006  23656905.03006
  22665543.54606 -14193806.35606 -11060099.89109  22665412.03806  22665415.06306
  20735921.77206 -18554235.06206 -14457816.31009  20735790.52006  20735792.17506
  24394842.10506  -4501745.20206  -3507850.61209  24394711.13506  24394714.79006
 92  8 19  3 11  0.0000000  0  8 11 23 17 25 12 28 21 15
  21304536.23306 -23767552.38606 -18520157.55009  21304404.86706  21304407.71906
  23171176.80606  -3652422.59506  -2846018.77509  23171045.49706  23171048.13206
  25003764.74006  17296765.09506  13477998.01709  25003633.43806  25003637.91906
  23750934.23906  -9576413.90906  -7462119.23109  23750803.11606  23750806.68406
  23661565.60106  -7292878.93506  -5682745.82009  23661434.63606  23661438.46206
  22681314.80406 -14110927.98506 -10995519.38409  22681183.18706  22681186.32206
  20740291.86906 -18531270.07406 -14439921.47909  20740160.58606  20740162.27406
  24374493.37706  -4608679.90206  -3591176.31809  24374362.08606  24374365.75006
 92  8 19  3 11 30.0000000  0  8 11 23 17 25 12 28 21 15
  21302398.00006 -23778788.74306 -18528913.14109  21302266.64006  21302269.53806
  23183336.37606  -3588523.49506  -2796227.26909  23183205.20206  23183207.76306
  25023856.49206  17402347.70306  13560270.20109  25023725.05806  25023729.70006
  23731624.17206  -9677887.70706  -7541189.59809  23731493.19906  23731496.67706
  23666210.22906  -7268471.49406  -5663727.01209  23666079.21706  23666083.10606
  22697129.74906 -14027819.75406 -10930759.76909  22696998.06106  22697001.21206
  20744694.07606 -18508135.72706 -14421894.67909  20744562.86006  20744564.55806
  24354144.09006  -4715616.95606  -3674503.86309  24354012.72606  24354016.38906
 92  8 19  3 12  0.0000000  0  8 11 23 17 25 12 28 21 15
  21300387.28206 -23789354.73306 -18537146.36909  21300255.99206  21300258.83106
  23195511.51606  -3524543.04806  -2746372.37509  23195380.14306  23195382.83806
  25043961.86406  17508003.68806  13642599.56109  25043830.74606  25043835.23606
  23712317.33306  -9779345.31506  -7620247.34709  23712186.32906  23712189.80406
  23670971.52606  -7243448.68006  -5644228.69609  23670840.89706  23670844.77106
  22712995.17606 -13944447.20606 -10865794.19409  22712863.43506  22712866.54606
  20749135.00006 -18484798.67206 -14403709.92509  20749003.73306  20749005.41006
  24333800.97006  -4822521.36406  -3757805.96409  24333669.40506  24333673.09506
 92  8 19  3 12 30.0000000  0  8 11 23 17 25 12 28 21 15
  21298514.11106 -23799197.71306 -18544816.21409  21298382.90206  21298385.79306
  23207712.13806  -3460428.36106  -2696412.88709  23207580.90006  23207583.46106
  25064089.83606  17613776.10006  13725019.65109  25063958.35706  25063962.90506
  23693022.10706  -9880743.88706  -7699259.09809  23692890.70006  23692894.21706
  23675860.59306  -7217758.81406  -5624210.58609  23675729.48606  23675733.27806
  22728917.99006 -13860772.73906 -10800593.35609  22728786.23706  22728789.38206
  20753625.83306 -18461198.69506 -14385320.29809  20753494.58206  20753496.27306
  24313474.45006  -4929338.31306  -3841039.91009  24313342.93306  24313346.42606
 92  8 19  3 13  0.0000000  0  8 11 23 17 25 12 28 21 15
  21296787.65206 -23808271.52306 -18551886.70709  21296656.21506  21296659.11706
  23219946.24806  -3396137.64306  -2646316.23009  23219814.91506  23219817.56706
  25084248.42006  17719706.94606  13807563.17509  25084116.56506  25084120.92306
  23673745.99906  -9982038.55706  -7778189.88909  23673614.82706  23673618.36006
  23680884.26206  -7191357.06506  -5603637.77509  23680753.60406  23680757.40006
  22744904.90506 -13776760.72606 -10735129.49409  22744773.29206  22744776.44506
  20758175.12106 -18437292.20506 -14366691.83109  20758043.82806  20758045.51506
  24293173.52006  -5036020.09006  -3924168.51309  24293041.90206  24293045.58606
 92  8 19  3 13 30.0000000  4  1
 -2356494.0000 -4646608.0000  3668427.0000                  APPROX POSITION XYZ
 92  8 19  3 13 30.0000000  0  8 11 23 17 25 12 28 21 15
  21295214.41806 -23816538.83906 -18558328.76609  21295083.00706  21295085.88406
  23232219.05206  -3331645.02106  -2596062.24809  23232087.52806  23232090.16406
  25104444.77306  17825839.88406  13890264.19509  25104312.99606  25104317.42506
  23654498.38806 -10083184.25706  -7857004.59209  23654367.38006  23654370.78406
  23686051.09806  -7164206.75906  -5582481.66909  23685920.11206  23685923.90106
  22760965.38806 -13692362.48706 -10669364.67609  22760833.86606  22760836.97606
  20762788.92106 -18413046.51306 -14347799.05109  20762657.67106  20762659.37306
  24272905.58606  -5142527.35906  -4007161.11509  24272774.16406  24272777.81306
 92  8 19  3 14  0.0000000  0  8 11 23 17 25 12 28 21 15
  21293798.66606 -23823977.60406 -18564125.20009  21293667.42206  21293670.31806
  23244533.04406  -3266934.53306  -2545638.49909  23244401.52506  23244404.13706
  25124686.13706  17932211.43406  13973151.13309  25124554.78506  25124559.02006
  23635288.73006 -10184133.29506  -7935666.05609  23635157.33406  23635160.72806
  23691363.72806  -7136287.30106  -5560726.22809  23691233.02906  23691236.94306
  22777103.26906 -13607557.59806 -10603282.98709  22776971.76306  22776974.85806
  20767471.46806 -18388439.64306 -14328624.83609  20767340.15906  20767341.83206
  24252675.39406  -5248836.52906  -4089999.34109  24252544.09706  24252547.81606
 92  8 19  3 14 30.0000000  0  8 11 23 17 25 12 28 21 15
  21292541.86006 -23830582.13306 -18569271.58009  21292410.61206  21292413.51106
  23256886.83506  -3202014.81306  -2495051.72309  23256755.29006  23256757.96406
  25144975.83406  18038837.14106  14056236.14009  25144844.76606  25144849.39506
  23616121.15206 -10284859.35806  -8014153.77209  23615989.73006  23615993.11606
  23696824.25906  -7107594.07306  -5538367.84609  23696693.23806  23696696.90006
  22793319.14606 -13522342.20006 -10536881.42709  22793187.55306  22793190.72806
  20772222.74606 -18363471.35706 -14309169.00309  20772091.45106  20772093.11106
  24232484.22206  -5354940.21806  -4172677.44309  24232353.13206  24232356.83306
 92  8 19  3 15  0.0000000  0  8 11 23 17 25 12 28 21 15
  21291443.40206 -23836355.47206 -18573770.28109  21291312.00006  21291314.87706
  23269282.07306  -3136876.55206  -2444294.65509  23269150.70306  23269153.45306
  25165314.71906  18145716.07206  14139518.45609  25165183.14606  25165187.77806
  23596997.54406 -10385352.71806  -8092460.15609  23596866.33806  23596869.63906
  23702430.59706  -7078130.90506  -5515409.51309  23702299.63806  23702303.61206
  22809612.09806 -13436722.12906 -10470164.53309  22809480.56506  22809483.65806
  20777041.60406 -18338148.03006 -14289436.51709  20776910.33706  20776911.99506
  24212332.12406  -5460839.26406  -4255196.07209  24212201.19506  24212204.80806
 92  8 19  3 15 30.0000000  0  8 11 23 17 25 12 28 21 15
  21290500.52006 -23841310.65606 -18577631.46009  21290369.09606  21290371.95606
  23281717.67306  -3071527.34706  -2393373.21609  23281586.23206  23281588.87606
  25185696.44706  18252823.63306  14222978.92709  25185565.04806  25185569.72906
  23577915.75006 -10485627.30306  -8170596.06909  23577784.62906  23577787.89806
  23708180.99306  -7047912.09006  -5491862.35909  23708050.24706  23708053.91106
  22825980.17106 -13350707.40406 -10403140.11309  22825848.57306  22825851.79206
  20781926.61906 -18312476.51706 -14269432.72309  20781795.38706  20781797.05506
  24192216.87806  -5566544.73606  -4337563.86709  24192085.84006  24192089.64706
 92  8 19  3 16  0.0000000  0  8 11 23 17 25 12 28 21 15
  21289709.53206 -23845465.97206 -18580869.36709  21289578.34106  21289581.22306
  23294193.59906  -3005966.34206  -2342286.74009  23294062.02406  23294064.78706
  25206114.24506  18360119.43706  14306586.07409  25205982.71306  25205987.31106
  23558870.43606 -10585711.53706  -8248583.65309  23558739.15706  23558742.45506
  23714071.44906  -7016957.09506  -5467741.55609  23713940.71306  23713944.55706
  22842417.11706 -13264332.39206 -10335834.94609  22842285.39206  22842288.56906
  20786875.04206 -18286472.08306 -14249169.51309  20786743.79906  20786745.43906
  24172135.25506  -5672073.01806  -4419793.58809  24172004.44206  24172008.07006
 92  8 19  3 16 30.0000000  0  8 11 23 17 25 12 28 21 15
  21289065.79206 -23848849.25406 -18583505.68809  21288934.47606  21288937.36006
  23306707.09006  -2940207.70306  -2291046.26109  23306575.57806  23306578.23206
  25226558.02606  18467552.79406  14390300.41309  25226426.72806  25226431.19706
  23539851.32306 -10685656.01306  -8326462.33509  23539720.33006  23539723.50506
  23720096.59006  -6985294.64006  -5443069.48009  23719965.88806  23719969.76806
  22858912.64706 -13177646.66206 -10268287.65909  22858781.05606  22858784.22806
  20791880.85906 -18260166.28106 -14228671.47309  20791749.57706  20791751.24006
  24152082.78806  -5777450.09306  -4501905.48909  24151951.69206  24151955.38406
 92  8 19  3 17  0.0000000  0  8 11 23 17 25 12 28 21 15
  21288557.22806 -23851522.25006 -18585588.54209  21288425.83006  21288428.71406
  23319247.07706  -2874309.34506  -2239696.91409  23319115.65506  23319118.36306
  25247017.21106  18575063.52306  14474075.05209  25246885.33706  25246889.67906
  23520845.51606 -10785531.22406  -8404287.04609  23520714.46206  23520717.73806
  23726244.55106  -6952987.54406  -5417895.10109  23726113.57806  23726117.40606
  22875452.74706 -13090727.73306 -10200558.66109  22875321.17406  22875324.35206
  20796933.86006 -18233612.33406 -14207980.07909  20796802.66506  20796804.28206
  24132047.78706  -5882735.26006  -4583945.78109  24131916.71306  24131920.33006
 92  8 19  3 17 30.0000000  0  8 11 23 17 25 12 28 21 15
  21288172.59106 -23853542.80806 -18587163.00209  21288041.32606  21288044.24506
  23331799.21906  -2808347.39106  -2188298.00709  23331667.85106  23331670.50206
  25267480.57206  18682597.54806  14557867.83009  25267348.38606  25267352.51206
  23501841.17006 -10885399.98506  -8482106.73209  23501710.02806  23501713.25506
  23732503.71006  -6920094.72006  -5392264.30609  23732372.99606  23732376.67006
  22892025.16806 -13003639.15206 -10132697.46809  22891893.63706  22891896.84706
  20802022.69806 -18206870.88306 -14187142.57709  20801891.48006  20801893.13606
  24112019.54206  -5987984.49706  -4665958.08709  24111888.32306  24111891.87606
 92  8 19  3 18  0.0000000  0  8 11 23 17 25 12 28 21 15
  21287908.34206 -23854931.45406 -18588245.06409  21287777.08206  21287780.00006
  23344357.60906  -2742352.50906  -2136873.44209  23344226.29006  23344229.00006
  25287946.03806  18790147.09906  14641672.71609  25287814.50706  25287818.44806
  23482838.17106 -10985261.50506  -8559920.77809  23482706.98206  23482710.09706
  23738870.35706  -6886637.88106  -5366194.02409  23738739.53006  23738743.28806
  22908622.66606 -12916418.34406 -10064733.23809  22908491.11706  22908494.36806
  20807143.00906 -18179963.53706 -14166175.81109  20807011.74106  20807013.39206
  24091994.64006  -6093216.05506  -4747956.63109  24091863.48206  24091866.95206
 92  8 19  3 18 30.0000000  0  8 11 23 17 25 12 28 21 15
  21287762.30306 -23855699.10406 -18588843.23209  21287631.00906  21287633.94206
  23356916.28106  -2676357.53906  -2085448.80709  23356784.74706  23356787.42606
  25308415.33506  18897716.99106  14725493.44709  25308284.18706  25308288.21506
  23463837.79306 -11085108.81206  -8637723.75209  23463706.57506  23463709.69706
  23745342.27706  -6852628.71506  -5339693.35109  23745211.31106  23745214.89106
  22925244.03306 -12829074.66806  -9996673.26409  22925112.24306  22925115.51706
  20812292.47506 -18152902.77906 -14145089.50509  20812161.21906  20812162.87206
  24071971.72006  -6198438.39806  -4829948.00009  24071840.36106  24071843.73906
 92  8 19  3 19  0.0000000  0  8 11 23 17 25 12 28 21 15
  21287734.34006 -23855846.34806 -18588957.97109  21287603.02006  21287605.91806
  23369471.91606  -2610375.59806  -2034034.32209  23369340.62206  23369343.30506
  25328889.87006  19005315.49806  14809336.46109  25328759.34506  25328763.55806
  23444842.69706 -11184926.61906  -8715503.74309  23444711.69006  23444714.75406
  23751918.14106  -6818069.09506  -5312763.75309  23751787.64506  23751791.47306
  22941892.13206 -12741586.88906  -9928501.00609  22941760.57006  22941763.83906
  20817470.24206 -18125693.34106 -14123887.34609  20817338.97306  20817340.65806
  24051950.68506  -6303649.84906  -4911930.90009  24051819.27706  24051822.60106
 92  8 19  3 19 30.0000000  0  8 11 23 17 25 12 28 21 15
  21287824.57206 -23855372.07506 -18588588.40809  21287693.27106  21287696.13706
  23382024.94206  -2544410.49706  -1982632.95709  23381893.57306  23381896.20606
  25349368.70406  19112932.23306  14893193.68409  25349238.17806  25349242.55606
  23425853.62806 -11284713.28106  -8793259.46409  23425722.75906  23425725.84106
  23758599.77106  -6782958.91706  -5285405.15709  23758469.00806  23758472.76806
  22958572.98306 -12653929.69706  -9860196.73909  22958441.22906  22958444.44506
  20822675.78106 -18098338.11506 -14102571.58609  20822544.56106  20822546.21106
  24031932.30606  -6408846.98506  -4993902.64809  24031800.91406  24031804.23406
 92  8 19  3 20  0.0000000  0  8 11 23 17 25 12 28 21 15
  21288032.84206 -23854277.20406 -18587735.26309  21287901.59506  21287904.47806
  23394577.01406  -2478449.28906  -1931234.62209  23394445.50106  23394448.12206
  25369850.05906  19220558.46106  14977058.31509  25369718.48206  25369723.07906
  23406872.07406 -11384462.26606  -8870985.82809  23406741.03606  23406744.01306
  23765385.43106  -6747299.96206  -5257618.93409  23765254.59506  23765258.43006
  22975286.30606 -12566100.54306  -9791758.48009  22975154.68606  22975157.88906
  20827911.61806 -18070823.94506 -14081131.97509  20827780.31506  20827781.98006
  24011917.17106  -6514028.17506  -5075861.98209  24011785.60406  24011788.95306
 92  8 19  3 20 30.0000000  0  8 11 23 17 25 12 28 21 15
  21288363.28106 -23852541.00306 -18586382.38009  21288231.98106  21288234.87206
  23407134.41006  -2412458.55506  -1879813.27709  23407002.98806  23407005.74206
  25390336.65006  19328214.91506  15060946.54509  25390204.79906  25390209.43106
  23387896.70206 -11484179.35806  -8948687.33509  23387765.48106  23387768.55606
  23772279.44606  -6711072.62906  -5229389.82109  23772148.48006  23772152.19806
  22992038.61006 -12478066.73506  -9723160.74609  22991906.81706  22991910.09706
  20833181.14606 -18043132.24906 -14059554.03209  20833049.83406  20833051.46706
  23991909.28806  -6619170.74306  -5157791.21709  23991777.63706  23991780.96506
 92  8 19  3 21  0.0000000  0  8 11 23 17 25 12 28 21 15
  21288816.34706 -23850160.25506 -18584527.25109  21288685.02106  21288687.96706
  23419699.95206  -2346426.60906  -1828359.81509  23419568.54106  23419571.17606
  25410826.83706  19435892.80506  15144851.45809  25410695.56706  25410699.61506
  23368927.24206 -11583864.77806  -9026364.15609  23368795.93006  23368798.95806
  23779281.68806  -6674274.58206  -5200715.99309  23779150.84006  23779154.54906
  23008829.32106 -12389830.67106  -9654405.41209  23008697.87406  23008701.21606
  20838485.11706 -18015259.56806 -14037835.06009  20838353.85706  20838355.50706
  23971909.74406  -6724268.86606  -5239685.82509  23971778.15606  23971781.53206
 92  8 19  3 21 30.0000000  0  8 11 23 17 25 12 28 21 15
  21289388.00306 -23847156.12706 -18582186.37309  21289256.69706  21289259.57406
  23432270.65606  -2280365.32606  -1776883.49209  23432139.56006  23432142.18906
  25431316.72606  19543566.11606  15228752.77909  25431185.17006  25431189.50406
  23349959.21106 -11683542.44406  -9104034.94309  23349827.88906  23349830.76406
  23786388.22606  -6636928.21006  -5171614.89709  23786257.62806  23786261.21406
  23025649.48606 -12301440.47006  -9585529.97309  23025517.81106  23025521.23206
  20843820.33506 -17987223.04406 -14015988.41709  20843689.00906  20843690.64306
  23951915.14306  -6829341.04206  -5321560.21309  23951783.57606  23951786.85906
 92  8 19  3 22  0.0000000  0  8 11 23 17 25 12 28 21 15
  21290077.62906 -23843532.19706 -18579362.53009  21289946.32906  21289949.21206
  23444849.76706  -2214263.63406  -1725375.67709  23444718.35806  23444720.95306
  25451804.84206  19651228.47006  15312645.53709  25451672.59706  25451676.69506
  23330994.34906 -11783203.28006  -9181692.62609  23330862.89806  23330865.84006
  23793598.85006  -6599038.04006  -5142090.06209  23793467.85806  23793471.62006
  23042491.21406 -12212936.40606  -9516565.81609  23042359.59306  23042363.08906
  20849183.95706 -17959036.78606 -13994025.09709  20849052.68206  20849054.29906
  23931925.13806  -6934388.61406  -5403415.42909  23931793.68806  23931796.95306
 92  8 19  3 22 30.0000000  0  8 11 23 17 25 12 28 21 15
  21290888.25806 -23839271.87706 -18576042.79609  21290757.02106  21290759.93606
  23457438.98906  -2148106.21406  -1673824.44309  23457307.66906  23457310.26106
  25472293.05806  19758894.47706  15396541.18309  25472160.93006  25472164.39006
  23312037.39806 -11882822.90606  -9259318.19609  23311905.83906  23311908.74606
  23800915.25506  -6560588.24706  -5112129.16509  23800784.55006  23800788.25306
  23059355.75706 -12124313.93606  -9447509.39709  23059223.99506  23059227.45506
  20854576.23806 -17930700.67306 -13971945.00209  20854444.94206  20854446.58806
  23911943.46306  -7039392.14406  -5485236.31909  23911812.04206  23911815.38206
 92  8 19  3 23  0.0000000  0  8 11 23 17 25 12 28 21 15
  21291828.39306 -23834331.77006 -18572193.35709  21291697.10806  21291699.98606
  23470045.41606  -2081858.79906  -1622203.08109  23469914.08406  23469916.80406
  25492788.60506  19866601.96006  15480469.10009  25492656.87406  25492660.68006
  23293101.83106 -11982327.19906  -9336853.90009  23292970.67506  23292973.55506
  23808346.68906  -6521536.57606  -5081699.27109  23808215.85906  23808219.62506
  23076248.20606 -12035543.96106  -9378338.04609  23076116.42006  23076119.74406
  20860005.03906 -17902171.13906 -13949714.18509  20859873.80506  20859875.44506
  23891979.11906  -7144305.67706  -5566987.07509  23891847.62906  23891850.96206
 92  8 19  3 23 30.0000000  0  8 11 23 17 25 12 28 21 15
  21292904.97206 -23828674.50306 -18567785.09109  21292773.65406  21292776.52506
  23482675.51706  -2015486.74506  -1570484.60309  23482544.29906  23482546.93406
  25513299.23106  19974387.80206  15564458.11909  25513167.86306  25513171.61106
  23274197.18306 -12081671.55606  -9414264.98209  23274066.09906  23274068.89706
  23815899.16006  -6481846.66106  -5050772.04309  23815768.65206  23815772.32906
  23093175.30706 -11946591.82906  -9309024.75709  23093043.59506  23093046.95806
  20865479.63006 -17873402.33906 -13927296.92409  20865348.35606  20865349.95106
  23872039.55206  -7249089.20606  -5648636.51609  23871907.91206  23871911.25806
 92  8 19  3 24  0.0000000  0  7 11 23 25 12 28 15 21
  21294123.60306 -23822270.33806 -18562794.82309  21293992.29406  21293995.19906
  23495333.39106  -1948969.48506  -1518652.98109  23495202.17606  23495204.80906
  23255330.18606 -12180816.95406  -9491521.02909  23255199.24206  23255202.03006
  23823579.26306  -6441489.68206  -5019325.02609  23823448.25406  23823451.90606
  23110147.16506 -11857403.59406  -9239527.49009  23110015.43306  23110018.93006
  23852130.61706  -7353710.23106  -5730159.32509  23851999.11006  23852002.55206
  20871006.06006 -17844360.55706 -13904666.94509  20870874.82206  20870876.44406
 92  8 19  3 24 30.0000000  0  7 11 23 25 12 28 15 21
  21295489.21106 -23815093.69006 -18557202.62109  21295357.93806  21295360.86106
  23508021.20306  -1882296.62806  -1466700.11809  23507889.67306  23507892.31806
  23236506.59106 -12279734.55006  -9568599.56709  23236375.77506  23236378.48106
  23831390.39906  -6400441.07706  -4987339.06809  23831259.52506  23831263.22506
  23127172.30906 -11767933.78806  -9169810.81709  23127040.83806  23127044.29006
  23832258.17106  -7458140.19806  -5811533.25009  23832126.66906  23832129.96906
  20876592.92706 -17815000.95006 -13881789.30609  20876461.68106  20876463.30306
 92  8 19  3 25  0.0000000  0  7 11 23 25 12 28 15 21
  21297009.46306 -23807104.95406 -18550977.62309  21296878.14606  21296881.02106
  23520743.30906  -1815439.33406  -1414603.54309  23520612.11306  23520614.88606
  23217733.61506 -12378387.82206  -9645472.14309  23217602.69506  23217605.40706
  23839340.57906  -6358662.19306  -4954784.07409  23839209.78706  23839213.44006
  23144260.20306 -11678136.20406  -9099838.73809  23144128.75206  23144132.21906
  23812430.11606  -7562336.75206  -5892725.29109  23812298.67006  23812302.05506
  20882248.93706 -17785278.39706 -13858628.84809  20882117.66606  20882119.32706
 92  8 19  3 25 30.0000000  0  7 11 23 25 12 28 15 21
  21298687.84006 -23798284.98806 -18544104.91309  21298556.53906  21298559.37906
  23533505.11806  -1748376.85206  -1362347.07609  23533373.67106  23533376.36306
  23199012.42506 -12476768.91006  -9722132.63209  23198881.19206  23198883.87106
  23847433.07006  -6316134.84506  -4921645.85809  23847302.44506  23847306.26706
  23161415.63206 -11587985.63706  -9029591.61209  23161284.25006  23161287.68706
  23792650.53106  -7666278.02206  -5973718.40809  23792519.17806  23792522.49706
  20887977.21206 -17755176.30206 -13835172.64009  20887845.89906  20887847.54806
 92  8 19  3 26  0.0000000  0  7 11 23 25 12 28 15 21
  21300523.99506 -23788635.77306 -18536586.03709  21300392.73906  21300395.59006
  23546306.13806  -1681106.82206  -1309928.89209  23546174.74706  23546177.38706
  23180344.45006 -12574870.25606  -9798575.14209  23180213.12806  23180215.82706
  23855667.62106  -6272861.92306  -4887926.67709  23855536.95106  23855540.66406
  23178635.61006 -11497492.70306  -8959077.70509  23178504.49406  23178507.95506
  23772919.97706  -7769963.12606  -6054511.91309  23772788.48506  23772791.77606
  20893775.51206 -17724705.75806 -13811429.32809  20893644.28206  20893645.87606
 92  8 19  3 26 30.0000000  0  7 11 23 25 12 28 15 21
  21302514.89906 -23778173.68906 -18528433.75609  21302383.58606  21302386.41206
  23559144.59006  -1613640.38206  -1257357.65709  23559013.29006  23559015.88106
  23161726.28706 -12672707.87806  -9874812.15109  23161595.16306  23161597.84506
  23864041.02006  -6228860.68506  -4853639.97709  23863910.13906  23863913.73506
  23195912.42806 -11406704.10806  -8888333.41109  23195780.87906  23195784.40906
  23753235.47006  -7873405.49506  -6135116.27809  23753104.04506  23753107.37106
  20899640.80506 -17693883.14406 -13787411.67409  20899509.58206  20899511.16906
 92  8 19  3 27  0.0000000  0  7 11 23 25 12 28 15 21
  21304657.35506 -23766914.90006 -18519660.66609  21304526.07106  21304528.93406
  23572019.99106  -1545979.59006  -1204634.98409  23571888.61506  23571891.28806
  23143154.82806 -12770300.90906  -9950858.57209  23143023.67706  23143026.30706
  23872549.40506  -6184148.09606  -4818798.96709  23872418.61806  23872422.17706
  23213240.67706 -11315644.17206  -8817377.67909  23213109.19406  23213112.75206
  23733594.67206  -7976618.60006  -6215541.99709  23733463.25506  23733466.54806
  20905567.58306 -17662737.61806 -13763142.40209  20905436.35606  20905437.93806
 92  8 19  3 27 30.0000000  0  7 11 23 25 12 28 15 21
  21306947.94506 -23754877.80006 -18510281.09809  21306816.63206  21306819.47006
  23584934.54706  -1478111.79406  -1151751.01509  23584803.49406  23584806.23606
  23124627.28306 -12867664.02406 -10026725.84209  23124496.05606  23124498.77806
  23881189.63206  -6138743.75806  -4783418.93209  23881058.71806  23881062.35906
  23230613.75806 -11224350.59706  -8746239.88709  23230481.97706  23230485.49206
  23713994.61606  -8079617.61206  -6295800.90409  23713863.20906  23713866.28706
  20911553.23006 -17631282.62806 -13738631.98909  20911422.02006  20911423.58906
 92  8 19  3 28  0.0000000  0  7 11 23 25 12 28 15 21
  21309376.42106 -23742115.88306 -18500336.74009  21309245.14106  21309247.99906
  23597882.40706  -1410072.12406  -1098733.11709  23597751.01706  23597753.68406
  23106133.77706 -12964846.56106 -10102452.39909  23106002.83206  23106005.42306
  23889950.93706  -6092701.86706  -4747542.11009  23889820.21006  23889823.87006
  23248018.09006 -11132889.25706  -8674971.36609  23247886.44406  23247890.07806
  23694425.82906  -8182452.88906  -6375932.23709  23694294.28406  23694297.36306
  20917590.14006 -17599558.26906 -13713911.68309  20917458.91606  20917460.52006
 92  8 19  3 28 30.0000000  0  7 11 23 25 12 28 15 21
  21311932.19606 -23728685.33106 -18489871.36709  21311800.91006  21311803.74406
  23610852.76206  -1341911.41006  -1045620.89709  23610721.58206  23610724.27506
  23087661.43006 -13061918.68206 -10178092.92009  23087530.43906  23087533.06406
  23898822.72506  -6046079.63906  -4711213.07709  23898692.04306  23898695.66506
  23265444.84206 -11041310.92606  -8603611.68409  23265313.13806  23265316.74406
  23674877.90806  -8285177.26306  -6455977.15809  23674746.41406  23674749.43306
  20923667.74106 -17567620.34606 -13689024.96709  20923536.50006  20923538.05906
 92  8 19  3 29  0.0000000  0  7 11 23 25 12 28 15 21
  21314606.88406 -23714629.98306 -18478919.14109  21314475.52206  21314478.37106
  23623838.77506  -1273670.73106   -992446.37009  23623707.34706  23623710.10406
  23069201.08306 -13158928.28206 -10253684.73609  23069069.95606  23069072.50406
  23907796.72806  -5998921.76406  -4674466.65909  23907666.07206  23907669.58706
  23282888.00206 -10949645.83706  -8532184.39409  23282756.46606  23282760.10706
  23655343.36706  -8387831.44706  -6535967.38409  23655211.87206  23655214.99206
  20929776.76006 -17535516.95606 -13664009.31909  20929645.52906  20929647.10706
 92  8 19  3 29 30.0000000  0  7 11 23 25 12 28 15 21
  21317396.67606 -23699969.23506 -18467495.17809  21317265.37406  21317268.20306
  23636833.23006  -1205383.26506   -939235.38109  23636702.09406  23636704.78306
  23050749.26706 -13255894.20706 -10329242.52209  23050617.94706  23050620.46706
  23916868.81506  -5951248.59106  -4637318.71509  23916737.93506  23916741.47606
  23300343.55506 -10857915.83206  -8460706.51209  23300212.08106  23300215.72006
  23635819.08206  -8490431.81206  -6615915.66509  23635687.63406  23635690.71906
  20935914.63106 -17503261.77306 -13638875.39709  20935783.44906  20935784.99406
 92  8 19  3 30  0.0000000  0  7 11 23 25 12 28 15 21
  21320301.99906 -23684701.75406 -18455598.43709  21320170.70006  21320173.49006
  23649829.48906  -1137089.25306   -886019.29009  23649698.06206  23649700.69206
  23032307.51206 -13352806.33706 -10404758.38909  23032176.23206  23032178.70806
  23926038.73606  -5903059.54806  -4599768.79809  23925907.87306  23925911.53906
  23317815.12606 -10766100.23806  -8389161.93509  23317684.19206  23317687.73106
  23616305.98306  -8592973.88706  -6695818.52509  23616174.51506  23616177.58406
  20942080.01406 -17470862.98606 -13613629.57809  20941948.73006  20941950.34406
 92  8 19  3 30 30.0000000  0  7 11 23 25 12 28 15 21
  21323325.70106 -23668812.18106 -18443216.95109  21323194.40306  21323197.17706
  23662825.06706  -1068797.34306   -832804.84209  23662693.56106  23662696.29606
  23013880.81106 -13449639.46606 -10480212.67709  23013749.41906  23013751.92406
  23935309.61906  -5854340.08606  -4561805.55609  23935178.83906  23935182.34606
  23335307.63306 -10674177.21806  -8317533.64909  23335176.53406  23335180.09406
  23596807.73206  -8695438.88706  -6775661.31609  23596676.05106  23596679.11206
  20948272.92606 -17438318.82806 -13588270.48809  20948141.73506  20948143.28006
 92  8 19  3 31  0.0000000  0  7 11 23 25 12 28 15 21
  21326466.86306 -23652304.94606 -18430354.16709  21326335.59006  21326338.39306
  23675816.60606  -1000526.25906   -779606.61809  23675685.20706  23675687.78806
  22995470.82706 -13546383.98806 -10555597.93809  22995339.50206  22995341.96906
  23944680.46306  -5805095.62706  -4523433.23309  23944549.73806  23944553.33506
  23352817.49006 -10582162.04006  -8245833.54909  23352686.41706  23352689.96306
  23577323.77606  -8797827.88106  -6855444.87409  23577192.13206  23577195.09806
  20954492.53706 -17405634.95906 -13562802.53509  20954361.27706  20954362.82106
 92  8 19  3 31 30.0000000  0  7 11 23 25 12 28 15 21
  21329723.19206 -23635193.09006 -18417020.25109  21329591.86406  21329594.68106
  23688801.05406   -932291.27106   -726436.52109  23688669.94006  23688672.56006
  22977080.05506 -13643026.81806 -10630903.96209  22976948.92706  22976951.40806
  23954148.99206  -5755339.99006  -4484662.59409  23954018.04906  23954021.53806
  23370340.83606 -10490077.15006  -8174079.13409  23370209.55806  23370213.14606
  23557852.35506  -8900150.70106  -6935176.85709  23557720.68106  23557723.59106
  20960738.87606 -17372810.15406 -13537224.76409  20960607.69206  20960609.21706
 92  8 19  3 32  0.0000000  0  7 11 23 25 12 28 15 21
  21333095.02106 -23617473.99706 -18403213.16609  21332963.73506  21332966.52906
  23701779.56306   -864088.41306   -673291.46409  23701648.39606  23701651.17506
  22958711.16406 -13739554.82206 -10706120.50509  22958580.23406  22958582.63306
  23963714.62506  -5705071.42806  -4445492.27309  23963583.77106  23963587.43106
  23387876.95406 -10397925.43806  -8102272.64709  23387745.52406  23387749.27606
  23538394.77506  -9002400.96306  -7014852.29409  23538263.02706  23538265.85506
  20967013.96706 -17339834.34306 -13511529.32709  20966882.72506  20966884.27806
 92  8 19  3 32 30.0000000  0  7 11 23 25 12 28 15 21
  21336586.47006 -23599126.26406 -18388916.22909  21336455.18606  21336457.95606
  23714761.70806   -795867.09406   -620132.01709  23714630.59906  23714633.31106
  22940368.02706 -13835948.63306 -10781232.48609  22940236.98906  22940239.43506
  23973381.78906  -5654269.45406  -4405906.31609  23973250.97206  23973254.74806
  23405425.24706 -10305711.00906  -8030417.28509  23405293.50106  23405297.20506
  23518955.64806  -9104553.83406  -7094451.83509  23518823.88106  23518826.71206
  20973323.71106 -17306676.16306 -13485691.78609  20973192.54206  20973194.06306
 92  8 19  3 33  0.0000000  0  7 11 23 25 12 28 15 21
  21340198.05106 -23580147.41706 -18374127.51309  21340066.67906  21340069.52106
  23727749.97506   -727614.19506   -566947.96209  23727618.66806  23727621.34806
  22922051.26306 -13932203.77106 -10856236.41009  22921920.23006  22921922.58606
  23983150.77906  -5602932.10206  -4365903.17809  23983020.10406  23983023.81406
  23422982.79906 -10213445.22306  -7958521.90609  23422850.90306  23422854.72206
  23499536.25106  -9206603.48206  -7173970.94609  23499404.51506  23499407.22106
  20979671.47506 -17273318.91006 -13459699.12309  20979540.22506  20979541.78806
 92  8 19  3 33 30.0000000  0  7 11 21 23 25 12 28 15
  21343933.38806 -23560518.15706 -18358831.98409  21343802.04906  21343804.83306
  20986062.20706 -17239735.64206 -13433530.34509  20985930.93806  20985932.51806
  23740750.90606   -659293.80706   -513711.32409  23740619.54606  23740622.28606
  22903763.73606 -14028305.84706 -10931121.06209  22903632.52306  22903634.88906
  23993025.27406  -5551041.17706  -4325468.68609  23992894.61306  23992898.16106
  23440555.17306 -10121103.37606  -7886567.26609  23440423.09406  23440426.79306
  23480140.79006  -9308527.24606  -7253391.97009  23480008.95506  23480011.67106
 92  8 19  3 34  0.0000000  0  7 11 21 23 25 12 28 15
  21347800.25806 -23540197.40706 -18342997.63009  21347668.94606  21347671.75206
  20992500.26406 -17205903.04106 -13407167.28009  20992369.05206  20992370.58906
  23753774.33106   -590855.75606   -460383.00409  23753642.98706  23753645.72206
  22885508.90906 -14124234.85806 -11005870.87009  22885377.67206  22885380.02806
  24003013.15506  -5498556.38806  -4284571.44109  24002882.27206  24002885.75406
  23458147.56406 -10028654.54206  -7814529.26109  23458015.69506  23458019.32506
  23460777.69406  -9410280.38806  -7332680.04309  23460645.92506  23460648.58606
 92  8 19  3 34 30.0000000  0  7 11 21 23 25 12 28 15
  21351805.27806 -23519151.00406 -18326597.83209  21351673.96306  21351676.69706
  20998991.80406 -17171789.56106 -13380585.34409  20998860.57106  20998862.12006
  23766829.80306   -522249.47406   -406923.59409  23766698.22306  23766701.05506
  22867294.54906 -14219952.48206 -11080455.97309  22867163.37106  22867165.69306
  24013120.29606  -5445444.09806  -4243185.21909  24012989.23706  24012992.75206
  23475766.96906  -9936062.56906  -7742379.72209  23475635.25106  23475639.05406
  23441454.39306  -9511824.73606  -7411805.42209  23441322.52806  23441325.25906
 92  8 19  3 35  0.0000000  0  7 11 21 23 25 12 28 15
  21355954.96006 -23497344.38206 -18309605.65209  21355823.57406  21355826.38806
  21005542.60906 -17137365.07606 -13353761.06409  21005411.33906  21005412.90406
  23779922.64906   -453445.22306   -353309.92209  23779791.32106  23779794.12406
  22849127.59606 -14315419.54606 -11154845.81909  22848996.51506  22848998.80906
  24023352.81006  -5391670.74306  -4201283.89509  24023221.89906  24023225.40406
  23493425.57806  -9843265.22506  -7670070.14409  23493293.96106  23493297.80706
  23422178.05606  -9613122.27506  -7490738.48909  23422046.23406  23422048.78906
 92  8 19  3 35 30.0000000  0  7 11 21 23 25 12 28 15
  21360254.80706 -23474748.57206 -18291998.52009  21360123.44006  21360126.21906
  21012156.61906 -17102608.14806 -13326677.73609  21012025.37506  21012026.89706
  23793058.54206   -384416.32906   -299521.20309  23792927.07506  23792929.88206
  22831013.46506 -14410608.02406 -11229018.57509  22830882.53706  22830884.86006
  24033716.35406  -5337208.07306  -4158845.44409  24033585.77706  24033589.45006
  23511133.34006  -9750209.98706  -7597559.60809  23511001.96606  23511005.74506
  23402954.74506  -9714140.81006  -7569454.16109  23402822.99106  23402825.52306
 92  8 19  3 36  0.0000000  0  7 11 21 23 25 12 28 15
  21364707.51706 -23451349.03906 -18273765.11109  21364576.22706  21364579.02006
  21018836.67606 -17067504.35706 -13299324.12109  21018705.38106  21018706.95806
  23806236.25806   -315166.00706   -245559.93309  23806104.97306  23806107.83006
  22812959.18406 -14505483.45606 -11302947.40109  22812828.37106  22812830.64706
  24044214.00206  -5282042.26506  -4115859.10509  24044083.43306  24044087.08606
  23528892.22706  -9656888.08106  -7524841.29009  23528760.67006  23528764.42606
  23383788.23606  -9814861.50606  -7647937.76009  23383656.39606  23383658.96606
 92  8 19  3 36 30.0000000  0  7 11 21 23 25 12 28 15
  21369315.59706 -23427133.11006 -18254895.54909  21369184.33606  21369187.18506
  21025586.80906 -17032031.74406 -13271683.10909  21025455.54106  21025457.09106
  23819458.12506   -245684.95506   -191418.87309  23819326.80706  23819329.61306
  22794969.41806 -14600021.04306 -11376612.96209  22794838.42606  22794840.62006
  24054848.03006  -5226161.55506  -4072315.68609  24054717.26006  24054720.73606
  23546706.87506  -9563271.26106  -7451893.17009  23546575.29306  23546579.07706
  23364681.34906  -9915267.97006  -7726176.50309  23364549.57706  23364552.18606
 92  8 19  3 37  0.0000000  0  7 11 21 23 25 12 28 15
  21374076.46506 -23402115.47906 -18235401.28509  21373945.03106  21373947.83406
  21032405.61906 -16996198.98206 -13243761.46009  21032274.36406  21032275.82706
  23832719.98206   -175994.48306   -137114.62309  23832588.58106  23832591.27406
  22777040.96306 -14694235.89106 -11450027.03109  22776909.92006  22776912.09106
  24065615.18606  -5169581.17606  -4028227.07509  24065484.18006  24065487.51206
  23564573.63606  -9469380.09406  -7378731.28109  23564442.14506  23564445.90006
  23345632.28406 -10015371.11206  -7804178.89309  23345500.55006  23345503.21806
 92  8 19  3 37 30.0000000  0  7 11 21 23 25 12 28 15
  21378986.31206 -23376313.50606 -18215295.84709  21378854.98306  21378857.76406
  21039291.50706 -16960012.97506 -13215564.55109  21039160.28006  21039161.81406
  23846017.37006   -106115.48506    -82663.46709  23845886.05806  23845888.89006
  22759172.89306 -14788133.23506 -11523193.69809  22759041.72606  22759043.93706
  24076511.81206  -5112319.35406  -3983607.47209  24076380.67906  24076384.10306
  23582482.68406  -9375268.77606  -7305397.84309  23582351.09806  23582354.99006
  23326638.38806 -10115184.43106  -7881955.44809  23326506.64706  23326509.27106
 92  8 19  3 38  0.0000000  0  7 11 21 23 25 12 28 15
  21384041.23306 -23349749.24206 -18194596.41709  21383910.00906  21383912.74506
  21046242.27706 -16923486.24106 -13187102.13809  21046111.07006  21046112.57206
  23859351.10606    -36047.17106    -28064.78909  23859219.71406  23859222.48106
  22741361.84606 -14881730.42706 -11596126.49309  22741230.68306  22741232.87506
  24087533.46006  -5054398.86106  -3938474.61709  24087402.60406  24087406.03706
  23600425.51706  -9280980.65906  -7231926.64009  23600293.52106  23600297.40606
  23307696.07406 -10214726.05506  -7959520.28909  23307564.46706  23307567.11406
 92  8 19  3 38 30.0000000  0  7 11 21 23 25 12 28 15
  21389231.88406 -23322472.76206 -18173342.01709  21389100.53406  21389103.29306
  21053248.24306 -16886670.04006 -13158414.16609  21053116.95706  21053118.46906
  23872713.57406     34172.78106     26652.05909  23872582.05906  23872584.81106
  22723596.46406 -14975087.60506 -11668872.24509  22723465.31506  22723467.51806
  24098670.66706  -4995870.46706  -3892868.07709  24098540.11906  24098543.66506
  23618393.10106  -9186559.02406  -7158351.40109  23618261.32506  23618265.10706
  23288796.73906 -10314042.32206  -8036909.52609  23288665.12106  23288667.73306
 92  8 19  3 39  0.0000000  0  7 11 21 23 25 12 28 15
  21394545.90706 -23294547.29206 -18151581.90909  21394414.56806  21394417.34606
  21060298.25006 -16849621.85806 -13129545.42709  21060166.93606  21060168.45606
  23886090.31006    104468.17306     81427.69409  23885958.69506  23885961.56606
  22705867.77306 -15068251.74806 -11741467.59309  22705736.76306  22705738.95506
  24109912.00106  -4936797.93406  -3846837.54209  24109781.20306  24109784.99006
  23636373.66406  -9092071.61106  -7084724.90709  23636241.84806  23636245.61506
  23269929.06306 -10413192.32506  -8114169.20209  23269797.45606  23269800.05706
 92  8 19  3 39 30.0000000  0  7 11 21 23 25 12 28 15
  21399975.70906 -23266013.04506 -18129347.43309  21399844.47806  21399847.23906
  21067383.26506 -16812389.11706 -13100532.87909  21067252.08306  21067253.59106
  23899475.28906    174807.53706    136237.59209  23899343.94906  23899346.76206
  22688170.24706 -15161253.43606 -11813936.34509  22688039.06806  22688041.15306
  24121248.94706  -4877222.37306  -3800415.03209  24121118.14106  24121121.85706
  23654357.35106  -8997565.26106  -7011083.65809  23654225.83906  23654229.56306
  23251086.08406 -10512212.40106  -8191327.63409  23250954.40606  23250957.08606
 92  8 19  3 40  0.0000000  0  7 11 21 23 25 12 28 15
  21405517.42506 -23236891.88606 -18106655.62509  21405386.07906  21405388.86206
  21074498.84106 -16774996.74906 -13071395.94609  21074367.59706  21074369.09506
  23912866.20006    245177.17906    191071.08509  23912734.81006  23912737.64306
  22670498.22206 -15254119.73406 -11886299.61209  22670367.11606  22670369.18706
  24132677.51306  -4817166.24506  -3753618.06009  24132546.57406  24132550.01806
  23672341.81606  -8903057.12106  -6937441.01909  23672210.24206  23672214.06906
  23232264.34406 -10611120.48206  -8268398.79909  23232132.79406  23232135.46506
 92  8 19  3 40 30.0000000  0  7 11 21 23 25 12 28 15
  21411167.68706 -23207199.43506 -18083518.65509  21411036.33606  21411039.08006
  21081640.78206 -16737465.59706 -13042150.87009  21081509.59406  21081511.03406
  23926257.14006    315547.81406    245905.34609  23926125.89506  23926128.79506
  22652851.70606 -15346852.57606 -11958558.88409  22652720.52506  22652722.57606
  24144194.00106  -4756645.72206  -3706459.20809  24144063.23506  24144066.58606
  23690323.54306  -8808563.79306  -6863809.92509  23690191.95506  23690195.90906
  23213461.93506 -10709927.79606  -8345391.44009  23213330.35306  23213333.02106
 92  8 19  3 41  0.0000000  0  7 11 21 23 25 12 28 15
  21416927.86706 -23176929.31906 -18059931.55809  21416796.55906  21416799.35806
  21088811.15706 -16699784.53206 -13012788.98309  21088679.98206  21088681.46706
  23939651.82006    385937.41006    300754.38709  23939520.63006  23939523.41406
  22635233.61506 -15439436.10706 -12030701.80009  22635102.43206  22635104.45106
  24155800.22706  -4695655.17206  -3658934.10409  24155669.06806  24155672.58906
  23708300.31606  -8714095.35606  -6790198.22609  23708168.77806  23708172.63406
  23194680.41806 -10808623.80706  -8422297.35409  23194549.05306  23194551.68306
 92  8 19  3 41 30.0000000  0  7 11 25 23 12 28 21 15
  21422799.70206 -23146072.46406 -18035887.26309  21422668.39806  21422671.26106
  22617643.22206 -15531873.97706 -12102731.21709  22617512.05606  22617514.04206
  23953055.48306    456373.18606    355639.40209  23952924.19406  23952926.95806
  24167496.83306  -4634186.21806  -3611036.22109  24167366.18706  24167369.83506
  23726272.78706  -8619647.41406  -6716602.49909  23726141.46306  23726145.38406
  21096010.91106 -16661949.78606 -12983307.34409  21095879.67506  21095881.14006
  23175922.78706 -10907195.33006  -8499106.26609  23175791.38106  23175794.09506
 92  8 19  3 42  0.0000000  0  7 11 23 25 12 28 21 15
  21428785.31606 -23114618.15306 -18011377.42109  21428653.97306  21428656.71806
  23966467.30506    526852.54306    410558.36609  23966335.79606  23966338.65306
  22600082.07806 -15624157.76306 -12174640.57109  22599950.88006  22599952.84206
  24179287.27506  -4572228.73906  -3562757.67609  24179156.46206  24179160.12206
  23744249.29806  -8525181.61206  -6642992.84709  23744117.81406  23744121.66806
  21103242.00906 -16623950.32206 -12953697.36109  21103110.74706  21103112.22506
  23157191.80606 -11005627.29806  -8575806.43809  23157060.34406  23157062.99306
 92  8 19  3 42 30.0000000  0  7 11 23 25 12 28 21 15
  21434885.06306 -23082564.05006 -17986400.21009  21434753.68106  21434756.48606
  23979885.24506    597364.82906    465502.99309  23979753.81806  23979756.70206
  22582551.67106 -15716280.00306 -12246424.04509  22582420.44806  22582422.42106
  24191170.75406  -4509781.00106  -3514097.10909  24191039.98906  24191043.66206
  23762233.10506  -8430676.26006  -6569352.38309  23762101.46506  23762105.44606
  21110504.16106 -16585787.17806 -12923959.83609  21110372.96506  21110374.41106
  23138488.47106 -11103913.19606  -8652392.79609  23138357.12206  23138359.72606
 92  8 19  3 43  0.0000000  0  7 11 25 23 12 28 21 15
  21441098.63306 -23049911.38906 -17960956.59209  21440967.27006  21440970.09506
  22565052.73906 -15808236.94406 -12318078.72509  22564921.57406  22564923.50006
  23993307.15606    667896.92506    520463.06109  23993175.60906  23993178.57406
  24203147.39706  -4446844.75906  -3465055.88309  24203016.46306  24203020.10606
  23780224.71306  -8336132.24506  -6495681.80309  23780092.75806  23780096.79206
  21117798.71706 -16547454.08906 -12894089.88709  21117667.51806  21117668.96806
  23119813.55006 -11202050.13906  -8728863.09009  23119682.22306  23119684.84306
 92  8 19  3 43 30.0000000  4  1
 -2356494.0000 -4646608.0000  3668427.0000                  APPROX POSITION XYZ
 92  8 19  3 43 30.0000000  0  7 11 25 23 12 28 21 15
  21447425.93106 -23016661.29806 -17935047.44809  21447294.58506  21447297.39406
  22547586.72006 -15900021.49906 -12389599.06509  22547455.54706  22547457.46606
  24006730.92406    738439.64406    575431.40009  24006599.54606  24006602.37106
  24215216.17206  -4383422.03706  -3415635.58309  24215085.26106  24215088.94806
  23798222.55906  -8241552.44206  -6421983.33409  23798090.65406  23798094.76006
  21125126.51106 -16508946.25106 -12864083.77309  21124995.30806  21124996.71506
  23101167.53706 -11300035.00906  -8805214.89409  23101036.27706  23101038.94206
 92  8 19  3 44  0.0000000  0  7 11 25 23 12 28 21 15
  21453868.04606 -22982807.76206 -17908668.08209  21453736.70306  21453739.53206
  22530157.78506 -15991610.72706 -12460967.21209  22530026.59706  22530028.48706
  24020157.67006    808997.14006    630411.24209  24020026.32406  24020029.15506
  24227378.28106  -4319507.04206  -3365831.69709  24227247.80106  24227251.46006
  23816224.42206  -8146952.92206  -6348269.49309  23816092.39706  23816096.63806
  21132490.39806 -16470249.37006 -12833930.35409  21132359.08906  21132360.50806
  23082552.41106 -11397857.28706  -8881440.00909  23082421.31506  23082423.85306
 92  8 19  3 44 30.0000000  0  7 11 25 23 12 28 21 15
  21460427.76606 -22948336.01406 -17881806.99709  21460296.46606  21460299.27006
  22512770.10006 -16082983.33006 -12532166.56609  22512639.02506  22512640.88606
  24033593.05606    879600.46606    685426.80209  24033461.66306  24033464.56606
  24239637.40806  -4255085.89106  -3315633.39909  24239506.68806  24239510.22206
  23834223.54406  -8052365.91006  -6274565.39909  23834091.78506  23834095.88906
  21139894.80006 -16431338.44706 -12803610.15009  21139763.56006  21139765.01506
  23063971.95406 -11495497.80706  -8957523.50109  23063840.79806  23063843.53506
 92  8 19  3 45  0.0000000  0  7 11 25 23 12 28 21 15
  21467111.62906 -22913212.49306 -17854438.03509  21466980.27206  21466983.08306
  22495431.34606 -16174099.36806 -12603166.00709  22495300.10406  22495301.92906
  24047048.17306    950308.32306    740523.80709  24046916.74006  24046919.81506
  24251998.94506  -4190125.38106  -3265014.82009  24251868.34906  24251871.94106
  23852222.42106  -7957782.91906  -6200864.44109  23852090.44506  23852094.45506
  21147346.31806 -16392180.47206 -12773097.43709  21147215.07306  21147216.50206
  23045433.42706 -11592918.66206  -9033435.83009  23045302.21006  23045304.84306
 92  8 19  3 45 30.0000000  0  7 11 25 23 12 28 21 15
  21473926.89406 -22877397.79206 -17826530.49209  21473795.57506  21473798.46406
  22478147.27906 -16264927.02006 -12673940.71709  22478016.15906  22478017.92606
  24060535.63306   1021185.37306    795752.64809  24060404.24506  24060407.17706
  24264471.11406  -4124586.60606  -3213945.64609  24264340.11006  24264343.67206
  23870227.04606  -7863165.27906  -6127136.48609  23870095.71606  23870099.55506
  21154850.41206 -16352746.17806 -12742369.41109  21154719.17106  21154720.54906
  23026944.95506 -11690076.18906  -9109142.97709  23026813.81006  23026816.45706
 92  8 19  3 46  0.0000000  0  7 11 25 23 12 28 21 15
  21480880.68806 -22840855.37406 -17798055.89409  21480749.40106  21480752.21206
  22460924.41806 -16355433.71506 -12744465.33109  22460793.24606  22460795.05406
  24074062.29506   1092268.51606    851142.08109  24073931.11506  24073933.78006
  24277059.47106  -4058433.70706  -3162397.92509  24276928.60906  24276932.16406
  23888247.33206  -7768466.83806  -6053345.57509  23888116.37806  23888120.24306
  21162411.26506 -16313013.66906 -12711409.00909  21162280.01806  21162281.37206
  23008514.46306 -11786929.15006  -9184612.79609  23008383.28206  23008385.89206
 92  8 19  3 46 30.0000000  0  7 11 25 23 12 28 21 15
  21487978.55406 -22803556.28906 -17768991.68609  21487847.17806  21487850.02506
  22443768.60306 -16445587.72406 -12814715.12909  22443637.44406  22443639.21506
  24087634.94306   1163591.16306    906718.13409  24087503.36406  24087506.16406
  24289770.42006  -3991638.23306  -3110349.50409  24289639.39106  24289642.99506
  23906294.27106  -7673628.97206  -5979446.02009  23906163.43006  23906167.43606
  21170033.84506 -16272956.50106 -12680195.62709  21169902.62606  21169904.04306
  22990148.37306 -11883443.93006  -9259819.09309  22990017.08506  22990019.75406
 92  8 19  3 47  0.0000000  0  7 11 25 23 12 28 21 15
  21495224.72306 -22765477.34806 -17739319.79809  21495093.38306  21495096.22206
  22426687.13706 -16535350.77806 -12884660.28709  22426556.02806  22426557.81406
  24101254.99606   1235167.15906    962491.60309  24101123.97506  24101126.58506
  24302607.08306  -3924177.51606  -3057782.71009  24302476.51806  24302480.24306
  23924378.60206  -7578593.89706  -5905392.78909  23924248.05306  23924252.11306
  21177722.52206 -16232552.29306 -12648711.82409  21177591.30306  21177592.70106
  22971851.83406 -11979592.44006  -9334739.97609  22971720.62406  22971723.24906
 92  8 19  3 47 30.0000000  0  7 25 11 23 12 28 21 15
  22409682.06106 -16624712.83106 -12954292.97109  22409550.91606  22409552.67106
  21502620.05706 -22726614.69206 -17709037.22109  21502488.69706  21502491.51406
  24114919.97806   1306976.41206   1018446.83409  24114788.65906  24114791.58306
  24315571.76806  -3856048.03006  -3004694.80109  24315441.13206  24315444.75306
  23942503.92106  -7483345.15706  -5831173.06609  23942373.28906  23942377.30006
  21185481.55006 -16191778.33306 -12616939.90309  21185350.31806  21185351.69206
  22953626.83306 -12075366.26506  -9409368.88809  22953495.52206  22953498.01706
 92  8 19  3 48  0.0000000  0  7 25 11 23 12 28 21 15
  22392751.07006 -16713685.90006 -13023622.54709  22392619.83206  22392621.57806
  21510161.50006 -22686983.70806 -17678155.94409  21510030.23506  21510033.11306
  24128623.67706   1378988.95706   1074560.48509  24128492.21206  24128495.12806
  24328660.54006  -3787266.04606  -2951098.44709  24328529.96506  24328533.52506
  23960667.63406  -7387895.69606  -5756796.94309  23960536.72506  23960540.65506
  21193311.58606 -16150630.92506 -12584876.98209  21193180.39106  21193181.81706
  22935470.93006 -12170776.41706  -9483714.41309  22935339.60006  22935342.09006
 92  8 19  3 48 30.0000000  0  7 25 11 23 12 28 21 15
  22375892.03306 -16802280.16506 -13092656.96409  22375760.90506  22375762.62406
  21517845.67106 -22646603.23006 -17646690.64809  21517714.38706  21517717.24906
  24142363.00006   1451190.31806   1130821.26409  24142231.58306  24142234.67706
  24341869.98506  -3717850.44706  -2897008.36609  24341739.32306  24341742.83406
  23978864.56106  -7292272.28206  -5682285.27309  23978733.35506  23978737.26506
  21201212.41106 -16109112.06606 -12552524.61909  21201081.18906  21201082.60106
  22917381.46706 -12265837.13306  -9557787.63709  22917250.02706  22917252.55706
 92  8 19  3 49  0.0000000  0  7 25 11 23 12 28 21 15
  22359099.02406 -16890527.38206 -13161420.94909  22358967.92606  22358969.60406
  21525667.99506 -22605497.33806 -17614660.09309  21525536.62806  21525539.46006
  24156134.37506   1523558.60806   1187212.10809  24156002.90306  24156005.83606
  24355195.51006  -3647825.93606  -2842443.80809  24355064.66406  24355068.15306
  23997087.29306  -7196511.90906  -5607666.88609  23996955.97106  23996960.06806
  21209179.65606 -16067244.29706 -12519900.37909  21209048.36506  21209049.80606
  22899354.73706 -12360567.84006  -9631603.70009  22899223.29706  22899225.84806
 92  8 19  3 49 30.0000000  0  7 25 11 23 12 28 21 15
  22342362.51806 -16978478.01206 -13229953.82509  22342231.45806  22342233.12106
  21533619.93306 -22563709.59706 -17582098.22409  21533488.58906  21533491.39406
  24169932.12106   1596066.77006   1243711.95209  24169800.73406  24169803.74006
  24368628.30306  -3577236.78806  -2787439.27109  24368497.17306  24368500.88806
  24015325.64306  -7100669.69706  -5532984.72609  24015194.04806  24015198.34106
  21217205.22506 -16025069.08006 -12487036.56809  21217073.97606  21217075.46106
  22881383.55706 -12455007.24506  -9705192.76909  22881252.07606  22881254.45606
 92  8 19  3 50  0.0000000  0  7 25 11 23 12 28 21 15
  22325670.18106 -17066195.63406 -13298305.12209  22325539.24706  22325540.89306
  21541688.59506 -22521307.69706 -17549057.79209  21541557.34606  21541560.19506
  24183747.28406   1668665.93506   1300282.70509  24183616.05906  24183618.89506
  24382155.40606  -3506150.92206  -2732047.68409  24382024.33606  24382028.04706
  24033567.02906  -7004813.99506  -5458292.05309  24033434.87206  24033439.14606
  21225273.22106 -15982671.55706 -12453999.52909  21225142.01406  21225143.42806
  22863455.94206 -12549218.17506  -9778603.79909  22863324.38906  22863326.65606
 92  8 19  3 50 30.0000000  0  7 25 11 23 12 28 21 15
  22309015.64606 -17153715.89606 -13366502.66009  22308884.56406  22308886.16606
  21549864.59506 -22478343.00706 -17515578.82109  21549733.26506  21549736.09906
  24197571.96606   1741314.60906   1356892.05309  24197440.66506  24197443.46906
  24395766.96306  -3434620.06206  -2676309.34709  24395636.16306  24395639.98006
  24051802.10506  -6908990.04006  -5383624.11309  24051669.69506  24051673.84206
  21233371.24806 -15940116.12106 -12420839.43909  21233240.03806  21233241.46106
  22845562.79906 -12643247.20506  -9851873.08609  22845431.18406  22845433.41806
 92  8 19  3 51  0.0000000  0  7 25 11 21 23 12 28 15
  22292396.42006 -17241050.77206 -13434555.73409  22292265.30406  22292266.92706
  21558143.91306 -22434835.33106 -17481676.74209  21558012.50006  21558015.39006
  21241496.40406 -15897417.84306 -12387568.04809  21241365.20606  21241366.61206
  24211400.41906   1813982.71206   1413516.53309  24211268.95406  24211271.97306
  24409459.27806  -3362664.49906  -2620240.07409  24409328.82106  24409332.60306
  24070027.31406  -6813214.78106  -5308994.12409  24069895.15106  24069899.40006
  22827701.36806 -12737109.20606  -9925012.21709  22827569.73506  22827572.04106
 92  8 19  3 51 30.0000000  0  7 25 11 23 12 28 21 15
  22275814.35406 -17328190.61906 -13502456.85909  22275683.12406  22275684.72306
  21566525.27006 -22390790.84306 -17447356.36909  21566393.91406  21566396.76206
  24225229.33706   1886654.93306   1470144.22009  24225097.94306  24225100.85906
  24423231.96806  -3290290.82706  -2563845.00509  24423101.14806  24423104.77206
  24088240.96006  -6717501.97806  -5234412.81209  24088108.62606  24088112.95306
  21249648.00606 -15854580.93906 -12354188.63109  21249516.77906  21249518.22006
  22809871.40606 -12830805.59906  -9998022.29409  22809739.86906  22809742.10506
 92  8 19  3 52  0.0000000  0  7 25 11 23 12 28 21 15
  22259271.98306 -17415120.73106 -13570194.54009  22259140.76706  22259142.34306
  21575010.18406 -22346202.16506 -17412611.95209  21574878.84606  21574881.74906
  24239058.96106   1959330.81706   1526774.76509  24238927.76306  24238930.72006
  24437085.10706  -3217492.24106  -2507118.82809  24436954.32506  24436957.89106
  24106443.53206  -6621848.18606  -5159877.48409  24106311.24706  24106315.46306
  21257827.42606 -15811597.44406 -12320694.98809  21257696.25206  21257697.67206
  22792075.49906 -12924324.07306 -10070893.73309  22791943.79006  22791946.02006
 92  8 19  3 52 30.0000000  0  7 25 11 21 23 12 28 15
  22242773.02706 -17501822.37506 -13637754.19209  22242641.99006  22242643.57306
  21583599.60806 -22301064.43506 -17377439.70209  21583468.29006  21583471.15206
  21266039.28906 -15768444.25906 -12287069.11809  21265908.06806  21265909.50106
  24252890.40606   2032014.31106   1583411.24709  24252759.01206  24252762.00606
  24451020.01606  -3144264.00006  -2450057.84609  24450889.26406  24450892.58906
  24124634.01406  -6526255.96106  -5085390.11909  24124501.72706  24124506.18106
  22774315.16506 -13017654.68506 -10143618.78609  22774183.53206  22774185.67106
 92  8 19  3 53  0.0000000  0  7 25 11 21 23 12 28 15
  22226316.13506 -17588303.11606 -13705141.72509  22226185.16006  22226186.71006
  21592291.12806 -22255390.21506 -17341849.40609  21592159.79906  21592162.67506
  21274283.97006 -15725117.64406 -12253308.10809  21274152.79106  21274154.17806
  24266721.33606   2104696.76406   1640046.90209  24266589.83606  24266592.81506
  24465034.07606  -3070619.08406  -2392672.19009  24464903.29606  24464906.87306
  24142806.25106  -6430761.45506  -5010978.90109  24142673.97706  24142678.35006
  22756589.08306 -13110805.07206 -10216203.40509  22756457.49006  22756459.70806
 92  8 19  3 53 30.0000000  0  7 25 11 21 23 12 28 15
  22209902.03306 -17674559.67706 -13772354.55009  22209771.00206  22209772.60706
  21601084.39406 -22209181.79106 -17305842.85009  21600952.99006  21600955.83406
  21282560.75506 -15681622.91606 -12219416.09709  21282429.57206  21282430.98206
  24280556.02206   2177399.52206   1696698.37309  24280424.79306  24280427.78006
  24479127.01306  -2996560.29306  -2334964.02809  24478996.11906  24478999.71606
  24160957.45406  -6335375.29906  -4936652.10209  24160825.47506  24160829.82206
  22738897.78906 -13203772.87906 -10288645.75109  22738766.21606  22738768.38606
 92  8 19  3 54  0.0000000  0  7 25 11 23 12 28 21 15
  22193530.56606 -17760593.12506 -13839393.51209  22193399.34606  22193400.83706
  21609978.51406 -22162442.44806 -17269422.59209  21609847.24906  21609850.06906
  24294396.39006   2250130.68306   1753372.00909  24294265.25706  24294268.15506
  24493297.77706  -2922091.20606  -2276936.16109  24493167.07006  24493170.79406
  24179088.88106  -6240092.84506  -4862406.11209  24178957.05206  24178961.32406
  21290872.67106 -15637943.74806 -12185380.36809  21290741.41006  21290742.87806
  22721241.67406 -13296555.90406 -10360944.11209  22721110.09206  22721112.31406
 92  8 19  3 54 30.0000000  0  7 25 11 21 23 12 28 15
  22177203.48306 -17846392.98406 -13906250.48009  22177072.22506  22177073.69606
  21618975.43706 -22115162.83806 -17232581.34309  21618844.19306  21618847.09406
  21299222.57106 -15594064.35206 -12151188.61909  21299091.38806  21299092.82406
  24308246.44706   2322912.16906   1810084.85909  24308115.07006  24308117.95206
  24507548.59806  -2847202.52606  -2218581.33609  24507417.90406  24507421.68806
  24197202.61006  -6144904.33406  -4788233.32309  24197070.94906  24197075.21006
  22703623.50306 -13389139.56306 -10433087.12309  22703491.94906  22703494.12106
 92  8 19  3 55  0.0000000  0  7 25 11 23 12 28 21 15
  22160922.84206 -17931947.58806 -13972916.33309  22160791.66906  22160793.09206
  21628079.77306 -22067319.74106 -17195301.01409  21627948.43706  21627951.29106
  24322111.82206   2395774.47106   1866860.67409  24321980.30406  24321983.36206
  24521883.75506  -2771871.72506  -2159882.00309  24521752.86006  24521756.63106
  24215303.42306  -6049786.20406  -4714115.37809  24215171.57606  24215175.81906
  21307613.21906 -15549971.00306 -12116830.15409  21307482.03006  21307483.44306
  22686048.55406 -13481495.93406 -10505053.02809  22685917.02306  22685919.17106
 92  8 19  3 55 30.0000000  0  7 25 11 21 23 12 28 15
  22144696.38506 -18017217.54606 -14039360.40009  22144565.27506  22144566.74606
  21637297.71706 -22018879.25606 -17157555.18809  21637166.35706  21637169.29306
  21316049.24306 -15505639.38206 -12082286.02109  21315918.04306  21315919.46506
  24335998.08806   2468747.58106   1923722.82809  24335866.58806  24335869.55006
  24536309.41706  -2696064.97606  -2100811.80009  24536178.41206  24536182.14706
  24233399.84406  -5954687.27606  -4640012.38809  24233268.31506  24233272.58106
  22668524.38906 -13573585.87306 -10576811.32609  22668392.81606  22668394.92506
 92  8 19  3 56  0.0000000  0  7 25 11 21 23 12 28 15
  22128531.43606 -18102164.15406 -14105552.48409  22128400.41106  22128401.86706
  21646635.82306 -21969806.83606 -17119316.94909  21646504.55306  21646507.43406
  21324536.20806 -15461040.42306 -12047533.57409  21324405.00206  21324406.38806
  24349911.23106   2541861.29606   1980694.58209  24349779.66606  24349782.57006
  24550831.86106  -2619748.22006  -2041344.18709  24550700.94206  24550704.60106
  24251499.58006  -5859571.39506  -4565896.18609  24251368.22506  24251372.65406
  22651058.45606 -13665369.88506 -10648331.24109  22650926.83106  22650928.95506
 92  8 19  3 56 30.0000000  0  7 25 11 23 12 28 21 15
  22112437.33406 -18186738.41206 -14171454.43109  22112306.24106  22112307.68906
  21656100.42506 -21920070.53806 -17080561.40509  21655969.07106  21655971.91406
  24363856.37606   2615143.20506   2037797.36109  24363724.87106  24363727.69106
  24565457.68106  -2542889.81906  -1981454.51409  24565326.64806  24565330.24906
  24269607.82906  -5764412.63606  -4491746.56809  24269476.34906  24269480.82106
  21333075.35206 -15416166.86106 -12012567.15109  21332944.11606  21332945.56006
  22633657.69606 -13756810.99006 -10719583.96109  22633526.12306  22633528.17706
 92  8 19  3 57  0.0000000  0  7 25 11 23 12 28 21 15
  22096422.43606 -18270897.77106 -14237033.07809  22096291.35406  22096292.69806
  21665695.76606 -21869646.69106 -17041270.10809  21665564.39006  21665567.26206
  24377835.01506   2688603.48406   2095039.13709  24377703.81006  24377706.62306
  24580190.57306  -2465466.10506  -1921124.32809  24580059.92306  24580063.47606
  24287729.94106  -5669180.83406  -4417540.03409  24287598.52206  24287602.90106
  21341671.40106 -15370994.19106 -11977367.65809  21341540.17506  21341541.62906
  22616327.73906 -13847880.05906 -10790546.78909  22616196.17406  22616198.18506
 92  8 19  3 57 30.0000000  0  7 25 11 21 23 12 28 15
  22080494.16406 -18354601.56006 -14302256.73309  22080362.95806  22080364.35706
  21675427.49106 -21818505.86506 -17001420.12709  21675296.16806  21675299.09506
  21350332.36406 -15325480.48506 -11941902.42609  21350201.13706  21350202.56206
  24391851.62506   2762260.84306   2152434.46109  24391720.11506  24391722.99906
  24595036.75906  -2387448.20206  -1860331.14209  24594906.18006  24594909.81206
  24305871.90806  -5573845.09006  -4343252.51809  24305740.28406  24305744.74606
  22599075.32206 -13938542.36106 -10861192.65809  22598943.69506  22598945.65106
 92  8 19  3 58  0.0000000  0  7 25 11 21 23 12 28 15
  22064653.67606 -18437843.69506 -14367120.66309  22064522.41306  22064523.76406
  21685299.60306 -21766628.14806 -16960995.94609  21685168.16806  21685171.11506
  21359064.47506 -15279592.95606 -11906145.90609  21358933.24006  21358934.68906
  24405910.91406   2836141.23406   2210003.57009  24405779.25606  24405782.10006
  24610000.19006  -2308816.38506  -1799059.58309  24609869.40306  24609873.02806
  24324037.41706  -5478385.98506  -4268868.86909  24323905.64106  24323910.08706
  22581905.03306 -14028772.48206 -10931501.77309  22581773.42806  22581775.38006
 92  8 19  3 58 30.0000000  0  7 25 11 21 23 12 28 15
  22048902.23706 -18520617.63406 -14431619.77409  22048771.06106  22048772.41606
  21695311.91006 -21714013.05406 -16919997.18709  21695180.55506  21695183.43406
  21367869.76406 -15233320.07106 -11870089.11109  21367738.64306  21367740.08006
  24420010.35706   2910236.53006   2267740.15009  24419879.07206  24419882.09906
  24625079.82306  -2229570.34406  -1737309.40009  24624949.21806  24624952.95706
  24342227.28106  -5382798.33606  -4194385.04509  24342095.31806  24342099.89006
  22564817.95106 -14118564.81206 -11001469.75509  22564686.38606  22564688.30806
 92  8 19  3 59  0.0000000  0  7 25 11 21 23 12 28 15
  22033236.07006 -18602943.28306 -14495769.56109  22033104.97706  22033106.36406
  21705462.32106 -21660672.04806 -16878432.78509  21705331.05406  21705333.84306
  21376751.33906 -15186647.02806 -11833720.50209  21376620.24506  21376621.63306
  24434151.47006   2984547.08206   2325644.45409  24434020.05306  24434022.94406
  24640274.89806  -2149721.64006  -1675089.62009  24640143.95506  24640147.68106
  24360437.57906  -5287103.31406  -4119817.55609  24360305.48506  24360310.17806
  22547813.04306 -14207925.50806 -11071101.40409  22547681.55106  22547683.43906
 92  8 19  3 59 30.0000000  0  7 25 11 21 15 23 12 28
  22017649.84606 -18684848.56206 -14559591.78809  22017518.86606  22017520.20706
  21715747.17706 -21606624.46606 -16836317.80209  21715615.92106  21715618.80106
  21385707.15006 -15139584.68906 -11797048.54709  21385575.90006  21385577.28206
  22530887.72706 -14296868.63706 -11140407.68409  22530756.24106  22530758.06706
  24448332.13306   3059068.59206   2383713.16209  24448200.86806  24448204.12406
  24655580.44106  -2069290.00906  -1612415.61009  24655449.66006  24655453.35506
  24378662.02106  -5191332.63806  -4045191.11609  24378529.91706  24378534.66306
 92  8 19  4  0  0.0000000  0  7 25 11 21 15 23 12 28
  22002142.15606 -18766342.34906 -14623093.37009  22002011.07206  22002012.35906
  21726160.85306 -21551900.67106 -16793675.90309  21726029.50406  21726032.37106
  21394729.34106 -15092172.92006 -11760104.31009  21394598.11606  21394599.54006
  22514036.96606 -14385419.25406 -11209408.11409  22513905.51906  22513907.40206
  24462550.58106   3133784.17606   2441933.05809  24462418.98806  24462421.81106
  24670991.26906  -1988306.02206  -1549311.19209  24670860.30906  24670863.94406
  24396895.30106  -5095516.46306  -3970529.22009  24396763.30006  24396767.98506
 92  8 19  4  0 30.0000000  0  7 25 11 21 23 12 28 15
  21986709.50406 -18847441.62306 -14686287.54709  21986578.29306  21986579.58806
  21736694.88306 -21496544.33406 -16750541.11309  21736563.50806  21736566.34706
  21403808.33106 -15044462.18906 -11722927.11709  21403677.13906  21403678.56006
  24476798.26806   3208657.99406   2500276.23709  24476667.01306  24476669.95506
  24686498.81406  -1906813.58406  -1485810.58109  24686367.80406  24686371.42506
  24415127.44206  -4999706.67306  -3895872.28609  24414995.36106  24415000.06906
  22497253.54706 -14473615.52906 -11278132.43109  22497122.24206  22497124.16106
 92  8 19  4  1  0.0000000  0  7 25 11 21 15 23 12 28
  21971342.18706 -18928196.68106 -14749213.50409  21971211.04906  21971212.31206
  21747340.96006 -21440598.50806 -16706946.97909  21747209.68406  21747212.54906
  21412936.21906 -14996494.75406 -11685549.89709  21412805.02906  21412806.44606
  22480530.59906 -14561494.79106 -11346609.72909  22480399.33106  22480401.25506
  24491071.69206   3283665.41006   2558723.55109  24490940.47306  24490943.42106
  24702094.98806  -1824855.66106  -1421947.25609  24701963.98806  24701967.46206
  24433349.87406  -4903946.49006  -3821254.00309  24433217.75406  24433222.43206
 92  8 19  4  1 30.0000000  0  7 25 11 21 15 23 12 28
  21956033.24806 -19008645.59406 -14811900.90009  21955902.13906  21955903.41006
  21758090.26406 -21384110.30206 -16662930.21009  21757959.02306  21757961.93306
  21422100.19106 -14948337.99706 -11648025.15509  21421968.98106  21421970.39906
  22463859.92206 -14649099.09706 -11414872.77609  22463728.70806  22463730.66006
  24505360.82006   3358754.34106   2617234.32509  24505229.58506  24505232.30106
  24717770.38806  -1742479.59906  -1357758.09709  24717639.65506  24717643.06106
  24451557.22106  -4808266.28906  -3746698.04809  24451425.11706  24451429.79506
 92  8 19  4  2  0.0000000  0  7 25 11 21 15 23 12 28
  21940777.36706 -19088815.01406 -14874370.51009  21940646.31706  21940647.57306
  21768936.27206 -21327115.08406 -16618518.36909  21768804.85006  21768807.72706
  21431291.78106 -14900035.74106 -11610387.03509  21431160.61406  21431162.06606
  22447235.95906 -14736458.42506 -11482944.93509  22447104.72906  22447106.77006
  24519657.90806   3433887.46806   2675779.59609  24519526.65306  24519530.00606
  24733519.12606  -1659721.21806  -1293271.03509  24733388.15606  24733391.62906
  24469743.58706  -4712696.81906  -3672228.36509  24469611.50806  24469616.21006
 92  8 19  4  2 30.0000000  0  7 25 11 21 15 23 12 28
  21925567.27806 -19168744.64106 -14936653.27009  21925436.13406  21925437.43106
  21779874.37606 -21269634.73406 -16573728.50109  21779742.99406  21779745.91906
  21440509.46006 -14851596.18406 -11572641.92709  21440378.29706  21440379.77906
  22430655.44306 -14823589.05806 -11550838.89109  22430524.30106  22430526.38806
  24533960.00706   3509042.28906   2734341.80609  24533828.21206  24533831.29006
  24749335.87406  -1576602.32106  -1228503.05509  24749205.06106  24749208.57606
  24487902.95206  -4617265.62406  -3597866.41209  24487771.46206  24487776.20306
 92  8 19  4  3  0.0000000  0  7 25 11 21 15 23 12 28
  21910401.69006 -19248440.34706 -14998753.76209  21910270.53906  21910271.74806
  21790903.81806 -21211674.41706 -16528564.63509  21790772.51906  21790775.39106
  21449754.31706 -14803014.38506 -11534785.98009  21449623.14206  21449624.60806
  22414118.68906 -14910490.62706 -11618554.35609  22413987.47406  22413989.46506
  24548262.58406   3584203.76706   2792909.19209  24548130.98306  24548134.08206
  24765220.19306  -1493128.09806  -1163458.19509  24765089.58506  24765093.31006
  24506036.14706  -4521976.21206  -3523614.93909  24505904.58006  24505909.42106
 92  8 19  4  3 30.0000000  0  7 25 11 21 15 23 12 28
  21895284.35006 -19327882.43506 -15060656.62309  21895153.19606  21895154.41506
  21802024.00106 -21153237.62006 -16483029.48509  21801892.68906  21801895.61006
  21459027.41606 -14754283.68006 -11496814.00509  21458896.24606  21458897.67706
  22397625.86806 -14997160.89306 -11686089.58509  22397494.63706  22397496.68106
  24562565.12506   3659364.87506   2851476.30009  24562433.78506  24562436.71806
  24781171.46106  -1409302.36806  -1098139.43109  24781040.93906  24781044.75906
  24524139.54206  -4426842.68606  -3449484.92009  24524008.05406  24524012.66206
 92  8 19  4  4  0.0000000  0  7 25 11 21 15 23 12 28
  21880217.54706 -19407058.30806 -15122352.04909  21880086.45406  21880087.62406
  21813235.79306 -21094319.96706 -16437119.64109  21813104.38406  21813107.22206
  21468333.72806 -14705379.07106 -11458706.52109  21468202.51406  21468203.96906
  22381179.04006 -15083589.93306 -11753436.84509  22381047.71406  22381049.77506
  24576871.25006   3734544.62606   2910057.91409  24576739.93206  24576742.91006
  24797190.56706  -1325120.83006  -1032543.43309  24797060.11006  24797064.06106
  24542211.37906  -4331873.61906  -3375483.02609  24542079.91806  24542084.45806
 92  8 19  4  4 30.0000000  0  7 25 11 21 15 23 12 28
  21865206.42806 -19485941.85006 -15183819.67809  21865075.27106  21865076.48206
  21824539.67906 -21034917.49106 -16390832.01309  21824408.28906  21824411.21106
  21477676.25606 -14656283.21906 -11420450.01409  21477545.10106  21477546.57606
  22364779.96206 -15169768.16206 -11820588.67209  22364648.53906  22364650.56206
  24591182.60406   3809751.11906   2968660.38009  24591051.18306  24591054.23606
  24813278.68506  -1240579.55906   -966667.12709  24813147.93906  24813151.52006
  24560252.50806  -4237064.20206  -3301605.52309  24560121.64606  24560126.20106
 92  8 19  4  5  0.0000000  0  7 25 11 21 15 23 12 28
  21850256.60906 -19564503.54906 -15245036.52909  21850125.48706  21850126.74006
  21835938.59206 -20975015.39806 -16344155.07009  21835807.29806  21835810.15006
  21487057.36306 -14606985.54206 -11382036.23909  21486926.16206  21486927.57906
  22348432.29206 -15255675.40806 -11887529.34509  22348300.94206  22348302.82206
  24605504.50206   3885011.81406   3027305.06209  24605372.89406  24605375.91006
  24829437.69206  -1155663.86706   -900499.06609  24829306.82206  24829310.33806
  24578268.72906  -4142388.29906  -3227832.03209  24578137.82006  24578142.44906
